Darstellungsparameter: Aktuell verwendete Einstellungen:
Skalierung der Graphiken ... ?
xyx+y,   Skalierungsfaktor:      Skalierung: Modus: x, Faktor: 1
Darstellungszeitraum ... ?
Vom - - bis: - -   Zeitraum: 25.03.2015 - 24.03.2020
Min/Max/Avg-Anzeige ... ?
Zeige MMA aktuell
Zeige MMA Monat
Zeige MMA alles
Zeige --A aktuell
Zeige --A Monat
Zeige --A alles
Keine MMA-Anzeige
MMA:
Average (ber die Originaldaten)
MMA-Basis: 25.03.2015 - 24.03.2020
Quicknavigation für Darstellung... ?
Tage:      1T, 2T, 3T, 5T -1T -2T -3T -5T +1T +2T +3T +5T
Wochen: 1W, 2W, 3W -1W -2W -3W +1W +2W +3W
Monate: 1M, 3M, 6M -1M -3M -6M +1M +3M +6M
Jahre:    1J, 3J, 5J, 10J -1J -3J -5J -10J +1J +3J +5J +10J
Nutze für die Darstellung ... ?
Originaldaten oder ...
Mittelwerte Minima Maxima auf...
Stundenbasis Tagesbasis Wochenbasis
Monatsbasis Jahresbasis      Datenbasis: Mittelwerte auf Tagesbasis
Darstellen als:
Statistik (Auto) Statistik J:M      Darstellung:
Zur Graphik,    zurück zur Übersicht aller Sensoren.
 
Tabellarische Datenbersicht: ?
 
Sensor: Nr:Datum:Temp:Feuchte:
Aussen-T/F 1 25-03-2015 00:00:00 7.45167 C 69.7333 %
2 26-03-2015 00:00:00 6.89083 C 64.1917 %
3 27-03-2015 00:00:00 7.275 C 60.9667 %
4 28-03-2015 00:00:00 8.14583 C 66.5167 %
5 29-03-2015 00:00:00 11.21043 C 69.8870 %
6 30-03-2015 00:00:00 7.73417 C 58.6750 %
7 31-03-2015 00:00:00 9.57083 C 61.3917 %
8 01-04-2015 00:00:00 5.7575 C 57.7667 %
9 02-04-2015 00:00:00 5.965 C 61.6500 %
10 03-04-2015 00:00:00 5.47917 C 60.3083 %
11 04-04-2015 00:00:00 5.84833 C 65.1583 %
12 05-04-2015 00:00:00 4.70167 C 58.9667 %
13 06-04-2015 00:00:00 5.09667 C 62.3833 %
14 07-04-2015 00:00:00 5.6075 C 66.7833 %
15 08-04-2015 00:00:00 8.03333 C 65.2833 %
16 09-04-2015 00:00:00 10.68333 C 66.2667 %
17 10-04-2015 00:00:00 12.5975 C 58.8333 %
18 11-04-2015 00:00:00 12.1425 C 55.4250 %
19 12-04-2015 00:00:00 11.29917 C 58.6333 %
20 13-04-2015 00:00:00 11.2925 C 53.8667 %
21 14-04-2015 00:00:00 13.26667 C 54.8333 %
22 15-04-2015 00:00:00 16.03583 C 52.5500 %
23 16-04-2015 00:00:00 14.85667 C 54.9750 %
24 17-04-2015 00:00:00 11.28 C 53.7833 %
25 18-04-2015 00:00:00 8.30333 C 53.1250 %
Sensor: Nr:Datum:Temp:Feuchte:
Aussen-T/F 26 19-04-2015 00:00:00 9.43083 C 51.3583 %
27 20-04-2015 00:00:00 11.8275 C 49.4500 %
28 21-04-2015 00:00:00 13.27833 C 49.4167 %
29 22-04-2015 00:00:00 10.60917 C 54.1250 %
30 23-04-2015 00:00:00 10.63083 C 58.6417 %
31 24-04-2015 00:00:00 13.17667 C 52.5417 %
32 25-04-2015 00:00:00 12.9125 C 66.3667 %
33 26-04-2015 00:00:00 15.42667 C 65.8083 %
34 27-04-2015 00:00:00 10.30417 C 87.7167 %
35 28-04-2015 00:00:00 8.89333 C 63.8833 %
36 29-04-2015 00:00:00 8.29083 C 62.8750 %
37 30-04-2015 00:00:00 9.585 C 68.6333 %
38 01-05-2015 00:00:00 8.0975 C 73.7083 %
39 02-05-2015 00:00:00 9.81083 C 66.7417 %
40 03-05-2015 00:00:00 13.81833 C 78.0667 %
41 04-05-2015 00:00:00 16.06417 C 72.1250 %
42 05-05-2015 00:00:00 18.12917 C 62.4750 %
43 06-05-2015 00:00:00 13.25833 C 57.6083 %
44 07-05-2015 00:00:00 13.39 C 52.4500 %
45 08-05-2015 00:00:00 14.455 C 53.7000 %
46 09-05-2015 00:00:00 15.36583 C 62.0667 %
47 10-05-2015 00:00:00 14.795 C 62.0917 %
48 11-05-2015 00:00:00 17.42583 C 57.7500 %
49 12-05-2015 00:00:00 17.955 C 59.3167 %
50 13-05-2015 00:00:00 14.00083 C 55.4667 %
Sensor: Nr:Datum:Temp:Feuchte:
Aussen-T/F 51 14-05-2015 00:00:00 13.93833 C 58.5750 %
52 15-05-2015 00:00:00 15.25583 C 63.9333 %
53 16-05-2015 00:00:00 12.21167 C 62.2833 %
54 17-05-2015 00:00:00 14.40083 C 55.0333 %
55 18-05-2015 00:00:00 15.42833 C 52.3583 %
56 19-05-2015 00:00:00 13.43277 C 49.9160 %
57 20-05-2015 00:00:00 11.94083 C 55.4083 %
58 21-05-2015 00:00:00 11.78 C 56.4083 %
59 22-05-2015 00:00:00 15.78583 C 47.5667 %
60 23-05-2015 00:00:00 16.27917 C 52.1083 %
61 24-05-2015 00:00:00 17.4275 C 57.6750 %
62 25-05-2015 00:00:00 13.7775 C 75.4667 %
63 26-05-2015 00:00:00 11.96333 C 58.6000 %
64 27-05-2015 00:00:00 12.29333 C 53.7917 %
65 28-05-2015 00:00:00 14.33917 C 53.4000 %
66 29-05-2015 00:00:00 13.34417 C 59.1167 %
67 30-05-2015 00:00:00 12.57583 C 59.2667 %
68 31-05-2015 00:00:00 14.7625 C 58.4500 %
69 01-06-2015 00:00:00 15.34667 C 64.0000 %
70 02-06-2015 00:00:00 17.45167 C 60.0000 %
71 03-06-2015 00:00:00 18.26417 C 53.1417 %
72 04-06-2015 00:00:00 19.22 C 49.2167 %
73 05-06-2015 00:00:00 23.11167 C 51.2333 %
74 06-06-2015 00:00:00 20.8725 C 60.6750 %
75 07-06-2015 00:00:00 18.5075 C 45.7667 %
Sensor: Nr:Datum:Temp:Feuchte:
Aussen-T/F 76 08-06-2015 00:00:00 16.31333 C 46.7083 %
77 09-06-2015 00:00:00 15.34083 C 43.8833 %
78 10-06-2015 00:00:00 17.59417 C 47.5417 %
79 11-06-2015 00:00:00 20.22167 C 43.8250 %
80 12-06-2015 00:00:00 19.73167 C 62.0667 %
81 13-06-2015 00:00:00 19.42333 C 70.8167 %
82 14-06-2015 00:00:00 19.36333 C 56.1083 %
83 15-06-2015 00:00:00 18.30667 C 55.0333 %
84 16-06-2015 00:00:00 16.365 C 45.2083 %
85 17-06-2015 00:00:00 16.1175 C 49.9583 %
86 18-06-2015 00:00:00 17.6175 C 59.4333 %
87 19-06-2015 00:00:00 12.8725 C 67.0250 %
88 20-06-2015 00:00:00 13.48333 C 66.2250 %
89 21-06-2015 00:00:00 15.8562 C 67.7025 %
90 22-06-2015 00:00:00 12.87 C 76.3000 %
91 23-06-2015 00:00:00 11.54917 C 84.2667 %
92 24-06-2015 00:00:00 15.69333 C 64.0667 %
93 25-06-2015 00:00:00 18.91333 C 58.4917 %
94 26-06-2015 00:00:00 19.88167 C 59.7083 %
95 27-06-2015 00:00:00 20.10862 C 61.3448 %
96 28-06-2015 00:00:00 18.18333 C 57.8250 %
97 29-06-2015 00:00:00 22.07 C 49.5167 %
98 30-06-2015 00:00:00 22.66333 C 50.9083 %
99 01-07-2015 00:00:00 25.10083 C 48.9333 %
100 02-07-2015 00:00:00 27.395 C 48.2250 %
Sensor: Nr:Datum:Temp:Feuchte:
Aussen-T/F 101 03-07-2015 00:00:00 27.8825 C 47.1750 %
102 04-07-2015 00:00:00 28.28667 C 49.8167 %
103 05-07-2015 00:00:00 27.28 C 47.5083 %
104 06-07-2015 00:00:00 22.0075 C 56.0833 %
105 07-07-2015 00:00:00 22.37583 C 51.2500 %
106 08-07-2015 00:00:00 17.825 C 55.9333 %
107 09-07-2015 00:00:00 17.09917 C 50.3417 %
108 10-07-2015 00:00:00 17.43417 C 47.0417 %
109 11-07-2015 00:00:00 21.45167 C 42.0333 %
110 12-07-2015 00:00:00 18.76167 C 56.9083 %
111 13-07-2015 00:00:00 17.3875 C 71.7500 %
112 14-07-2015 00:00:00 20.77083 C 57.6583 %
113 15-07-2015 00:00:00 21.76333 C 57.2167 %
114 16-07-2015 00:00:00 24.265 C 54.6750 %
115 17-07-2015 00:00:00 28.4475 C 37.8417 %
116 18-07-2015 00:00:00 24.14833 C 42.5417 %
117 19-07-2015 00:00:00 20.34667 C 63.1167 %
118 20-07-2015 00:00:00 21.0825 C 72.4167 %
119 21-07-2015 00:00:00 24.695 C 58.8083 %
120 22-07-2015 00:00:00 23.58083 C 55.3333 %
121 23-07-2015 00:00:00 20.82917 C 45.8417 %
122 24-07-2015 00:00:00 21.54 C 51.6667 %
123 25-07-2015 00:00:00 17.33667 C 64.7667 %
124 26-07-2015 00:00:00 15.33782 C 62.9412 %
125 27-07-2015 00:00:00 17.56583 C 67.1833 %
Sensor: Nr:Datum:Temp:Feuchte:
Aussen-T/F 126 28-07-2015 00:00:00 17.15417 C 47.7833 %
127 29-07-2015 00:00:00 16.69 C 46.4167 %
128 30-07-2015 00:00:00 13.83583 C 60.6417 %
129 31-07-2015 00:00:00 16.04333 C 56.5167 %
130 01-08-2015 00:00:00 19.1175 C 44.3917 %
131 02-08-2015 00:00:00 20.51583 C 47.2333 %
132 03-08-2015 00:00:00 23.50333 C 44.3083 %
133 04-08-2015 00:00:00 19.1575 C 64.7917 %
134 05-08-2015 00:00:00 20.32667 C 60.8500 %
135 06-08-2015 00:00:00 24.22667 C 51.2917 %
136 07-08-2015 00:00:00 26.84583 C 43.1000 %
137 08-08-2015 00:00:00 23.22583 C 56.8250 %
138 09-08-2015 00:00:00 22.54 C 54.8750 %
139 10-08-2015 00:00:00 20.13583 C 63.9667 %
140 11-08-2015 00:00:00 22.12917 C 54.1167 %
141 12-08-2015 00:00:00 23.5925 C 55.8667 %
142 13-08-2015 00:00:00 25.41083 C 52.2583 %
143 14-08-2015 00:00:00 24.8725 C 48.6583 %
144 15-08-2015 00:00:00 21.19667 C 51.7000 %
145 16-08-2015 00:00:00 15.85333 C 76.6667 %
146 17-08-2015 00:00:00 14.77917 C 76.5750 %
147 18-08-2015 00:00:00 15.985 C 67.1167 %
148 19-08-2015 00:00:00 15.55667 C 62.6583 %
149 20-08-2015 00:00:00 17.8975 C 56.5500 %
150 21-08-2015 00:00:00 18.76 C 55.2583 %
Sensor: Nr:Datum:Temp:Feuchte:
Aussen-T/F 151 22-08-2015 00:00:00 18.9875 C 50.1583 %
152 23-08-2015 00:00:00 19.48417 C 48.7167 %
153 24-08-2015 00:00:00 19.7175 C 67.7583 %
154 25-08-2015 00:00:00 17.94583 C 48.2417 %
155 26-08-2015 00:00:00 19.86833 C 48.8500 %
156 27-08-2015 00:00:00 18.44167 C 67.6167 %
157 28-08-2015 00:00:00 17.17167 C 72.7583 %
158 29-08-2015 00:00:00 20.18333 C 69.6583 %
159 30-08-2015 00:00:00 23.21917 C 66.6083 %
160 31-08-2015 00:00:00 24.31417 C 55.9917 %
161 01-09-2015 00:00:00 17.54 C 77.1833 %
162 02-09-2015 00:00:00 15.07917 C 71.6750 %
163 03-09-2015 00:00:00 14.1425 C 71.6833 %
164 04-09-2015 00:00:00 13.65917 C 64.6833 %
165 05-09-2015 00:00:00 13.05583 C 69.7417 %
166 06-09-2015 00:00:00 13.10917 C 56.4833 %
167 07-09-2015 00:00:00 13.455 C 71.1750 %
168 08-09-2015 00:00:00 15.4175 C 67.9250 %
169 09-09-2015 00:00:00 15.76167 C 57.9417 %
170 10-09-2015 00:00:00 12.94833 C 61.4583 %
171 11-09-2015 00:00:00 13.1675 C 62.5833 %
172 12-09-2015 00:00:00 15.18667 C 66.6583 %
173 13-09-2015 00:00:00 16.93167 C 79.4833 %
174 14-09-2015 00:00:00 15.35833 C 80.5417 %
175 15-09-2015 00:00:00 13.065 C 73.8583 %
Sensor: Nr:Datum:Temp:Feuchte:
Aussen-T/F 176 16-09-2015 00:00:00 14.7 C 83.4250 %
177 17-09-2015 00:00:00 14.20833 C 80.5000 %
178 18-09-2015 00:00:00 14.38667 C 73.0167 %
179 19-09-2015 00:00:00 14.08917 C 73.5250 %
180 20-09-2015 00:00:00 13.44417 C 70.9167 %
181 21-09-2015 00:00:00 12.42583 C 74.5917 %
182 22-09-2015 00:00:00 12.75833 C 80.1333 %
183 23-09-2015 00:00:00 11.50667 C 85.6250 %
184 24-09-2015 00:00:00 13.10833 C 79.6333 %
185 25-09-2015 00:00:00 13.78333 C 71.6917 %
186 26-09-2015 00:00:00 12.60917 C 72.9083 %
187 27-09-2015 00:00:00 11.13167 C 71.3417 %
188 28-09-2015 00:00:00 10.20667 C 70.9417 %
189 29-09-2015 00:00:00 10.215 C 70.4167 %
190 30-09-2015 00:00:00 10.06583 C 66.1000 %
191 01-10-2015 00:00:00 9.29917 C 61.2667 %
192 02-10-2015 00:00:00 8.59917 C 74.0083 %
193 03-10-2015 00:00:00 10.44917 C 75.1833 %
194 04-10-2015 00:00:00 12.28417 C 78.5750 %
195 05-10-2015 00:00:00 11.84583 C 79.5750 %
196 06-10-2015 00:00:00 15.80167 C 83.4417 %
197 07-10-2015 00:00:00 14.7 C 74.2167 %
198 08-10-2015 00:00:00 13.32333 C 68.8000 %
199 09-10-2015 00:00:00 12.07083 C 80.7417 %
200 10-10-2015 00:00:00 12.105 C 72.4833 %
Sensor: Nr:Datum:Temp:Feuchte:
Aussen-T/F 201 11-10-2015 00:00:00 7.89833 C 59.4083 %
202 12-10-2015 00:00:00 4.42167 C 68.4750 %
203 13-10-2015 00:00:00 3.95167 C 78.6917 %
204 14-10-2015 00:00:00 3.28417 C 89.8583 %
205 15-10-2015 00:00:00 3.80417 C 90.4250 %
206 16-10-2015 00:00:00 6.35 C 81.6917 %
207 17-10-2015 00:00:00 6.735 C 73.5833 %
208 18-10-2015 00:00:00 7.18 C 77.1667 %
209 19-10-2015 00:00:00 8.16667 C 76.7333 %
210 20-10-2015 00:00:00 9.0175 C 82.7417 %
211 21-10-2015 00:00:00 9.47 C 80.4667 %
212 22-10-2015 00:00:00 10.8575 C 70.3000 %
213 23-10-2015 00:00:00 9.86917 C 85.9750 %
214 24-10-2015 00:00:00 10.69583 C 72.8083 %
215 25-10-2015 00:00:00 11.2568 C 79.4000 %
216 26-10-2015 00:00:00 8.69667 C 85.5250 %
217 27-10-2015 00:00:00 8.0525 C 82.0167 %
218 28-10-2015 00:00:00 9.38917 C 72.9917 %
219 29-10-2015 00:00:00 9.7475 C 80.2750 %
220 30-10-2015 00:00:00 7.32333 C 86.3250 %
221 31-10-2015 00:00:00 6.77583 C 83.6250 %
222 01-11-2015 00:00:00 6.29 C 87.0333 %
223 02-11-2015 00:00:00 4.25083 C 91.1250 %
224 03-11-2015 00:00:00 4.7125 C 84.8500 %
225 04-11-2015 00:00:00 7.2225 C 83.8667 %
Sensor: Nr:Datum:Temp:Feuchte:
Aussen-T/F 226 05-11-2015 00:00:00 9.55417 C 87.5250 %
227 06-11-2015 00:00:00 12.8575 C 78.4333 %
228 07-11-2015 00:00:00 15.96833 C 79.7667 %
229 08-11-2015 00:00:00 12.09333 C 87.1417 %
230 09-11-2015 00:00:00 14.4975 C 61.9250 %
231 10-11-2015 00:00:00 12.95167 C 58.9500 %
232 11-11-2015 00:00:00 11.47167 C 60.8250 %
233 12-11-2015 00:00:00 11.10833 C 67.1417 %
234 13-11-2015 00:00:00 10.18 C 68.2667 %
235 14-11-2015 00:00:00 8.45667 C 58.9833 %
236 15-11-2015 00:00:00 12.26417 C 57.5667 %
237 16-11-2015 00:00:00 11.36917 C 57.1750 %
238 17-11-2015 00:00:00 13.67167 C 66.9000 %
239 18-11-2015 00:00:00 13.59083 C 45.0667 %
240 19-11-2015 00:00:00 11.8225 C 65.8333 %
241 20-11-2015 00:00:00 7.22083 C 84.0833 %
242 21-11-2015 00:00:00 3.41917 C 75.5000 %
243 22-11-2015 00:00:00 2.13833 C 82.4667 %
244 23-11-2015 00:00:00 1.88 C 76.4500 %
245 24-11-2015 00:00:00 1.28583 C 77.3333 %
246 25-11-2015 00:00:00 4.00833 C 74.3167 %
247 26-11-2015 00:00:00 4.22333 C 78.5917 %
248 27-11-2015 00:00:00 1.90417 C 82.8750 %
249 28-11-2015 00:00:00 3.72167 C 64.4917 %
250 29-11-2015 00:00:00 8.60917 C 59.6500 %
Sensor: Nr:Datum:Temp:Feuchte:
Aussen-T/F 251 30-11-2015 00:00:00 9.42083 C 70.1917 %
252 01-12-2015 00:00:00 10.81583 C 72.9000 %
253 02-12-2015 00:00:00 9.32917 C 63.8917 %
254 03-12-2015 00:00:00 6.91 C 65.0667 %
255 04-12-2015 00:00:00 6.15833 C 77.1333 %
256 05-12-2015 00:00:00 5.30417 C 71.3500 %
257 06-12-2015 00:00:00 7.65083 C 65.3750 %
258 07-12-2015 00:00:00 7.24333 C 79.5333 %
259 08-12-2015 00:00:00 3.85333 C 92.6417 %
260 09-12-2015 00:00:00 5.81417 C 86.4083 %
261 10-12-2015 00:00:00 2.24167 C 82.4000 %
262 11-12-2015 00:00:00 4.06583 C 76.6167 %
263 12-12-2015 00:00:00 7.5325 C 83.2833 %
264 13-12-2015 00:00:00 8.14 C 69.1250 %
265 14-12-2015 00:00:00 5.15417 C 90.8417 %
266 15-12-2015 00:00:00 4.89833 C 89.1833 %
267 16-12-2015 00:00:00 9.15083 C 89.9750 %
268 17-12-2015 00:00:00 11.63417 C 75.1167 %
269 18-12-2015 00:00:00 10.56667 C 76.0500 %
270 19-12-2015 00:00:00 10.50417 C 68.5583 %
271 20-12-2015 00:00:00 7.115 C 88.6750 %
272 21-12-2015 00:00:00 9.43583 C 63.8417 %
273 22-12-2015 00:00:00 11.1725 C 48.5000 %
274 23-12-2015 00:00:00 9.01167 C 57.9417 %
275 24-12-2015 00:00:00 8.45833 C 72.2833 %
Sensor: Nr:Datum:Temp:Feuchte:
Aussen-T/F 276 25-12-2015 00:00:00 10.48417 C 60.2500 %
277 26-12-2015 00:00:00 9.345 C 61.1667 %
278 27-12-2015 00:00:00 6.45333 C 76.4917 %
279 28-12-2015 00:00:00 2.05083 C 89.9000 %
280 29-12-2015 00:00:00 2.285 C 91.8750 %
281 30-12-2015 00:00:00 3.93417 C 81.2500 %
282 31-12-2015 00:00:00 4.05417 C 73.4333 %
283 01-01-2016 00:00:00 3.65167 C 83.7833 %
284 02-01-2016 00:00:00 3.92083 C 70.8833 %
285 03-01-2016 00:00:00 4.92917 C 64.7583 %
286 04-01-2016 00:00:00 4.6675 C 74.2000 %
287 05-01-2016 00:00:00 5.86833 C 64.5917 %
288 06-01-2016 00:00:00 5.34667 C 76.1417 %
289 07-01-2016 00:00:00 4.32417 C 76.2500 %
290 08-01-2016 00:00:00 2.07833 C 65.9667 %
291 09-01-2016 00:00:00 0.6125 C 88.5167 %
292 10-01-2016 00:00:00 5.36218 C 74.0840 %
293 11-01-2016 00:00:00 4.41333 C 78.4417 %
294 12-01-2016 00:00:00 4.76167 C 54.9417 %
295 13-01-2016 00:00:00 4.1675 C 55.5500 %
296 14-01-2016 00:00:00 2.565 C 55.8250 %
297 15-01-2016 00:00:00 2.09667 C 60.7500 %
298 16-01-2016 00:00:00 1.19 C 66.6250 %
299 17-01-2016 00:00:00 -0.53083 C 48.5583 %
300 18-01-2016 00:00:00 -5.885 C 57.7333 %
Sensor: Nr:Datum:Temp:Feuchte:
Aussen-T/F 301 19-01-2016 00:00:00 -6.08333 C 53.1500 %
302 20-01-2016 00:00:00 -2.2525 C 57.0583 %
303 21-01-2016 00:00:00 -0.195 C 66.5583 %
304 22-01-2016 00:00:00 -3.03833 C 60.6333 %
305 23-01-2016 00:00:00 3.43583 C 67.1417 %
306 24-01-2016 00:00:00 4.5925 C 67.4167 %
307 25-01-2016 00:00:00 6.55917 C 65.2583 %
308 26-01-2016 00:00:00 8.70083 C 45.6583 %
309 27-01-2016 00:00:00 10.98917 C 31.4833 %
310 28-01-2016 00:00:00 6.53417 C 55.1333 %
311 29-01-2016 00:00:00 4.86917 C 53.8667 %
312 30-01-2016 00:00:00 6.82167 C 49.3750 %
313 31-01-2016 00:00:00 5.65333 C 53.5417 %
314 01-02-2016 00:00:00 11.48583 C 43.6167 %
315 02-02-2016 00:00:00 10.0775 C 46.2083 %
316 03-02-2016 00:00:00 4.48833 C 46.5167 %
317 04-02-2016 00:00:00 3.8175 C 58.8833 %
318 05-02-2016 00:00:00 6.95917 C 59.9667 %
319 06-02-2016 00:00:00 7.20083 C 56.1333 %
320 07-02-2016 00:00:00 8.2525 C 37.4667 %
321 08-02-2016 00:00:00 7.405 C 40.7250 %
322 09-02-2016 00:00:00 6.3125 C 48.5500 %
323 10-02-2016 00:00:00 4.2375 C 44.8083 %
324 11-02-2016 00:00:00 4.22833 C 49.3500 %
325 12-02-2016 00:00:00 2.40917 C 49.6917 %
Sensor: Nr:Datum:Temp:Feuchte:
Aussen-T/F 326 13-02-2016 00:00:00 0.93917 C 68.9833 %
327 14-02-2016 00:00:00 4.075 C 74.4500 %
328 15-02-2016 00:00:00 1.52083 C 58.3750 %
329 16-02-2016 00:00:00 -0.7275 C 42.6083 %
330 17-02-2016 00:00:00 -0.33333 C 53.4250 %
331 18-02-2016 00:00:00 1.44583 C 49.3833 %
332 19-02-2016 00:00:00 0.79417 C 58.8333 %
333 20-02-2016 00:00:00 5.52417 C 63.4000 %
334 21-02-2016 00:00:00 11.48417 C 44.6750 %
335 22-02-2016 00:00:00 9.25167 C 42.6667 %
336 23-02-2016 00:00:00 1.70083 C 74.3167 %
337 24-02-2016 00:00:00 1.25 C 67.2667 %
338 25-02-2016 00:00:00 0.10917 C 60.8667 %
339 26-02-2016 00:00:00 1.8675 C 47.5667 %
340 27-02-2016 00:00:00 1.35083 C 40.6333 %
341 28-02-2016 00:00:00 1.14833 C 40.8167 %
342 29-02-2016 00:00:00 2.51 C 31.5917 %
343 01-03-2016 00:00:00 0.29417 C 46.5000 %
344 02-03-2016 00:00:00 5.84 C 42.0250 %
345 03-03-2016 00:00:00 3.0875 C 47.3000 %
346 04-03-2016 00:00:00 1.0725 C 69.0667 %
347 05-03-2016 00:00:00 4.1 C 62.7917 %
348 06-03-2016 00:00:00 2.515 C 59.7833 %
349 07-03-2016 00:00:00 1.795 C 65.8667 %
350 08-03-2016 00:00:00 1.35667 C 59.3500 %
Sensor: Nr:Datum:Temp:Feuchte:
Aussen-T/F 351 09-03-2016 00:00:00 1.89667 C 45.6500 %
352 10-03-2016 00:00:00 2.14917 C 47.1250 %
353 11-03-2016 00:00:00 3.7425 C 45.0833 %
354 12-03-2016 00:00:00 3.90583 C 30.9667 %
355 13-03-2016 00:00:00 4.57167 C 31.1833 %
356 14-03-2016 00:00:00 3.825 C 30.8417 %
357 15-03-2016 00:00:00 2.91833 C 38.5833 %
358 16-03-2016 00:00:00 4.03667 C 32.4833 %
359 17-03-2016 00:00:00 3.92083 C 39.7500 %
360 18-03-2016 00:00:00 4.26833 C 40.0000 %
361 19-03-2016 00:00:00 5.375 C 40.8000 %
362 20-03-2016 00:00:00 5.61917 C 31.5500 %
363 21-03-2016 00:00:00 6.80333 C 40.1750 %
364 22-03-2016 00:00:00 7.90167 C 33.8500 %
365 23-03-2016 00:00:00 7.75 C 36.0500 %
366 24-03-2016 00:00:00 6.74417 C 40.9500 %
367 25-03-2016 00:00:00 6.3375 C 53.9250 %
368 26-03-2016 00:00:00 8.95333 C 46.6167 %
369 27-03-2016 00:00:00 9.04783 C 40.2957 %
370 28-03-2016 00:00:00 7.90667 C 40.1750 %
371 29-03-2016 00:00:00 9.055 C 31.4333 %
372 30-03-2016 00:00:00 9.75 C 41.6917 %
373 31-03-2016 00:00:00 6.63583 C 56.8333 %
374 01-04-2016 00:00:00 6.93083 C 50.1417 %
375 02-04-2016 00:00:00 8.0475 C 51.6750 %
Sensor: Nr:Datum:Temp:Feuchte:
Aussen-T/F 376 03-04-2016 00:00:00 13.42583 C 38.0667 %
377 04-04-2016 00:00:00 13.64583 C 46.2083 %
378 05-04-2016 00:00:00 10.9925 C 55.3417 %
379 06-04-2016 00:00:00 10.6875 C 44.1083 %
380 07-04-2016 00:00:00 8.1575 C 34.2667 %
381 08-04-2016 00:00:00 5.99083 C 43.5583 %
382 09-04-2016 00:00:00 7.77083 C 41.4333 %
383 10-04-2016 00:00:00 11.51583 C 29.2333 %
384 11-04-2016 00:00:00 11.9225 C 31.8917 %
385 12-04-2016 00:00:00 10.91917 C 41.5500 %
386 13-04-2016 00:00:00 8.84833 C 59.7333 %
387 14-04-2016 00:00:00 11.13 C 45.5583 %
388 15-04-2016 00:00:00 13.36 C 32.9000 %
389 16-04-2016 00:00:00 11.87917 C 35.3083 %
390 17-04-2016 00:00:00 9.01167 C 40.1167 %
391 18-04-2016 00:00:00 7.2325 C 38.2167 %
392 19-04-2016 00:00:00 8.9975 C 25.7167 %
393 20-04-2016 00:00:00 9.22 C 32.0333 %
394 21-04-2016 00:00:00 11.33083 C 29.5500 %
395 22-04-2016 00:00:00 13.95583 C 21.0667 %
396 23-04-2016 00:00:00 8.31083 C 30.3000 %
397 24-04-2016 00:00:00 5.44 C 28.0917 %
398 25-04-2016 00:00:00 4.0775 C 43.0917 %
399 26-04-2016 00:00:00 4.38 C 39.0417 %
400 27-04-2016 00:00:00 5.32667 C 23.8250 %
Sensor: Nr:Datum:Temp:Feuchte:
Aussen-T/F 401 28-04-2016 00:00:00 6.70333 C 30.5583 %
402 29-04-2016 00:00:00 7.80583 C 30.1000 %
403 30-04-2016 00:00:00 7.91583 C 30.9333 %
404 01-05-2016 00:00:00 10.01083 C 35.3833 %
405 02-05-2016 00:00:00 10.51083 C 42.4750 %
406 03-05-2016 00:00:00 11.25917 C 31.6333 %
407 04-05-2016 00:00:00 9.2375 C 32.9917 %
408 05-05-2016 00:00:00 11.535 C 29.8083 %
409 06-05-2016 00:00:00 15.30667 C 31.8167 %
410 07-05-2016 00:00:00 17.3 C 30.4750 %
411 08-05-2016 00:00:00 18.64833 C 20.2833 %
412 09-05-2016 00:00:00 18.325 C 21.9833 %
413 10-05-2016 00:00:00 17.15833 C 26.3000 %
414 11-05-2016 00:00:00 17.9975 C 38.7333 %
415 12-05-2016 00:00:00 18.35667 C 21.6500 %
416 13-05-2016 00:00:00 14.43917 C 42.0583 %
417 14-05-2016 00:00:00 10.66167 C 30.2500 %
418 15-05-2016 00:00:00 9.19333 C 21.1750 %
419 16-05-2016 00:00:00 10.65167 C 22.1667 %
420 17-05-2016 00:00:00 13.08417 C 23.7167 %
421 18-05-2016 00:00:00 15.07 C 26.4167 %
422 19-05-2016 00:00:00 14.705 C 31.9083 %
423 20-05-2016 00:00:00 14.36917 C 27.7333 %
424 21-05-2016 00:00:00 18.82083 C 30.1667 %
425 22-05-2016 00:00:00 19.6125 C 26.3750 %
Sensor: Nr:Datum:Temp:Feuchte:
Aussen-T/F 426 23-05-2016 00:00:00 14.36417 C 28.3667 %
427 24-05-2016 00:00:00 11.07083 C 39.1667 %
428 25-05-2016 00:00:00 13.16083 C 39.4917 %
429 26-05-2016 00:00:00 15.82333 C 37.5500 %
430 27-05-2016 00:00:00 17.00333 C 47.2000 %
431 28-05-2016 00:00:00 17.40167 C 48.0833 %
432 29-05-2016 00:00:00 18.06417 C 41.2500 %
433 30-05-2016 00:00:00 17.56333 C 48.6833 %
434 31-05-2016 00:00:00 16.76452 C 37.3387 %
435 01-06-2016 00:00:00 15.94792 C 43.6458 %
436 02-06-2016 00:00:00 17.97014 C 45.8819 %
437 03-06-2016 00:00:00 16.98542 C 47.4514 %
438 04-06-2016 00:00:00 18.03125 C 41.6979 %
439 05-06-2016 00:00:00 19.83507 C 41.0556 %
440 06-06-2016 00:00:00 19.82222 C 34.2014 %
441 07-06-2016 00:00:00 21.12847 C 28.7604 %
442 08-06-2016 00:00:00 20.43993 C 25.7188 %
443 09-06-2016 00:00:00 18.36771 C 23.1875 %
444 10-06-2016 00:00:00 18.63125 C 23.3715 %
445 11-06-2016 00:00:00 18.52465 C 22.4410 %
446 12-06-2016 00:00:00 17.77604 C 31.9792 %
447 13-06-2016 00:00:00 15.89306 C 47.6493 %
448 14-06-2016 00:00:00 16.98229 C 36.8542 %
449 15-06-2016 00:00:00 15.80937 C 33.7951 %
450 16-06-2016 00:00:00 14.31493 C 43.6597 %
Sensor: Nr:Datum:Temp:Feuchte:
Aussen-T/F 451 17-06-2016 00:00:00 14.91493 C 39.4757 %
452 18-06-2016 00:00:00 15.14896 C 40.0104 %
453 19-06-2016 00:00:00 16.51979 C 24.7535 %
454 20-06-2016 00:00:00 11.56903 C 28.5044 %
455 21-06-2016 00:00:00 18.65833 C 35.7667 %
456 22-06-2016 00:00:00 21.28833 C 37.0667 %
457 23-06-2016 00:00:00 24.72417 C 30.6083 %
458 24-06-2016 00:00:00 22.49417 C 33.0667 %
459 25-06-2016 00:00:00 16.69 C 56.2917 %
460 26-06-2016 00:00:00 15.84 C 41.2917 %
461 27-06-2016 00:00:00 16.38083 C 29.8417 %
462 28-06-2016 00:00:00 18.94333 C 36.5667 %
463 29-06-2016 00:00:00 19.7075 C 23.8250 %
464 30-06-2016 00:00:00 19.33333 C 24.7167 %
465 01-07-2016 00:00:00 20.47833 C 25.5250 %
466 02-07-2016 00:00:00 17.3875 C 25.1167 %
467 03-07-2016 00:00:00 15.7475 C 25.1667 %
468 04-07-2016 00:00:00 18.435 C 26.2833 %
469 05-07-2016 00:00:00 19.94667 C 23.7917 %
470 06-07-2016 00:00:00 17.5575 C 24.4167 %
471 07-07-2016 00:00:00 17.9175 C 26.9333 %
472 08-07-2016 00:00:00 19.34833 C 26.2250 %
473 09-07-2016 00:00:00 21.7525 C 22.1750 %
474 10-07-2016 00:00:00 22.6725 C 26.1833 %
475 11-07-2016 00:00:00 22.19583 C 23.5083 %
Sensor: Nr:Datum:Temp:Feuchte:
Aussen-T/F 476 12-07-2016 00:00:00 19.9525 C 24.3500 %
477 13-07-2016 00:00:00 15.24 C 37.0917 %
478 14-07-2016 00:00:00 15.65 C 34.8167 %
479 15-07-2016 00:00:00 16.855 C 23.0750 %
480 16-07-2016 00:00:00 17.50333 C 26.4917 %
481 17-07-2016 00:00:00 21.88917 C 26.5250 %
482 18-07-2016 00:00:00 22.8375 C 27.4083 %
483 19-07-2016 00:00:00 22.66917 C 25.7000 %
484 20-07-2016 00:00:00 24.1625 C 25.4250 %
485 21-07-2016 00:00:00 21.46167 C 33.7500 %
486 22-07-2016 00:00:00 21.44167 C 39.8500 %
487 23-07-2016 00:00:00 20.57167 C 37.5917 %
488 24-07-2016 00:00:00 22.89083 C 37.5500 %
489 25-07-2016 00:00:00 22.56417 C 25.9000 %
490 26-07-2016 00:00:00 20.86333 C 26.3667 %
491 27-07-2016 00:00:00 20.36667 C 26.3583 %
492 28-07-2016 00:00:00 21.32 C 23.3917 %
493 29-07-2016 00:00:00 20.3725 C 27.6167 %
494 30-07-2016 00:00:00 21.31667 C 25.1000 %
495 31-07-2016 00:00:00 19.395 C 24.8500 %
496 01-08-2016 00:00:00 17.6775 C 27.5167 %
497 02-08-2016 00:00:00 16.10333 C 37.3833 %
498 03-08-2016 00:00:00 18.46667 C 38.4083 %
499 04-08-2016 00:00:00 17.91417 C 46.6333 %
500 05-08-2016 00:00:00 16.71833 C 33.8500 %
Sensor: Nr:Datum:Temp:Feuchte:
Aussen-T/F 501 06-08-2016 00:00:00 18.14583 C 31.5833 %
502 07-08-2016 00:00:00 19.73 C 30.8917 %
503 08-08-2016 00:00:00 19.59083 C 23.6917 %
504 09-08-2016 00:00:00 17.05833 C 22.3000 %
505 10-08-2016 00:00:00 13.89917 C 26.0167 %
506 11-08-2016 00:00:00 12.59832 C 32.7059 %
507 12-08-2016 00:00:00 17.455 C 33.2250 %
508 13-08-2016 00:00:00 21.15833 C 31.2167 %
509 14-08-2016 00:00:00 19.95 C 30.1750 %
510 15-08-2016 00:00:00 19.69667 C 27.2250 %
511 16-08-2016 00:00:00 18.98167 C 26.7333 %
512 17-08-2016 00:00:00 18.93333 C 25.7417 %
513 18-08-2016 00:00:00 17.52 C 26.5500 %
514 19-08-2016 00:00:00 19.7325 C 28.2667 %
515 20-08-2016 00:00:00 19.64167 C 27.2333 %
516 21-08-2016 00:00:00 17.60333 C 26.8583 %
517 22-08-2016 00:00:00 17.8025 C 27.1750 %
518 23-08-2016 00:00:00 19.51 C 30.9333 %
519 24-08-2016 00:00:00 20.755 C 28.3583 %
520 25-08-2016 00:00:00 21.70333 C 28.8500 %
521 26-08-2016 00:00:00 22.62333 C 27.2417 %
522 27-08-2016 00:00:00 24.03 C 28.2583 %
523 28-08-2016 00:00:00 23.51417 C 25.0417 %
524 29-08-2016 00:00:00 19.5725 C 24.0250 %
525 30-08-2016 00:00:00 18.9625 C 29.8667 %
Sensor: Nr:Datum:Temp:Feuchte:
Aussen-T/F 526 31-08-2016 00:00:00 18.09833 C 24.6000 %
527 01-09-2016 00:00:00 19.885 C 25.6167 %
528 02-09-2016 00:00:00 18.95833 C 28.4750 %
529 03-09-2016 00:00:00 21.2725 C 24.6250 %
530 04-09-2016 00:00:00 18.2375 C 25.8750 %
531 05-09-2016 00:00:00 18.54917 C 25.8167 %
532 06-09-2016 00:00:00 16.93333 C 34.4917 %
533 07-09-2016 00:00:00 17.405 C 33.5750 %
534 08-09-2016 00:00:00 19.405 C 32.5083 %
535 09-09-2016 00:00:00 20.46333 C 21.3833 %
536 10-09-2016 00:00:00 19.22583 C 28.1083 %
537 11-09-2016 00:00:00 19.21667 C 26.7417 %
538 12-09-2016 00:00:00 19.5625 C 29.1333 %
539 13-09-2016 00:00:00 21.00833 C 29.4083 %
540 14-09-2016 00:00:00 20.675 C 27.7083 %
541 15-09-2016 00:00:00 19.8875 C 25.4083 %
542 16-09-2016 00:00:00 17.43917 C 39.9167 %
543 17-09-2016 00:00:00 15.91333 C 35.6083 %
544 18-09-2016 00:00:00 17.29167 C 42.7083 %
545 19-09-2016 00:00:00 15.64833 C 27.5250 %
546 20-09-2016 00:00:00 15.07833 C 30.5000 %
547 21-09-2016 00:00:00 13.86667 C 27.4167 %
548 22-09-2016 00:00:00 11.25083 C 34.2583 %
549 23-09-2016 00:00:00 13.09417 C 32.6000 %
550 24-09-2016 00:00:00 13.36667 C 40.9167 %
Sensor: Nr:Datum:Temp:Feuchte:
Aussen-T/F 551 25-09-2016 00:00:00 13.76917 C 38.9417 %
552 26-09-2016 00:00:00 14.44333 C 39.0333 %
553 27-09-2016 00:00:00 13.11333 C 52.0083 %
554 28-09-2016 00:00:00 15.245 C 38.0583 %
555 29-09-2016 00:00:00 18.65167 C 25.3417 %
556 30-09-2016 00:00:00 15.06167 C 29.6500 %
557 01-10-2016 00:00:00 13.58917 C 51.5333 %
558 02-10-2016 00:00:00 12.33333 C 43.2667 %
559 03-10-2016 00:00:00 12.23083 C 37.2000 %
560 04-10-2016 00:00:00 11.06833 C 47.8083 %
561 05-10-2016 00:00:00 8.02083 C 40.7917 %
562 06-10-2016 00:00:00 7.89917 C 32.8250 %
563 07-10-2016 00:00:00 10.76917 C 41.6833 %
564 08-10-2016 00:00:00 9.0625 C 53.2250 %
565 09-10-2016 00:00:00 8.21917 C 43.8417 %
566 10-10-2016 00:00:00 6.4375 C 44.8333 %
567 11-10-2016 00:00:00 7.66667 C 44.1250 %
568 12-10-2016 00:00:00 8.5225 C 34.6417 %
569 13-10-2016 00:00:00 7.0825 C 42.1917 %
570 14-10-2016 00:00:00 9.04333 C 34.3583 %
571 15-10-2016 00:00:00 10.78083 C 44.4417 %
572 16-10-2016 00:00:00 8.045 C 54.9250 %
573 17-10-2016 00:00:00 10.0225 C 63.0667 %
574 18-10-2016 00:00:00 10.67917 C 47.8917 %
575 19-10-2016 00:00:00 8.77083 C 33.0917 %
Sensor: Nr:Datum:Temp:Feuchte:
Aussen-T/F 576 20-10-2016 00:00:00 7.5975 C 52.8000 %
577 21-10-2016 00:00:00 7.21667 C 51.6083 %
578 22-10-2016 00:00:00 7.28167 C 49.5250 %
579 23-10-2016 00:00:00 6.66083 C 50.6500 %
580 24-10-2016 00:00:00 8.92167 C 63.3000 %
581 25-10-2016 00:00:00 11.005 C 51.3333 %
582 26-10-2016 00:00:00 8.985 C 42.9167 %
583 27-10-2016 00:00:00 8.2675 C 50.5250 %
584 28-10-2016 00:00:00 11.03667 C 37.9750 %
585 29-10-2016 00:00:00 11.12583 C 38.1417 %
586 30-10-2016 00:00:00 7.1712 C 54.7680 %
587 31-10-2016 00:00:00 6.11333 C 61.1167 %
588 01-11-2016 00:00:00 6.55083 C 60.1167 %
589 02-11-2016 00:00:00 6.48667 C 37.7417 %
590 03-11-2016 00:00:00 5.62917 C 36.2750 %
591 04-11-2016 00:00:00 4.18583 C 57.1667 %
592 05-11-2016 00:00:00 6.1875 C 59.2417 %
593 06-11-2016 00:00:00 4.91833 C 30.0917 %
594 07-11-2016 00:00:00 3.88333 C 40.0667 %
595 08-11-2016 00:00:00 2.37583 C 46.3750 %
596 09-11-2016 00:00:00 2.99583 C 53.2667 %
597 10-11-2016 00:00:00 4.55333 C 50.0000 %
598 11-11-2016 00:00:00 4.3825 C 59.9250 %
599 12-11-2016 00:00:00 1.26417 C 47.5333 %
600 13-11-2016 00:00:00 1.32333 C 37.8333 %
Sensor: Nr:Datum:Temp:Feuchte:
Aussen-T/F 601 14-11-2016 00:00:00 -1.67833 C 46.0917 %
602 15-11-2016 00:00:00 3.8725 C 39.5000 %
603 16-11-2016 00:00:00 9.1725 C 50.0750 %
604 17-11-2016 00:00:00 10.28167 C 32.9917 %
605 18-11-2016 00:00:00 8.59583 C 26.5250 %
606 19-11-2016 00:00:00 4.45417 C 39.7333 %
607 20-11-2016 00:00:00 8.31583 C 26.6583 %
608 21-11-2016 00:00:00 9.31917 C 45.5333 %
609 22-11-2016 00:00:00 9.50167 C 52.0583 %
610 23-11-2016 00:00:00 7.95417 C 67.0083 %
611 24-11-2016 00:00:00 7.5675 C 53.7583 %
612 25-11-2016 00:00:00 7.12917 C 22.5167 %
613 26-11-2016 00:00:00 6.3675 C 25.9417 %
614 27-11-2016 00:00:00 4.2 C 40.8667 %
615 28-11-2016 00:00:00 -1.0125 C 46.3583 %
616 29-11-2016 00:00:00 -4.42 C 35.8000 %
617 30-11-2016 00:00:00 -4.23833 C 36.9833 %
618 01-12-2016 00:00:00 2.62667 C 21.5583 %
619 02-12-2016 00:00:00 4.245 C 43.0250 %
620 03-12-2016 00:00:00 -0.60083 C 60.1250 %
621 04-12-2016 00:00:00 -3.84417 C 47.8167 %
622 05-12-2016 00:00:00 -5.46833 C 44.0333 %
623 06-12-2016 00:00:00 -4.63417 C 45.9417 %
624 07-12-2016 00:00:00 -1.23 C 55.7333 %
625 08-12-2016 00:00:00 -0.39583 C 54.6667 %
Sensor: Nr:Datum:Temp:Feuchte:
Aussen-T/F 626 09-12-2016 00:00:00 5.92583 C 21.0417 %
627 10-12-2016 00:00:00 3.77833 C 40.4750 %
628 11-12-2016 00:00:00 7.3925 C 25.0750 %
629 12-12-2016 00:00:00 5.93583 C 39.9833 %
630 13-12-2016 00:00:00 3.34583 C 65.2250 %
631 14-12-2016 00:00:00 5.935 C 48.1167 %
632 15-12-2016 00:00:00 6.37417 C 39.5917 %
633 16-12-2016 00:00:00 4.1375 C 22.6833 %
634 17-12-2016 00:00:00 3.35083 C 34.1750 %
635 18-12-2016 00:00:00 4.61167 C 41.6167 %
636 19-12-2016 00:00:00 3.69083 C 40.5917 %
637 20-12-2016 00:00:00 -0.2625 C 40.4500 %
638 21-12-2016 00:00:00 1.50833 C 37.0917 %
639 22-12-2016 00:00:00 3.135 C 42.5833 %
640 23-12-2016 00:00:00 3.4975 C 50.4417 %
641 24-12-2016 00:00:00 6.43833 C 23.7750 %
642 25-12-2016 00:00:00 7.98083 C 27.9917 %
643 26-12-2016 00:00:00 6.85083 C 28.5167 %
644 27-12-2016 00:00:00 3.36083 C 31.3417 %
645 28-12-2016 00:00:00 2.765 C 32.3750 %
646 29-12-2016 00:00:00 -2.31583 C 49.4333 %
647 30-12-2016 00:00:00 -2.7975 C 45.7583 %
648 31-12-2016 00:00:00 -4.97167 C 40.1167 %
649 01-01-2017 00:00:00 -2.645 C 37.8583 %
650 02-01-2017 00:00:00 -0.26417 C 43.1250 %
Sensor: Nr:Datum:Temp:Feuchte:
Aussen-T/F 651 03-01-2017 00:00:00 0.27717 C 59.5652 %
652 04-01-2017 00:00:00 2.4725 C 33.8417 %
653 05-01-2017 00:00:00 -1.62667 C 32.9833 %
654 06-01-2017 00:00:00 -8.04417 C 33.4250 %
655 07-01-2017 00:00:00 -5.00833 C 28.8833 %
656 08-01-2017 00:00:00 -0.27333 C 48.8667 %
657 09-01-2017 00:00:00 1.305 C 49.9167 %
658 10-01-2017 00:00:00 0.33833 C 54.5917 %
659 11-01-2017 00:00:00 2.7675 C 49.3083 %
660 12-01-2017 00:00:00 3.39 C 26.6583 %
661 13-01-2017 00:00:00 1.16833 C 32.4417 %
662 14-01-2017 00:00:00 1.5625 C 26.2083 %
663 15-01-2017 00:00:00 -0.2875 C 38.9417 %
664 16-01-2017 00:00:00 -2.95333 C 40.8917 %
665 17-01-2017 00:00:00 -5.14333 C 33.6917 %
666 18-01-2017 00:00:00 -7.12917 C 33.7333 %
667 19-01-2017 00:00:00 -8.02917 C 34.5500 %
668 20-01-2017 00:00:00 -8.47167 C 31.5833 %
669 21-01-2017 00:00:00 -7.91167 C 34.8083 %
670 22-01-2017 00:00:00 -9.46417 C 33.6583 %
671 23-01-2017 00:00:00 -6.45667 C 35.5667 %
672 24-01-2017 00:00:00 -1.59917 C 36.1417 %
673 25-01-2017 00:00:00 -2.06134 C 21.1008 %
674 26-01-2017 00:00:00 -3.27167 C 23.9917 %
675 27-01-2017 00:00:00 -4.87833 C 33.7583 %
Sensor: Nr:Datum:Temp:Feuchte:
Aussen-T/F 676 28-01-2017 00:00:00 -3.13417 C 35.4000 %
677 29-01-2017 00:00:00 1.74917 C 38.4417 %
678 30-01-2017 00:00:00 3.64583 C 50.8083 %
679 31-01-2017 00:00:00 2.45083 C 33.8167 %
680 01-02-2017 00:00:00 2.82417 C 29.1583 %
681 02-02-2017 00:00:00 3.84417 C 50.3250 %
682 03-02-2017 00:00:00 4.79833 C 53.5417 %
683 04-02-2017 00:00:00 4.85833 C 34.5500 %
684 05-02-2017 00:00:00 3.81333 C 37.2333 %
685 06-02-2017 00:00:00 2.905 C 39.3000 %
686 07-02-2017 00:00:00 3.68333 C 32.7000 %
687 08-02-2017 00:00:00 2.47583 C 26.7500 %
688 09-02-2017 00:00:00 -0.87083 C 28.4083 %
689 10-02-2017 00:00:00 0.07583 C 21.2250 %
690 11-02-2017 00:00:00 1.1675 C 39.9583 %
691 12-02-2017 00:00:00 1.77167 C 49.6917 %
692 13-02-2017 00:00:00 2.44917 C 24.7083 %
693 14-02-2017 00:00:00 0.02083 C 31.7250 %
694 15-02-2017 00:00:00 0.65333 C 38.4083 %
695 16-02-2017 00:00:00 2.98583 C 54.9000 %
696 17-02-2017 00:00:00 5.05167 C 53.0917 %
697 18-02-2017 00:00:00 5.56917 C 38.1000 %
698 19-02-2017 00:00:00 2.74417 C 39.9417 %
699 20-02-2017 00:00:00 7.83667 C 30.5667 %
700 21-02-2017 00:00:00 9.77417 C 33.2917 %
Sensor: Nr:Datum:Temp:Feuchte:
Aussen-T/F 701 22-02-2017 00:00:00 10.86167 C 22.7083 %
702 23-02-2017 00:00:00 8.95167 C 22.1250 %
703 24-02-2017 00:00:00 4.4525 C 26.0917 %
704 25-02-2017 00:00:00 3.06333 C 34.4667 %
705 26-02-2017 00:00:00 8.2025 C 22.5667 %
706 27-02-2017 00:00:00 10.56417 C 22.7417 %
707 28-02-2017 00:00:00 5.03667 C 25.5167 %
708 01-03-2017 00:00:00 6.07333 C 27.2250 %
709 02-03-2017 00:00:00 7.615 C 21.8417 %
710 03-03-2017 00:00:00 5.64417 C 27.7417 %
711 04-03-2017 00:00:00 10.41667 C 24.1750 %
712 05-03-2017 00:00:00 6.48667 C 29.1917 %
713 06-03-2017 00:00:00 5.80083 C 30.7583 %
714 07-03-2017 00:00:00 5.375 C 37.1500 %
715 08-03-2017 00:00:00 4.1425 C 57.5333 %
716 09-03-2017 00:00:00 10.71 C 40.6917 %
717 10-03-2017 00:00:00 7.1775 C 21.1917 %
718 11-03-2017 00:00:00 5.8775 C 29.0333 %
719 12-03-2017 00:00:00 5.82167 C 27.9833 %
720 13-03-2017 00:00:00 5.775 C 26.7667 %
721 14-03-2017 00:00:00 8.80333 C 26.7000 %
722 15-03-2017 00:00:00 10.8 C 22.7333 %
723 16-03-2017 00:00:00 7.71667 C 32.6833 %
724 17-03-2017 00:00:00 8.33917 C 22.4167 %
725 18-03-2017 00:00:00 8.97583 C 28.3167 %
Sensor: Nr:Datum:Temp:Feuchte:
Aussen-T/F 726 19-03-2017 00:00:00 12.0025 C 29.0167 %
727 20-03-2017 00:00:00 11.53917 C 20.0000 %
728 21-03-2017 00:00:00 8.86 C 25.1667 %
729 22-03-2017 00:00:00 5.1675 C 32.8583 %
730 23-03-2017 00:00:00 8.915 C 31.3000 %
731 24-03-2017 00:00:00 9.54583 C 23.0250 %
732 25-03-2017 00:00:00 9.54417 C 26.8417 %
733 26-03-2017 00:00:00 9.08696 C 20.0000 %
734 27-03-2017 00:00:00 8.34583 C 26.6083 %
735 28-03-2017 00:00:00 9.97417 C 22.6583 %
736 29-03-2017 00:00:00 12.77833 C 22.9417 %
737 30-03-2017 00:00:00 14.22417 C 22.9833 %
738 31-03-2017 00:00:00 13.35333 C 29.3000 %
739 01-04-2017 00:00:00 13.83417 C 20.9000 %
740 02-04-2017 00:00:00 11.94167 C 24.9167 %
741 03-04-2017 00:00:00 10.62 C 26.7750 %
742 04-04-2017 00:00:00 9.20333 C 28.3417 %
743 05-04-2017 00:00:00 8.82333 C 22.4667 %
744 06-04-2017 00:00:00 9.21083 C 20.3667 %
745 07-04-2017 00:00:00 10.40583 C 23.0667 %
746 08-04-2017 00:00:00 13.42167 C 20.0917 %
747 09-04-2017 00:00:00 12.59 C 28.2250 %
748 10-04-2017 00:00:00 10.98833 C 23.4333 %
749 11-04-2017 00:00:00 10.6675 C 20.0000 %
750 12-04-2017 00:00:00 11.54667 C 20.0083 %
Sensor: Nr:Datum:Temp:Feuchte:
Aussen-T/F 751 13-04-2017 00:00:00 12.27417 C 20.7667 %
752 14-04-2017 00:00:00 10.30417 C 22.3083 %
753 15-04-2017 00:00:00 8.6675 C 21.4500 %
754 16-04-2017 00:00:00 7.34417 C 23.7417 %
755 17-04-2017 00:00:00 6.805 C 28.0667 %
756 18-04-2017 00:00:00 5.69667 C 20.6333 %
757 19-04-2017 00:00:00 4.65667 C 28.3500 %
758 20-04-2017 00:00:00 6.6825 C 23.4667 %
759 21-04-2017 00:00:00 8.16917 C 22.1500 %
760 22-04-2017 00:00:00 9.88 C 20.0000 %
761 23-04-2017 00:00:00 7.65 C 20.5333 %
762 24-04-2017 00:00:00 6.5875 C 27.3250 %
763 25-04-2017 00:00:00 7.13193 C 20.0000 %
764 26-04-2017 00:00:00 7.62583 C 20.1500 %
765 27-04-2017 00:00:00 7.74917 C 23.9083 %
766 28-04-2017 00:00:00 6.26083 C 27.3167 %
767 29-04-2017 00:00:00 9.68667 C 30.5750 %
768 30-04-2017 00:00:00 11.3975 C 20.0000 %
769 01-05-2017 00:00:00 9.75083 C 27.4250 %
770 02-05-2017 00:00:00 8.5825 C 45.3500 %
771 03-05-2017 00:00:00 10.7175 C 39.5000 %
772 04-05-2017 00:00:00 11.94833 C 30.7750 %
773 05-05-2017 00:00:00 12.685 C 23.2667 %
774 06-05-2017 00:00:00 13.30333 C 33.1667 %
775 07-05-2017 00:00:00 12.8375 C 37.3083 %
Sensor: Nr:Datum:Temp:Feuchte:
Aussen-T/F 776 08-05-2017 00:00:00 9.69083 C 26.5500 %
777 09-05-2017 00:00:00 11.87667 C 24.9000 %
778 10-05-2017 00:00:00 11.33833 C 26.9167 %
779 11-05-2017 00:00:00 14.63833 C 25.1750 %
780 12-05-2017 00:00:00 16.395 C 30.7500 %
781 13-05-2017 00:00:00 18.05917 C 28.5167 %
782 14-05-2017 00:00:00 16.575 C 24.9333 %
783 15-05-2017 00:00:00 16.65 C 33.9583 %
784 16-05-2017 00:00:00 20.58167 C 20.0000 %
785 17-05-2017 00:00:00 21.33 C 20.8417 %
786 18-05-2017 00:00:00 18.02917 C 26.7583 %
787 19-05-2017 00:00:00 13.17667 C 46.5833 %
788 20-05-2017 00:00:00 12.655 C 37.4083 %
789 21-05-2017 00:00:00 14.64917 C 29.2750 %
790 22-05-2017 00:00:00 17.3675 C 27.8667 %
791 23-05-2017 00:00:00 19.65167 C 23.7417 %
792 24-05-2017 00:00:00 17.405 C 20.4000 %
793 25-05-2017 00:00:00 20.29 C 21.8917 %
794 26-05-2017 00:00:00 19.73833 C 24.5250 %
795 27-05-2017 00:00:00 22.6075 C 24.8667 %
796 28-05-2017 00:00:00 21.81583 C 24.8250 %
797 29-05-2017 00:00:00 24.57833 C 34.4500 %
798 30-05-2017 00:00:00 22.94833 C 21.0500 %
799 31-05-2017 00:00:00 20.15917 C 21.0333 %
800 01-06-2017 00:00:00 20.24833 C 23.6500 %
Sensor: Nr:Datum:Temp:Feuchte:
Aussen-T/F 801 02-06-2017 00:00:00 19.48083 C 25.5083 %
802 03-06-2017 00:00:00 19.46417 C 36.0000 %
803 04-06-2017 00:00:00 16.96583 C 37.9333 %
804 05-06-2017 00:00:00 17.975 C 34.7083 %
805 06-06-2017 00:00:00 16.04667 C 23.7250 %
806 07-06-2017 00:00:00 14.48333 C 20.5500 %
807 08-06-2017 00:00:00 19.25 C 21.2917 %
808 09-06-2017 00:00:00 18.0925 C 23.5250 %
809 10-06-2017 00:00:00 19.44 C 25.5417 %
810 11-06-2017 00:00:00 21.575 C 23.5750 %
811 12-06-2017 00:00:00 22.1675 C 20.1333 %
812 13-06-2017 00:00:00 19.81833 C 20.2667 %
813 14-06-2017 00:00:00 20.985 C 24.1917 %
814 15-06-2017 00:00:00 22.28333 C 21.9500 %
815 16-06-2017 00:00:00 20.18667 C 20.0000 %
816 17-06-2017 00:00:00 18.07917 C 20.4667 %
817 18-06-2017 00:00:00 23.58667 C 21.1333 %
818 19-06-2017 00:00:00 24.0825 C 23.3000 %
819 20-06-2017 00:00:00 25.57083 C 21.0333 %
820 21-06-2017 00:00:00 27.36167 C 20.0000 %
821 22-06-2017 00:00:00 24.04083 C 25.6833 %
822 23-06-2017 00:00:00 23.645 C 21.6583 %
823 24-06-2017 00:00:00 21.56417 C 21.1667 %
824 25-06-2017 00:00:00 20.95 C 20.0000 %
825 26-06-2017 00:00:00 23.18333 C 20.0000 %
Sensor: Nr:Datum:Temp:Feuchte:
Aussen-T/F 826 27-06-2017 00:00:00 19.20417 C 25.8000 %
827 28-06-2017 00:00:00 20.19167 C 37.8250 %
828 29-06-2017 00:00:00 18.5125 C 27.5083 %
829 30-06-2017 00:00:00 18.34833 C 22.5167 %
830 01-07-2017 00:00:00 16.22083 C 30.4250 %
831 02-07-2017 00:00:00 16.92 C 32.0250 %
832 03-07-2017 00:00:00 18.83333 C 27.3833 %
833 04-07-2017 00:00:00 21.9375 C 21.4833 %
834 05-07-2017 00:00:00 23.425 C 23.6833 %
835 06-07-2017 00:00:00 22.78417 C 24.7917 %
836 07-07-2017 00:00:00 24.54667 C 34.9667 %
837 08-07-2017 00:00:00 24.04167 C 22.1750 %
838 09-07-2017 00:00:00 23.87667 C 21.6750 %
839 10-07-2017 00:00:00 19.995 C 36.4250 %
840 11-07-2017 00:00:00 19.97417 C 25.9167 %
841 12-07-2017 00:00:00 17.8025 C 27.7583 %
842 13-07-2017 00:00:00 17.10583 C 27.2083 %
843 14-07-2017 00:00:00 16.94333 C 24.9917 %
844 15-07-2017 00:00:00 17.56583 C 24.2833 %
845 16-07-2017 00:00:00 19.83833 C 21.7500 %
846 17-07-2017 00:00:00 22.11583 C 25.7917 %
847 18-07-2017 00:00:00 23.18917 C 26.1500 %
848 19-07-2017 00:00:00 24.29083 C 22.7083 %
849 20-07-2017 00:00:00 22.56083 C 28.0583 %
850 21-07-2017 00:00:00 21.25917 C 21.7417 %
Sensor: Nr:Datum:Temp:Feuchte:
Aussen-T/F 851 22-07-2017 00:00:00 22.86083 C 31.7667 %
852 23-07-2017 00:00:00 19.16417 C 32.9917 %
853 24-07-2017 00:00:00 15.17 C 34.9083 %
854 25-07-2017 00:00:00 14.17917 C 53.8250 %
855 26-07-2017 00:00:00 17.7925 C 34.8833 %
856 27-07-2017 00:00:00 19.165 C 34.9917 %
857 28-07-2017 00:00:00 17.4625 C 30.7500 %
858 29-07-2017 00:00:00 20.93333 C 25.8500 %
859 30-07-2017 00:00:00 23.44917 C 24.9833 %
860 31-07-2017 00:00:00 21.3325 C 25.8250 %
861 01-08-2017 00:00:00 20.18333 C 47.5000 %
862 02-08-2017 00:00:00 22.01833 C 35.3417 %
863 03-08-2017 00:00:00 21.82833 C 28.1250 %
864 04-08-2017 00:00:00 21.0775 C 24.1917 %
865 05-08-2017 00:00:00 19.94833 C 23.8417 %
866 06-08-2017 00:00:00 18.32583 C 25.1000 %
867 07-08-2017 00:00:00 17.93417 C 26.7083 %
868 08-08-2017 00:00:00 17.9375 C 27.5583 %
869 09-08-2017 00:00:00 18.1525 C 23.5583 %
870 10-08-2017 00:00:00 15.35 C 47.5833 %
871 11-08-2017 00:00:00 14.705 C 51.5167 %
872 12-08-2017 00:00:00 15.305 C 40.2750 %
873 13-08-2017 00:00:00 18.60917 C 28.7333 %
874 14-08-2017 00:00:00 18.56167 C 33.7917 %
875 15-08-2017 00:00:00 18.83833 C 38.5333 %
Sensor: Nr:Datum:Temp:Feuchte:
Aussen-T/F 876 16-08-2017 00:00:00 19.97167 C 37.3917 %
877 17-08-2017 00:00:00 19.57167 C 33.3667 %
878 18-08-2017 00:00:00 18.17417 C 43.5167 %
879 19-08-2017 00:00:00 14.47417 C 43.3667 %
880 20-08-2017 00:00:00 14.925 C 30.8417 %
881 21-08-2017 00:00:00 16.3575 C 28.8917 %
882 22-08-2017 00:00:00 16.08833 C 31.8500 %
883 23-08-2017 00:00:00 17.92583 C 30.8917 %
884 24-08-2017 00:00:00 19.9075 C 26.1917 %
885 25-08-2017 00:00:00 18.30833 C 37.3750 %
886 26-08-2017 00:00:00 20.88833 C 44.3167 %
887 27-08-2017 00:00:00 19.63083 C 34.5250 %
888 28-08-2017 00:00:00 19.4775 C 30.1667 %
889 29-08-2017 00:00:00 20.03667 C 34.9500 %
890 30-08-2017 00:00:00 20.91167 C 31.6750 %
891 31-08-2017 00:00:00 17.32857 C 27.5210 %
892 01-09-2017 00:00:00 14.1 C 34.5083 %
893 02-09-2017 00:00:00 14.51417 C 34.0667 %
894 03-09-2017 00:00:00 12.90417 C 31.6750 %
895 04-09-2017 00:00:00 13.94167 C 34.8750 %
896 05-09-2017 00:00:00 17.87 C 36.6833 %
897 06-09-2017 00:00:00 17.47083 C 25.8083 %
898 07-09-2017 00:00:00 15.90083 C 21.1083 %
899 08-09-2017 00:00:00 15.99583 C 20.6583 %
900 09-09-2017 00:00:00 14.54 C 39.9417 %
Sensor: Nr:Datum:Temp:Feuchte:
Aussen-T/F 901 10-09-2017 00:00:00 13.27583 C 43.1833 %
902 11-09-2017 00:00:00 14.27083 C 26.4083 %
903 12-09-2017 00:00:00 14.32583 C 26.1417 %
904 13-09-2017 00:00:00 13.965 C 38.8333 %
905 14-09-2017 00:00:00 11.75417 C 39.2750 %
906 15-09-2017 00:00:00 12.5175 C 33.8750 %
907 16-09-2017 00:00:00 10.11333 C 40.9500 %
908 17-09-2017 00:00:00 9.67 C 51.4833 %
909 18-09-2017 00:00:00 10.46 C 46.2417 %
910 19-09-2017 00:00:00 11.76 C 32.8500 %
911 20-09-2017 00:00:00 11.29583 C 42.5167 %
912 21-09-2017 00:00:00 10.49 C 44.7417 %
913 22-09-2017 00:00:00 11.12417 C 43.8917 %
914 23-09-2017 00:00:00 13.495 C 40.1917 %
915 24-09-2017 00:00:00 12.475 C 44.1417 %
916 25-09-2017 00:00:00 12.56583 C 44.0250 %
917 26-09-2017 00:00:00 13.27167 C 41.8333 %
918 27-09-2017 00:00:00 13.05083 C 43.9333 %
919 28-09-2017 00:00:00 14.64667 C 44.6000 %
920 29-09-2017 00:00:00 17.38667 C 38.5083 %
921 30-09-2017 00:00:00 14.205 C 48.5667 %
922 01-10-2017 00:00:00 10.23667 C 56.3000 %
923 02-10-2017 00:00:00 13.38833 C 43.6167 %
924 03-10-2017 00:00:00 12.20667 C 42.3667 %
925 04-10-2017 00:00:00 11.05583 C 31.0333 %
Sensor: Nr:Datum:Temp:Feuchte:
Aussen-T/F 926 05-10-2017 00:00:00 12.92833 C 21.9667 %
927 06-10-2017 00:00:00 9.4 C 33.6250 %
928 07-10-2017 00:00:00 9.55083 C 31.6583 %
929 08-10-2017 00:00:00 11.81833 C 41.5417 %
930 09-10-2017 00:00:00 10.9925 C 47.1583 %
931 10-10-2017 00:00:00 12.88917 C 31.8167 %
932 11-10-2017 00:00:00 13.19167 C 31.2083 %
933 12-10-2017 00:00:00 13.13667 C 36.6500 %
934 13-10-2017 00:00:00 13.9275 C 38.7583 %
935 14-10-2017 00:00:00 12.47167 C 50.0167 %
936 15-10-2017 00:00:00 11.94833 C 54.6750 %
937 16-10-2017 00:00:00 12.63333 C 51.4833 %
938 17-10-2017 00:00:00 12.20667 C 52.4250 %
939 18-10-2017 00:00:00 11.85333 C 50.4167 %
940 19-10-2017 00:00:00 11.0025 C 50.7750 %
941 20-10-2017 00:00:00 11.63697 C 37.7479 %
942 21-10-2017 00:00:00 11.28083 C 38.1917 %
943 22-10-2017 00:00:00 10.28417 C 24.4167 %
944 23-10-2017 00:00:00 10.42417 C 23.7667 %
945 24-10-2017 00:00:00 12.76333 C 33.7917 %
946 25-10-2017 00:00:00 15.1425 C 27.6500 %
947 26-10-2017 00:00:00 13.17917 C 29.2667 %
948 27-10-2017 00:00:00 10.80833 C 33.6167 %
949 28-10-2017 00:00:00 10.09833 C 24.5250 %
950 29-10-2017 00:00:00 10.1184 C 26.6160 %
Sensor: Nr:Datum:Temp:Feuchte:
Aussen-T/F 951 30-10-2017 00:00:00 6.43917 C 30.2667 %
952 31-10-2017 00:00:00 7.06917 C 27.1250 %
953 01-11-2017 00:00:00 7.99917 C 24.8000 %
954 02-11-2017 00:00:00 7.76917 C 32.9583 %
955 03-11-2017 00:00:00 6.735 C 45.5833 %
956 04-11-2017 00:00:00 7.89167 C 53.2917 %
957 05-11-2017 00:00:00 8.26167 C 46.6500 %
958 06-11-2017 00:00:00 5.14 C 33.5917 %
959 07-11-2017 00:00:00 4.24333 C 45.0833 %
960 08-11-2017 00:00:00 6.0575 C 55.0333 %
961 09-11-2017 00:00:00 7.38917 C 46.1583 %
962 10-11-2017 00:00:00 6.65917 C 26.9667 %
963 11-11-2017 00:00:00 5.63583 C 40.7000 %
964 12-11-2017 00:00:00 3.91583 C 58.4500 %
965 13-11-2017 00:00:00 4.73833 C 41.6917 %
966 14-11-2017 00:00:00 3.73417 C 47.8500 %
967 15-11-2017 00:00:00 6.5375 C 27.1083 %
968 16-11-2017 00:00:00 4.27833 C 39.8500 %
969 17-11-2017 00:00:00 5.2975 C 48.8250 %
970 18-11-2017 00:00:00 2.87083 C 39.8833 %
971 19-11-2017 00:00:00 4.78583 C 32.4167 %
972 20-11-2017 00:00:00 4.46917 C 31.8667 %
973 21-11-2017 00:00:00 8.65667 C 28.5833 %
974 22-11-2017 00:00:00 7.285 C 30.5250 %
975 23-11-2017 00:00:00 8.5175 C 46.0583 %
Sensor: Nr:Datum:Temp:Feuchte:
Aussen-T/F 976 24-11-2017 00:00:00 9.68 C 41.3083 %
977 25-11-2017 00:00:00 4.5475 C 53.6583 %
978 26-11-2017 00:00:00 2.92583 C 28.8917 %
979 27-11-2017 00:00:00 4.8625 C 21.2917 %
980 28-11-2017 00:00:00 3.22667 C 51.1000 %
981 29-11-2017 00:00:00 2.265 C 55.6667 %
982 30-11-2017 00:00:00 1.60417 C 52.1417 %
983 01-12-2017 00:00:00 -0.2175 C 65.1167 %
984 02-12-2017 00:00:00 0.44833 C 41.3833 %
985 03-12-2017 00:00:00 -0.00667 C 31.2250 %
986 04-12-2017 00:00:00 2.29 C 46.3167 %
987 05-12-2017 00:00:00 3.6025 C 38.3333 %
988 06-12-2017 00:00:00 5.19833 C 24.6583 %
989 07-12-2017 00:00:00 4.21333 C 22.9083 %
990 08-12-2017 00:00:00 2.61083 C 31.9250 %
991 09-12-2017 00:00:00 0.24417 C 20.0083 %
992 10-12-2017 00:00:00 1.39167 C 28.5667 %
993 11-12-2017 00:00:00 4.91083 C 48.9333 %
994 12-12-2017 00:00:00 2.8125 C 21.0417 %
995 13-12-2017 00:00:00 2.70083 C 32.0833 %
996 14-12-2017 00:00:00 3.58417 C 33.7083 %
997 15-12-2017 00:00:00 2.05167 C 59.1500 %
998 16-12-2017 00:00:00 2.14667 C 54.8167 %
999 17-12-2017 00:00:00 2.22583 C 28.7000 %
1000 18-12-2017 00:00:00 0.71333 C 56.1333 %
Sensor: Nr:Datum:Temp:Feuchte:
Aussen-T/F 1001 19-12-2017 00:00:00 2.67 C 67.9667 %
1002 20-12-2017 00:00:00 4.95083 C 67.4833 %
1003 21-12-2017 00:00:00 6.82667 C 61.0083 %
1004 22-12-2017 00:00:00 8.10417 C 67.4917 %
1005 23-12-2017 00:00:00 8.1975 C 39.8417 %
1006 24-12-2017 00:00:00 8.37583 C 20.1083 %
1007 25-12-2017 00:00:00 6.34167 C 20.0583 %
1008 26-12-2017 00:00:00 3.55917 C 38.0083 %
1009 27-12-2017 00:00:00 4.2 C 40.9333 %
1010 28-12-2017 00:00:00 2.28083 C 30.6667 %
1011 29-12-2017 00:00:00 1.6 C 29.8333 %
1012 30-12-2017 00:00:00 6.22583 C 44.3250 %
1013 31-12-2017 00:00:00 12.09667 C 23.3583 %
1014 01-01-2018 00:00:00 7.035 C 28.9500 %
1015 02-01-2018 00:00:00 5.395 C 28.4083 %
1016 03-01-2018 00:00:00 7.40667 C 26.8250 %
1017 04-01-2018 00:00:00 7.375 C 35.2167 %
1018 05-01-2018 00:00:00 7.45583 C 34.5250 %
1019 06-01-2018 00:00:00 5.4075 C 71.1333 %
1020 07-01-2018 00:00:00 4.365 C 39.4167 %
1021 08-01-2018 00:00:00 3.86417 C 21.1167 %
1022 09-01-2018 00:00:00 4.01083 C 35.8167 %
1023 10-01-2018 00:00:00 5.88833 C 39.9000 %
1024 11-01-2018 00:00:00 6.29167 C 52.8750 %
1025 12-01-2018 00:00:00 5.70083 C 50.0167 %
Sensor: Nr:Datum:Temp:Feuchte:
Aussen-T/F 1026 13-01-2018 00:00:00 4.70917 C 38.6750 %
1027 14-01-2018 00:00:00 2.06917 C 25.5583 %
1028 15-01-2018 00:00:00 2.675 C 35.7000 %
1029 16-01-2018 00:00:00 5.00167 C 27.7500 %
1030 17-01-2018 00:00:00 2.35 C 27.4500 %
1031 18-01-2018 00:00:00 4.8775 C 25.4667 %
1032 19-01-2018 00:00:00 2.92583 C 27.3750 %
1033 20-01-2018 00:00:00 2.10833 C 38.1000 %
1034 21-01-2018 00:00:00 1.73917 C 43.8167 %
1035 22-01-2018 00:00:00 4.38583 C 45.1083 %
1036 23-01-2018 00:00:00 6.65593 C 27.4831 %
1037 24-01-2018 00:00:00 10.79316 C 24.5470 %
1038 25-01-2018 00:00:00 9.13917 C 43.9750 %
1039 26-01-2018 00:00:00 5.89167 C 56.7333 %
1040 27-01-2018 00:00:00 4.26583 C 45.6667 %
1041 28-01-2018 00:00:00 6.63917 C 22.5333 %
1042 29-01-2018 00:00:00 9.275 C 22.7417 %
1043 30-01-2018 00:00:00 4.25333 C 35.1167 %
1044 31-01-2018 00:00:00 6.62917 C 32.6500 %
1045 01-02-2018 00:00:00 2.0675 C 36.1083 %
1046 02-02-2018 00:00:00 2.36417 C 31.6667 %
1047 03-02-2018 00:00:00 2.65042 C 30.2269 %
1048 04-02-2018 00:00:00 0.38667 C 29.6333 %
1049 05-02-2018 00:00:00 -0.98583 C 20.2500 %
1050 06-02-2018 00:00:00 -1.55167 C 25.9583 %
Sensor: Nr:Datum:Temp:Feuchte:
Aussen-T/F 1051 07-02-2018 00:00:00 -0.79667 C 32.3833 %
1052 08-02-2018 00:00:00 -3.34333 C 28.9667 %
1053 09-02-2018 00:00:00 -2.8975 C 36.1833 %
1054 10-02-2018 00:00:00 1.41833 C 24.0167 %
1055 11-02-2018 00:00:00 2.22 C 26.3667 %
1056 12-02-2018 00:00:00 1.25083 C 34.8917 %
1057 13-02-2018 00:00:00 -1.44 C 29.8417 %
1058 14-02-2018 00:00:00 -3.14333 C 28.8667 %
1059 15-02-2018 00:00:00 0.80417 C 40.6583 %
1060 16-02-2018 00:00:00 0.98667 C 60.1667 %
1061 17-02-2018 00:00:00 -0.55 C 48.8833 %
1062 18-02-2018 00:00:00 -2.16917 C 38.4250 %
1063 19-02-2018 00:00:00 0.37083 C 35.6500 %
1064 20-02-2018 00:00:00 -0.54083 C 33.3417 %
1065 21-02-2018 00:00:00 -0.04917 C 22.5333 %
1066 22-02-2018 00:00:00 -1.265 C 21.2167 %
1067 23-02-2018 00:00:00 -2.0175 C 20.0000 %
1068 24-02-2018 00:00:00 -2.72667 C 20.0000 %
1069 25-02-2018 00:00:00 -3.74417 C 20.0000 %
1070 26-02-2018 00:00:00 -5.06167 C 20.0000 %
1071 27-02-2018 00:00:00 -7.2225 C 20.3500 %
1072 28-02-2018 00:00:00 -7.98333 C 20.0000 %
1073 01-03-2018 00:00:00 -3.74917 C 20.0000 %
1074 02-03-2018 00:00:00 -2.59083 C 20.0917 %
1075 03-03-2018 00:00:00 -0.72083 C 28.3583 %
Sensor: Nr:Datum:Temp:Feuchte:
Aussen-T/F 1076 04-03-2018 00:00:00 3.2 C 37.8833 %
1077 05-03-2018 00:00:00 5.22833 C 42.3583 %
1078 06-03-2018 00:00:00 4.25 C 40.7750 %
1079 07-03-2018 00:00:00 4.89167 C 43.0333 %
1080 08-03-2018 00:00:00 5.66417 C 23.5833 %
1081 09-03-2018 00:00:00 4.83667 C 41.9500 %
1082 10-03-2018 00:00:00 9.51333 C 45.7833 %
1083 11-03-2018 00:00:00 9.60833 C 40.1667 %
1084 12-03-2018 00:00:00 9.04083 C 37.0250 %
1085 13-03-2018 00:00:00 6.84083 C 24.1083 %
1086 14-03-2018 00:00:00 6.32917 C 26.1667 %
1087 15-03-2018 00:00:00 5.73833 C 33.0750 %
1088 16-03-2018 00:00:00 7.00917 C 47.9667 %
1089 17-03-2018 00:00:00 -0.93917 C 20.2583 %
1090 18-03-2018 00:00:00 -2.1675 C 20.0000 %
1091 19-03-2018 00:00:00 -0.63417 C 20.0000 %
1092 20-03-2018 00:00:00 -0.4175 C 20.0167 %
1093 21-03-2018 00:00:00 0.5225 C 24.8500 %
1094 22-03-2018 00:00:00 2.45417 C 30.2000 %
1095 23-03-2018 00:00:00 5.83583 C 38.3250 %
1096 24-03-2018 00:00:00 4.74917 C 35.3167 %
1097 25-03-2018 00:00:00 4.60522 C 30.4870 %
1098 26-03-2018 00:00:00 7.34167 C 20.0250 %
1099 27-03-2018 00:00:00 5.52083 C 29.7083 %
1100 28-03-2018 00:00:00 8.02667 C 36.4167 %
Sensor: Nr:Datum:Temp:Feuchte:
Aussen-T/F 1101 29-03-2018 00:00:00 6.93667 C 20.9833 %
1102 30-03-2018 00:00:00 6.38833 C 34.0000 %
1103 31-03-2018 00:00:00 7.84583 C 39.4917 %
1104 01-04-2018 00:00:00 7.26083 C 20.4250 %
1105 02-04-2018 00:00:00 8.7875 C 27.6500 %
1106 03-04-2018 00:00:00 13.26583 C 20.0000 %
1107 04-04-2018 00:00:00 10.6625 C 24.3500 %
1108 05-04-2018 00:00:00 7.485 C 30.3417 %
1109 06-04-2018 00:00:00 6.66833 C 35.5583 %
1110 07-04-2018 00:00:00 12.16083 C 22.7583 %
1111 08-04-2018 00:00:00 14.75333 C 22.3333 %
1112 09-04-2018 00:00:00 13.84583 C 24.6917 %
1113 10-04-2018 00:00:00 12.68 C 28.0833 %
1114 11-04-2018 00:00:00 11.99333 C 34.9833 %
1115 12-04-2018 00:00:00 13.34833 C 37.0500 %
1116 13-04-2018 00:00:00 9.9075 C 32.0833 %
1117 14-04-2018 00:00:00 12.74 C 36.2167 %
1118 15-04-2018 00:00:00 14.41667 C 27.2750 %
1119 16-04-2018 00:00:00 13.76083 C 31.1917 %
1120 17-04-2018 00:00:00 14.02167 C 29.2083 %
1121 18-04-2018 00:00:00 15.74583 C 26.0333 %
1122 19-04-2018 00:00:00 17.22083 C 26.6000 %
1123 20-04-2018 00:00:00 17.00083 C 24.1667 %
1124 21-04-2018 00:00:00 18.43667 C 23.5750 %
1125 22-04-2018 00:00:00 18.55417 C 25.1083 %
Sensor: Nr:Datum:Temp:Feuchte:
Aussen-T/F 1126 23-04-2018 00:00:00 18.66417 C 20.2833 %
1127 24-04-2018 00:00:00 14.27333 C 24.2167 %
1128 25-04-2018 00:00:00 13.4125 C 21.6750 %
1129 26-04-2018 00:00:00 11.21 C 20.0000 %
1130 27-04-2018 00:00:00 12.55083 C 22.6167 %
1131 28-04-2018 00:00:00 12.6075 C 23.1000 %
1132 29-04-2018 00:00:00 14.48167 C 29.9583 %
1133 30-04-2018 00:00:00 13.82167 C 24.6083 %
1134 01-05-2018 00:00:00 9.82667 C 20.0500 %
1135 02-05-2018 00:00:00 9.81083 C 27.0250 %
1136 03-05-2018 00:00:00 12.9575 C 23.3250 %
1137 04-05-2018 00:00:00 13.49833 C 21.9583 %
1138 05-05-2018 00:00:00 15.83583 C 20.0667 %
1139 06-05-2018 00:00:00 17.25 C 20.1167 %
1140 07-05-2018 00:00:00 17.88167 C 21.1000 %
1141 08-05-2018 00:00:00 18.43583 C 22.6667 %
1142 09-05-2018 00:00:00 17.19333 C 22.2583 %
1143 10-05-2018 00:00:00 14.13917 C 25.9500 %
1144 11-05-2018 00:00:00 14.92083 C 27.9167 %
1145 12-05-2018 00:00:00 17.0825 C 28.2750 %
1146 13-05-2018 00:00:00 14.3425 C 37.0500 %
1147 14-05-2018 00:00:00 17.16333 C 35.6750 %
1148 15-05-2018 00:00:00 16.0375 C 27.9417 %
1149 16-05-2018 00:00:00 15.7475 C 27.4000 %
1150 17-05-2018 00:00:00 14.55667 C 23.4833 %
Sensor: Nr:Datum:Temp:Feuchte:
Aussen-T/F 1151 18-05-2018 00:00:00 13.17083 C 21.1083 %
1152 19-05-2018 00:00:00 13.845 C 23.5250 %
1153 20-05-2018 00:00:00 14.06917 C 31.8333 %
1154 21-05-2018 00:00:00 17.55333 C 27.4333 %
1155 22-05-2018 00:00:00 17.09833 C 29.9833 %
1156 23-05-2018 00:00:00 17.23083 C 36.1833 %
1157 24-05-2018 00:00:00 17.22083 C 27.4917 %
1158 25-05-2018 00:00:00 20.19417 C 26.8083 %
1159 26-05-2018 00:00:00 21.1325 C 26.3667 %
1160 27-05-2018 00:00:00 20.4375 C 27.6917 %
1161 28-05-2018 00:00:00 21.70917 C 33.5833 %
1162 29-05-2018 00:00:00 20.88333 C 27.1500 %
1163 30-05-2018 00:00:00 21.6725 C 28.2333 %
1164 31-05-2018 00:00:00 23.08167 C 20.2750 %
1165 01-06-2018 00:00:00 19.3725 C 29.3667 %
1166 02-06-2018 00:00:00 19.64917 C 23.6750 %
1167 03-06-2018 00:00:00 20.04167 C 24.8250 %
1168 04-06-2018 00:00:00 21.5125 C 24.5417 %
1169 05-06-2018 00:00:00 21.2475 C 22.2500 %
1170 06-06-2018 00:00:00 21.6775 C 24.0000 %
1171 07-06-2018 00:00:00 21.58667 C 22.6167 %
1172 08-06-2018 00:00:00 21.40167 C 24.3000 %
1173 09-06-2018 00:00:00 22.3959 C 23.5984 %
1174 10-06-2018 00:00:00 21.64333 C 33.3000 %
1175 11-06-2018 00:00:00 19.07083 C 41.7083 %
Sensor: Nr:Datum:Temp:Feuchte:
Aussen-T/F 1176 12-06-2018 00:00:00 16.44167 C 37.5250 %
1177 13-06-2018 00:00:00 15.1 C 22.7000 %
1178 14-06-2018 00:00:00 15.48083 C 30.2917 %
1179 15-06-2018 00:00:00 17.9025 C 35.7250 %
1180 16-06-2018 00:00:00 20.2775 C 26.1583 %
1181 17-06-2018 00:00:00 18.42583 C 22.8083 %
1182 18-06-2018 00:00:00 18.235 C 21.9750 %
1183 19-06-2018 00:00:00 19.13333 C 25.5583 %
1184 20-06-2018 00:00:00 23.4825 C 24.4667 %
1185 21-06-2018 00:00:00 18.58 C 22.6500 %
1186 22-06-2018 00:00:00 14.12167 C 20.0000 %
1187 23-06-2018 00:00:00 14.19167 C 21.2750 %
1188 24-06-2018 00:00:00 16.46667 C 22.7833 %
1189 25-06-2018 00:00:00 17.57167 C 21.5583 %
1190 26-06-2018 00:00:00 18.34083 C 24.8583 %
1191 27-06-2018 00:00:00 19.81083 C 24.3333 %
1192 28-06-2018 00:00:00 21.28417 C 20.6000 %
1193 29-06-2018 00:00:00 24.82417 C 20.0000 %
1194 30-06-2018 00:00:00 22.8375 C 20.4583 %
1195 01-07-2018 00:00:00 21.52333 C 20.0000 %
1196 02-07-2018 00:00:00 21.06583 C 20.0000 %
1197 03-07-2018 00:00:00 21.34917 C 20.0000 %
1198 04-07-2018 00:00:00 19.00917 C 27.2667 %
1199 05-07-2018 00:00:00 19.70667 C 33.6083 %
1200 06-07-2018 00:00:00 20.57333 C 25.0417 %
Sensor: Nr:Datum:Temp:Feuchte:
Aussen-T/F 1201 07-07-2018 00:00:00 21.3521 C 23.5630 %
1202 08-07-2018 00:00:00 20.38417 C 21.0583 %
1203 09-07-2018 00:00:00 20.71083 C 21.4167 %
1204 10-07-2018 00:00:00 17.5975 C 22.4000 %
1205 11-07-2018 00:00:00 16.2875 C 33.6667 %
1206 12-07-2018 00:00:00 19.71583 C 32.5000 %
1207 13-07-2018 00:00:00 20.13 C 24.9667 %
1208 14-07-2018 00:00:00 22.01333 C 24.7500 %
1209 15-07-2018 00:00:00 22.10833 C 22.6333 %
1210 16-07-2018 00:00:00 23.10667 C 21.7167 %
1211 17-07-2018 00:00:00 21.59583 C 20.3583 %
1212 18-07-2018 00:00:00 20.9475 C 22.7500 %
1213 19-07-2018 00:00:00 21.47667 C 21.5833 %
1214 20-07-2018 00:00:00 21.81583 C 20.1917 %
1215 21-07-2018 00:00:00 20.94083 C 22.6750 %
1216 22-07-2018 00:00:00 22.115 C 25.1500 %
1217 23-07-2018 00:00:00 22.98917 C 21.2167 %
1218 24-07-2018 00:00:00 24.11417 C 22.5833 %
1219 25-07-2018 00:00:00 25.90417 C 20.1583 %
1220 26-07-2018 00:00:00 27.54333 C 20.0167 %
1221 27-07-2018 00:00:00 26.46167 C 20.0000 %
1222 28-07-2018 00:00:00 22.24 C 22.3250 %
1223 29-07-2018 00:00:00 23.87667 C 23.3500 %
1224 30-07-2018 00:00:00 24.435 C 20.3250 %
1225 31-07-2018 00:00:00 25.8025 C 21.1500 %
Sensor: Nr:Datum:Temp:Feuchte:
Aussen-T/F 1226 01-08-2018 00:00:00 20.68583 C 32.5500 %
1227 02-08-2018 00:00:00 24.12 C 31.7333 %
1228 03-08-2018 00:00:00 26.79583 C 20.9083 %
1229 04-08-2018 00:00:00 26.84 C 20.0667 %
1230 05-08-2018 00:00:00 25.5025 C 20.1667 %
1231 06-08-2018 00:00:00 24.4075 C 20.1500 %
1232 07-08-2018 00:00:00 26.99333 C 20.0000 %
1233 08-08-2018 00:00:00 25.83667 C 20.0000 %
1234 09-08-2018 00:00:00 20.8725 C 26.6583 %
1235 10-08-2018 00:00:00 18.73667 C 20.8917 %
1236 11-08-2018 00:00:00 18.76667 C 20.0000 %
1237 12-08-2018 00:00:00 18.38667 C 21.9833 %
1238 13-08-2018 00:00:00 17.82083 C 28.9750 %
1239 14-08-2018 00:00:00 18.755 C 28.1167 %
1240 15-08-2018 00:00:00 19.59583 C 29.0833 %
1241 16-08-2018 00:00:00 20.84333 C 28.0000 %
1242 17-08-2018 00:00:00 20.11583 C 22.3500 %
1243 18-08-2018 00:00:00 19.2675 C 26.3417 %
1244 19-08-2018 00:00:00 20.68667 C 23.5250 %
1245 20-08-2018 00:00:00 21.20333 C 20.6833 %
1246 21-08-2018 00:00:00 22.2425 C 24.3417 %
1247 22-08-2018 00:00:00 23.51417 C 22.7667 %
1248 23-08-2018 00:00:00 23.22 C 23.0167 %
1249 24-08-2018 00:00:00 19.31833 C 20.6583 %
1250 25-08-2018 00:00:00 14.65417 C 21.6083 %
Sensor: Nr:Datum:Temp:Feuchte:
Aussen-T/F 1251 26-08-2018 00:00:00 13.95083 C 28.0000 %
1252 27-08-2018 00:00:00 18.20917 C 20.3667 %
1253 28-08-2018 00:00:00 18.39833 C 20.7167 %
1254 29-08-2018 00:00:00 17.005 C 30.8917 %
1255 30-08-2018 00:00:00 17.4125 C 25.9167 %
1256 31-08-2018 00:00:00 15.33167 C 23.6000 %
1257 01-09-2018 00:00:00 14.445 C 26.6667 %
1258 02-09-2018 00:00:00 14.24833 C 24.8000 %
1259 03-09-2018 00:00:00 18.13417 C 22.9917 %
1260 04-09-2018 00:00:00 20.0425 C 27.0167 %
1261 05-09-2018 00:00:00 20.69 C 25.3083 %
1262 06-09-2018 00:00:00 18.0925 C 32.7583 %
1263 07-09-2018 00:00:00 15.6675 C 33.8500 %
1264 08-09-2018 00:00:00 13.5425 C 30.5333 %
1265 09-09-2018 00:00:00 16.80833 C 23.2500 %
1266 10-09-2018 00:00:00 17.5025 C 23.9000 %
1267 11-09-2018 00:00:00 18.86667 C 26.0333 %
1268 12-09-2018 00:00:00 19.03167 C 24.0083 %
1269 13-09-2018 00:00:00 16.5775 C 25.7417 %
1270 14-09-2018 00:00:00 17.1375 C 25.2000 %
1271 15-09-2018 00:00:00 15.17 C 21.0833 %
1272 16-09-2018 00:00:00 14.51 C 27.7833 %
1273 17-09-2018 00:00:00 16.24583 C 25.3583 %
1274 18-09-2018 00:00:00 18.72833 C 26.0000 %
1275 19-09-2018 00:00:00 20.545 C 25.3250 %
Sensor: Nr:Datum:Temp:Feuchte:
Aussen-T/F 1276 20-09-2018 00:00:00 19.08833 C 26.8417 %
1277 21-09-2018 00:00:00 15.91167 C 24.5750 %
1278 22-09-2018 00:00:00 12.6825 C 25.6333 %
1279 23-09-2018 00:00:00 12.18083 C 47.2250 %
1280 24-09-2018 00:00:00 9.66 C 36.3583 %
1281 25-09-2018 00:00:00 8.06417 C 42.7083 %
1282 26-09-2018 00:00:00 8.5625 C 35.2583 %
1283 27-09-2018 00:00:00 10.55833 C 35.5667 %
1284 28-09-2018 00:00:00 9.67833 C 43.7167 %
1285 29-09-2018 00:00:00 7.75083 C 41.1250 %
1286 30-09-2018 00:00:00 7.2475 C 35.9250 %
1287 01-10-2018 00:00:00 9.41583 C 29.7833 %
1288 02-10-2018 00:00:00 8.87917 C 33.7167 %
1289 03-10-2018 00:00:00 11.93917 C 34.0750 %
1290 04-10-2018 00:00:00 9.37167 C 38.3000 %
1291 05-10-2018 00:00:00 10.05917 C 42.4917 %
1292 06-10-2018 00:00:00 12.08583 C 44.5417 %
1293 07-10-2018 00:00:00 12.625 C 37.2750 %
1294 08-10-2018 00:00:00 9.9775 C 39.4833 %
1295 09-10-2018 00:00:00 11.14583 C 44.1500 %
1296 10-10-2018 00:00:00 12.71667 C 45.8500 %
1297 11-10-2018 00:00:00 13.6775 C 40.8667 %
1298 12-10-2018 00:00:00 15.05417 C 38.8667 %
1299 13-10-2018 00:00:00 14.68833 C 38.8250 %
1300 14-10-2018 00:00:00 13.92083 C 36.1000 %
Sensor: Nr:Datum:Temp:Feuchte:
Aussen-T/F 1301 15-10-2018 00:00:00 12.87417 C 37.7167 %
1302 16-10-2018 00:00:00 12.0325 C 38.6083 %
1303 17-10-2018 00:00:00 12.01333 C 41.5083 %
1304 18-10-2018 00:00:00 13.73917 C 38.0333 %
1305 19-10-2018 00:00:00 11.66417 C 37.7167 %
1306 20-10-2018 00:00:00 10.57167 C 36.9583 %
1307 21-10-2018 00:00:00 6.7725 C 44.7500 %
1308 22-10-2018 00:00:00 7.16833 C 43.7083 %
1309 23-10-2018 00:00:00 8.68 C 39.8083 %
1310 24-10-2018 00:00:00 13.58167 C 33.8333 %
1311 25-10-2018 00:00:00 12.74667 C 31.1083 %
1312 26-10-2018 00:00:00 9.95417 C 28.9917 %
1313 27-10-2018 00:00:00 5.7925 C 48.4000 %
1314 28-10-2018 00:00:00 5.2 C 33.7840 %
1315 29-10-2018 00:00:00 5.97083 C 33.6667 %
1316 30-10-2018 00:00:00 5.80583 C 46.3667 %
1317 31-10-2018 00:00:00 6.87167 C 39.3333 %
1318 01-11-2018 00:00:00 5.49083 C 58.1333 %
1319 02-11-2018 00:00:00 8.22333 C 53.4750 %
1320 03-11-2018 00:00:00 3.10583 C 60.6667 %
1321 04-11-2018 00:00:00 6.64167 C 47.4000 %
1322 05-11-2018 00:00:00 9.7725 C 45.3417 %
1323 06-11-2018 00:00:00 7.78167 C 57.6917 %
1324 07-11-2018 00:00:00 8.4 C 54.3917 %
1325 08-11-2018 00:00:00 9.7 C 41.1583 %
Sensor: Nr:Datum:Temp:Feuchte:
Aussen-T/F 1326 09-11-2018 00:00:00 8.83167 C 49.0500 %
1327 10-11-2018 00:00:00 11.32 C 42.0250 %
1328 11-11-2018 00:00:00 11.46583 C 47.7500 %
1329 12-11-2018 00:00:00 13.07917 C 44.0417 %
1330 13-11-2018 00:00:00 9.75583 C 50.0167 %
1331 14-11-2018 00:00:00 5.56917 C 61.4000 %
1332 15-11-2018 00:00:00 6.72833 C 38.5000 %
1333 16-11-2018 00:00:00 5.12667 C 41.4000 %
1334 17-11-2018 00:00:00 1.785 C 48.8667 %
1335 18-11-2018 00:00:00 0.80333 C 30.7417 %
1336 19-11-2018 00:00:00 2.95833 C 26.3167 %
1337 20-11-2018 00:00:00 2.95167 C 25.6167 %
1338 21-11-2018 00:00:00 1.93 C 37.9750 %
1339 22-11-2018 00:00:00 2.22833 C 39.2750 %
1340 23-11-2018 00:00:00 -0.8425 C 54.2583 %
1341 24-11-2018 00:00:00 4.05833 C 58.0917 %
1342 25-11-2018 00:00:00 5.29 C 56.7917 %
1343 26-11-2018 00:00:00 6.09333 C 35.8583 %
1344 27-11-2018 00:00:00 3.6075 C 30.9583 %
1345 28-11-2018 00:00:00 2.97583 C 45.6917 %
1346 29-11-2018 00:00:00 4.98333 C 47.6917 %
1347 30-11-2018 00:00:00 6.67167 C 48.6583 %
1348 01-12-2018 00:00:00 6.67417 C 47.9750 %
1349 02-12-2018 00:00:00 10.59167 C 45.4750 %
1350 03-12-2018 00:00:00 11.02333 C 51.1333 %
Sensor: Nr:Datum:Temp:Feuchte:
Aussen-T/F 1351 04-12-2018 00:00:00 5.62 C 45.3833 %
1352 05-12-2018 00:00:00 3.15546 C 56.8487 %
1353 06-12-2018 00:00:00 9.21333 C 47.7750 %
1354 07-12-2018 00:00:00 10.71583 C 33.9000 %
1355 08-12-2018 00:00:00 7.28083 C 37.2333 %
1356 09-12-2018 00:00:00 7.285 C 37.6917 %
1357 10-12-2018 00:00:00 3.9825 C 44.3833 %
1358 11-12-2018 00:00:00 2.87417 C 51.3500 %
1359 12-12-2018 00:00:00 2.0375 C 58.1583 %
1360 13-12-2018 00:00:00 0.49 C 37.0417 %
1361 14-12-2018 00:00:00 0.48 C 20.9833 %
1362 15-12-2018 00:00:00 -0.09083 C 24.2083 %
1363 16-12-2018 00:00:00 0.045 C 43.8833 %
1364 17-12-2018 00:00:00 3.4775 C 51.8333 %
1365 18-12-2018 00:00:00 4.1675 C 41.5083 %
1366 19-12-2018 00:00:00 5.75 C 37.3000 %
1367 20-12-2018 00:00:00 6.87083 C 39.0583 %
1368 21-12-2018 00:00:00 10.1725 C 34.4750 %
1369 22-12-2018 00:00:00 9.26167 C 35.0083 %
1370 23-12-2018 00:00:00 7.89333 C 46.8500 %
1371 24-12-2018 00:00:00 4.10333 C 44.5000 %
1372 25-12-2018 00:00:00 1.0625 C 49.8500 %
1373 26-12-2018 00:00:00 -1.61083 C 52.7667 %
1374 27-12-2018 00:00:00 -0.68583 C 57.2917 %
1375 28-12-2018 00:00:00 -0.61667 C 51.7667 %
Sensor: Nr:Datum:Temp:Feuchte:
Aussen-T/F 1376 29-12-2018 00:00:00 2.0175 C 45.4833 %
1377 30-12-2018 00:00:00 6.73917 C 37.6417 %
1378 31-12-2018 00:00:00 6.84917 C 56.5417 %
1379 01-01-2019 00:00:00 6.345 C 45.5833 %
1380 02-01-2019 00:00:00 2.72417 C 34.2083 %
1381 03-01-2019 00:00:00 1.28167 C 47.5833 %
1382 04-01-2019 00:00:00 2.41333 C 45.7833 %
1383 05-01-2019 00:00:00 5.14417 C 47.4583 %
1384 06-01-2019 00:00:00 5.0725 C 44.3083 %
1385 07-01-2019 00:00:00 4.8875 C 41.5500 %
1386 08-01-2019 00:00:00 5.74917 C 36.7000 %
1387 09-01-2019 00:00:00 3.05083 C 34.6917 %
1388 10-01-2019 00:00:00 1.36 C 32.5417 %
1389 11-01-2019 00:00:00 2.05417 C 54.0417 %
1390 12-01-2019 00:00:00 5.01833 C 46.3583 %
1391 13-01-2019 00:00:00 6.9225 C 47.7417 %
1392 14-01-2019 00:00:00 4.06833 C 43.5667 %
1393 15-01-2019 00:00:00 4.06833 C 40.0333 %
1394 16-01-2019 00:00:00 4.52583 C 35.3417 %
1395 17-01-2019 00:00:00 4.27167 C 37.9583 %
1396 18-01-2019 00:00:00 -0.2025 C 49.3250 %
1397 19-01-2019 00:00:00 -3.87667 C 48.1333 %
1398 20-01-2019 00:00:00 -6.33 C 47.2250 %
1399 21-01-2019 00:00:00 -7.505 C 46.8917 %
1400 22-01-2019 00:00:00 -5.97917 C 44.1750 %
Sensor: Nr:Datum:Temp:Feuchte:
Aussen-T/F 1401 23-01-2019 00:00:00 -2.435 C 39.5667 %
1402 24-01-2019 00:00:00 -2.72417 C 26.7667 %
1403 25-01-2019 00:00:00 -0.50917 C 39.3333 %
1404 26-01-2019 00:00:00 3.62167 C 45.9417 %
1405 27-01-2019 00:00:00 4.94833 C 43.1917 %
1406 28-01-2019 00:00:00 2.2025 C 45.2417 %
1407 29-01-2019 00:00:00 0.865 C 44.1667 %
1408 30-01-2019 00:00:00 -0.46833 C 49.8250 %
1409 31-01-2019 00:00:00 -1.03333 C 52.2750 %
1410 01-02-2019 00:00:00 0.72167 C 56.8333 %
1411 02-02-2019 00:00:00 1.59587 C 62.5950 %
1412 03-02-2019 00:00:00 1.86583 C 40.0750 %
1413 04-02-2019 00:00:00 0.99417 C 40.5833 %
1414 05-02-2019 00:00:00 3.66167 C 30.5917 %
1415 06-02-2019 00:00:00 0.09417 C 46.8417 %
1416 07-02-2019 00:00:00 4.26083 C 38.9917 %
1417 08-02-2019 00:00:00 6.77417 C 31.6250 %
1418 09-02-2019 00:00:00 8.02083 C 28.8667 %
1419 10-02-2019 00:00:00 7.15083 C 39.6167 %
1420 11-02-2019 00:00:00 4.03667 C 38.3917 %
1421 12-02-2019 00:00:00 3.01917 C 38.2083 %
1422 13-02-2019 00:00:00 0.96333 C 46.8167 %
1423 14-02-2019 00:00:00 -0.46667 C 51.0250 %
1424 15-02-2019 00:00:00 0.9925 C 45.0667 %
1425 16-02-2019 00:00:00 1.9325 C 47.3750 %
Sensor: Nr:Datum:Temp:Feuchte:
Aussen-T/F 1426 17-02-2019 00:00:00 2.17333 C 49.1333 %
1427 18-02-2019 00:00:00 2.31167 C 43.0500 %
1428 19-02-2019 00:00:00 4.89 C 40.9750 %
1429 20-02-2019 00:00:00 3.7725 C 45.5000 %
1430 21-02-2019 00:00:00 5.655 C 46.3667 %
1431 22-02-2019 00:00:00 9.27167 C 39.5167 %
1432 23-02-2019 00:00:00 4.58167 C 33.2583 %
1433 24-02-2019 00:00:00 2.29833 C 32.9417 %
1434 25-02-2019 00:00:00 3.65667 C 31.8250 %
1435 26-02-2019 00:00:00 4.75583 C 37.6333 %
1436 27-02-2019 00:00:00 5.17417 C 38.9250 %
1437 28-02-2019 00:00:00 8.185 C 29.8833 %
1438 01-03-2019 00:00:00 7.515 C 43.8250 %
1439 02-03-2019 00:00:00 8.29333 C 34.1417 %
1440 03-03-2019 00:00:00 10.72417 C 28.1417 %
1441 04-03-2019 00:00:00 9.1575 C 27.8167 %
1442 05-03-2019 00:00:00 6.32167 C 30.8917 %
1443 06-03-2019 00:00:00 9.5125 C 32.3667 %
1444 07-03-2019 00:00:00 9.61917 C 28.3833 %
1445 08-03-2019 00:00:00 7.73167 C 28.8250 %
1446 09-03-2019 00:00:00 10.01667 C 26.3333 %
1447 10-03-2019 00:00:00 9.11083 C 30.1417 %
1448 11-03-2019 00:00:00 4.19667 C 30.2417 %
1449 12-03-2019 00:00:00 6.18083 C 27.8583 %
1450 13-03-2019 00:00:00 5.6775 C 31.5250 %
Sensor: Nr:Datum:Temp:Feuchte:
Aussen-T/F 1451 14-03-2019 00:00:00 6.3325 C 38.0083 %
1452 15-03-2019 00:00:00 9.61417 C 37.6917 %
1453 16-03-2019 00:00:00 9.76833 C 35.9667 %
1454 17-03-2019 00:00:00 8.19083 C 26.8333 %
1455 18-03-2019 00:00:00 4.3225 C 36.6583 %
1456 19-03-2019 00:00:00 3.115 C 40.3583 %
1457 20-03-2019 00:00:00 4.81417 C 37.4250 %
1458 21-03-2019 00:00:00 6.76333 C 35.7167 %
1459 22-03-2019 00:00:00 8.43083 C 34.0750 %
1460 23-03-2019 00:00:00 5.40167 C 40.0083 %
1461 24-03-2019 00:00:00 5.90583 C 38.2167 %
1462 25-03-2019 00:00:00 4.41583 C 37.7583 %
1463 26-03-2019 00:00:00 6.33417 C 32.9583 %
1464 27-03-2019 00:00:00 6.36583 C 35.3083 %
1465 28-03-2019 00:00:00 6.955 C 36.2417 %
1466 29-03-2019 00:00:00 8.44167 C 38.7750 %
1467 30-03-2019 00:00:00 10.07583 C 34.1833 %
1468 31-03-2019 00:00:00 9.90957 C 33.8174 %
1469 01-04-2019 00:00:00 8.9475 C 32.5750 %
1470 02-04-2019 00:00:00 10.5425 C 29.3083 %
1471 03-04-2019 00:00:00 7.865 C 38.6750 %
1472 04-04-2019 00:00:00 5.56833 C 48.7000 %
1473 05-04-2019 00:00:00 5.95417 C 48.0167 %
1474 06-04-2019 00:00:00 9.88333 C 42.1917 %
1475 07-04-2019 00:00:00 11.50833 C 36.8000 %
Sensor: Nr:Datum:Temp:Feuchte:
Aussen-T/F 1476 08-04-2019 00:00:00 12.34417 C 33.9167 %
1477 09-04-2019 00:00:00 12.00333 C 40.7333 %
1478 10-04-2019 00:00:00 10.585 C 23.8417 %
1479 11-04-2019 00:00:00 6.52917 C 25.0583 %
1480 12-04-2019 00:00:00 4.68167 C 20.0000 %
1481 13-04-2019 00:00:00 3.585 C 24.4167 %
1482 14-04-2019 00:00:00 5.23833 C 34.7917 %
1483 15-04-2019 00:00:00 10.29167 C 25.8000 %
1484 16-04-2019 00:00:00 10.91333 C 23.2000 %
1485 17-04-2019 00:00:00 12.4 C 35.6083 %
1486 18-04-2019 00:00:00 13.7675 C 28.5500 %
1487 19-04-2019 00:00:00 14.94917 C 24.5083 %
1488 20-04-2019 00:00:00 14.60167 C 27.5833 %
1489 21-04-2019 00:00:00 15.24333 C 24.6417 %
1490 22-04-2019 00:00:00 14.7825 C 27.5667 %
1491 23-04-2019 00:00:00 15.12667 C 20.1083 %
1492 24-04-2019 00:00:00 15.10083 C 30.7083 %
1493 25-04-2019 00:00:00 13.2425 C 38.0667 %
1494 26-04-2019 00:00:00 11.8 C 32.0000 %
1495 27-04-2019 00:00:00 9.01583 C 40.3667 %
1496 28-04-2019 00:00:00 8.43333 C 30.9750 %
1497 29-04-2019 00:00:00 8.62417 C 38.4083 %
1498 30-04-2019 00:00:00 13.94583 C 26.0833 %
1499 01-05-2019 00:00:00 13.03833 C 29.5000 %
1500 02-05-2019 00:00:00 12.08333 C 31.3667 %
Sensor: Nr:Datum:Temp:Feuchte:
Aussen-T/F 1501 03-05-2019 00:00:00 11.20833 C 25.1500 %
1502 04-05-2019 00:00:00 6.17583 C 33.4500 %
1503 05-05-2019 00:00:00 6.66333 C 32.0417 %
1504 06-05-2019 00:00:00 7.6075 C 30.6583 %
1505 07-05-2019 00:00:00 9.645 C 28.6167 %
1506 08-05-2019 00:00:00 9.105 C 38.9750 %
1507 09-05-2019 00:00:00 11.085 C 36.9583 %
1508 10-05-2019 00:00:00 12.44538 C 33.3866 %
1509 11-05-2019 00:00:00 9.52833 C 47.9417 %
1510 12-05-2019 00:00:00 9.4 C 31.3083 %
1511 13-05-2019 00:00:00 9.985 C 30.9083 %
1512 14-05-2019 00:00:00 9.66333 C 26.4333 %
1513 15-05-2019 00:00:00 10.57083 C 24.3500 %
1514 16-05-2019 00:00:00 10.61167 C 23.0917 %
1515 17-05-2019 00:00:00 11.4775 C 39.7250 %
1516 18-05-2019 00:00:00 14.67167 C 39.3500 %
1517 19-05-2019 00:00:00 15.91083 C 38.3750 %
1518 20-05-2019 00:00:00 13.655 C 37.8667 %
1519 21-05-2019 00:00:00 11.88167 C 45.6167 %
1520 22-05-2019 00:00:00 13.2875 C 33.7833 %
1521 23-05-2019 00:00:00 15.22667 C 33.1417 %
1522 24-05-2019 00:00:00 17.24 C 28.7500 %
1523 25-05-2019 00:00:00 15.89917 C 22.8167 %
1524 26-05-2019 00:00:00 16.26667 C 29.2667 %
1525 27-05-2019 00:00:00 14.66667 C 40.5417 %
Sensor: Nr:Datum:Temp:Feuchte:
Aussen-T/F 1526 28-05-2019 00:00:00 14.29917 C 38.6250 %
1527 29-05-2019 00:00:00 15.28667 C 25.9000 %
1528 30-05-2019 00:00:00 15.82833 C 28.8250 %
1529 31-05-2019 00:00:00 19.45583 C 30.4167 %
1530 01-06-2019 00:00:00 20.21917 C 30.3583 %
1531 02-06-2019 00:00:00 22.16417 C 30.0500 %
1532 03-06-2019 00:00:00 21.1475 C 27.1667 %
1533 04-06-2019 00:00:00 21.80333 C 28.3333 %
1534 05-06-2019 00:00:00 23.57917 C 22.7833 %
1535 06-06-2019 00:00:00 16.14167 C 28.3667 %
1536 07-06-2019 00:00:00 16.10083 C 29.5250 %
1537 08-06-2019 00:00:00 16.40917 C 20.2667 %
1538 09-06-2019 00:00:00 16.72333 C 27.7667 %
1539 10-06-2019 00:00:00 19.705 C 23.4750 %
1540 11-06-2019 00:00:00 17.38 C 32.4667 %
1541 12-06-2019 00:00:00 16.405 C 33.2917 %
1542 13-06-2019 00:00:00 16.27917 C 34.4333 %
1543 14-06-2019 00:00:00 18.17 C 35.6583 %
1544 15-06-2019 00:00:00 19.72583 C 33.0250 %
1545 16-06-2019 00:00:00 19.94417 C 24.9167 %
1546 17-06-2019 00:00:00 19.5125 C 29.1250 %
1547 18-06-2019 00:00:00 22.02333 C 27.1333 %
1548 19-06-2019 00:00:00 22.62583 C 27.6917 %
1549 20-06-2019 00:00:00 20 C 28.0167 %
1550 21-06-2019 00:00:00 19.3425 C 27.3333 %
Sensor: Nr:Datum:Temp:Feuchte:
Aussen-T/F 1551 22-06-2019 00:00:00 19.82667 C 26.6167 %
1552 23-06-2019 00:00:00 22.3125 C 27.3750 %
1553 24-06-2019 00:00:00 24.96167 C 26.2167 %
1554 25-06-2019 00:00:00 26.83333 C 24.5583 %
1555 26-06-2019 00:00:00 27.635 C 23.0833 %
1556 27-06-2019 00:00:00 25.18917 C 20.6083 %
1557 28-06-2019 00:00:00 22.44833 C 23.4333 %
1558 29-06-2019 00:00:00 24.38417 C 22.1750 %
1559 30-06-2019 00:00:00 26.0575 C 22.2333 %
1560 01-07-2019 00:00:00 23.3825 C 20.0000 %
1561 02-07-2019 00:00:00 19.63333 C 21.8667 %
1562 03-07-2019 00:00:00 18.14583 C 22.9833 %
1563 04-07-2019 00:00:00 18.95917 C 21.7583 %
1564 05-07-2019 00:00:00 21.28 C 20.0000 %
1565 06-07-2019 00:00:00 21.86 C 21.2917 %
1566 07-07-2019 00:00:00 17.9975 C 24.5833 %
1567 08-07-2019 00:00:00 14.77583 C 24.3917 %
1568 09-07-2019 00:00:00 15.65583 C 24.6667 %
1569 10-07-2019 00:00:00 17.64083 C 24.2083 %
1570 11-07-2019 00:00:00 17.65083 C 31.2583 %
1571 12-07-2019 00:00:00 17.16583 C 43.6333 %
1572 13-07-2019 00:00:00 17.9575 C 34.1250 %
1573 14-07-2019 00:00:00 17.12917 C 26.6667 %
1574 15-07-2019 00:00:00 16.56667 C 21.0917 %
1575 16-07-2019 00:00:00 16.26 C 28.0333 %
Sensor: Nr:Datum:Temp:Feuchte:
Aussen-T/F 1576 17-07-2019 00:00:00 17.56833 C 29.2083 %
1577 18-07-2019 00:00:00 19.38333 C 28.1917 %
1578 19-07-2019 00:00:00 20.12667 C 31.9750 %
1579 20-07-2019 00:00:00 21.81667 C 30.3083 %
1580 21-07-2019 00:00:00 22.37333 C 25.8833 %
1581 22-07-2019 00:00:00 22.7225 C 26.2833 %
1582 23-07-2019 00:00:00 25.34083 C 25.5333 %
1583 24-07-2019 00:00:00 27.1975 C 24.2750 %
1584 25-07-2019 00:00:00 28.90167 C 21.7333 %
1585 26-07-2019 00:00:00 27.54417 C 21.2500 %
1586 27-07-2019 00:00:00 23.4375 C 26.6833 %
1587 28-07-2019 00:00:00 19.93083 C 38.1333 %
1588 29-07-2019 00:00:00 21.45583 C 29.3333 %
1589 30-07-2019 00:00:00 22.35833 C 26.7167 %
1590 31-07-2019 00:00:00 21.48417 C 20.5333 %
1591 01-08-2019 00:00:00 19.83417 C 22.9750 %
1592 02-08-2019 00:00:00 20.8775 C 22.8500 %
1593 03-08-2019 00:00:00 20.77167 C 24.6333 %
1594 04-08-2019 00:00:00 21.00667 C 28.3000 %
1595 05-08-2019 00:00:00 22.56833 C 24.9167 %
1596 06-08-2019 00:00:00 20.0075 C 30.3333 %
1597 07-08-2019 00:00:00 19.10167 C 41.3833 %
1598 08-08-2019 00:00:00 20.55667 C 30.6417 %
1599 09-08-2019 00:00:00 19.73833 C 39.4583 %
1600 10-08-2019 00:00:00 20.72917 C 37.6833 %
Sensor: Nr:Datum:Temp:Feuchte:
Aussen-T/F 1601 11-08-2019 00:00:00 17.03333 C 35.9000 %
1602 12-08-2019 00:00:00 16.51583 C 38.9833 %
1603 13-08-2019 00:00:00 16.10833 C 35.2833 %
1604 14-08-2019 00:00:00 16.6875 C 34.0417 %
1605 15-08-2019 00:00:00 17.20583 C 40.0250 %
1606 16-08-2019 00:00:00 17.84 C 34.2250 %
1607 17-08-2019 00:00:00 17.89333 C 38.0750 %
1608 18-08-2019 00:00:00 19.71833 C 44.5000 %
1609 19-08-2019 00:00:00 18.45167 C 33.8417 %
1610 20-08-2019 00:00:00 15.91167 C 33.3250 %
1611 21-08-2019 00:00:00 16.52917 C 33.4750 %
1612 22-08-2019 00:00:00 17.12333 C 32.3667 %
1613 23-08-2019 00:00:00 18.31667 C 31.5083 %
1614 24-08-2019 00:00:00 19.36333 C 30.9833 %
1615 25-08-2019 00:00:00 21.54583 C 29.8917 %
1616 26-08-2019 00:00:00 22.17 C 33.4833 %
1617 27-08-2019 00:00:00 22.70333 C 35.1667 %
1618 28-08-2019 00:00:00 23.4425 C 30.4583 %
1619 29-08-2019 00:00:00 22.20333 C 28.3583 %
1620 30-08-2019 00:00:00 21.07 C 29.2583 %
1621 31-08-2019 00:00:00 21.975 C 30.7583 %
1622 01-09-2019 00:00:00 18.8525 C 26.8333 %
1623 02-09-2019 00:00:00 15.49333 C 28.2000 %
1624 03-09-2019 00:00:00 15.72917 C 28.0833 %
1625 04-09-2019 00:00:00 16.9525 C 33.9667 %
Sensor: Nr:Datum:Temp:Feuchte:
Aussen-T/F 1626 05-09-2019 00:00:00 15.59 C 26.2917 %
1627 06-09-2019 00:00:00 13.58917 C 31.1917 %
1628 07-09-2019 00:00:00 12.6975 C 39.5000 %
1629 08-09-2019 00:00:00 12.7439 C 48.5935 %
1630 09-09-2019 00:00:00 15.23733 C 38.6667 %
1631 10-09-2019 00:00:00 12.20486 C 22.8264 %
1632 11-09-2019 00:00:00 13.35556 C 20.8472 %
1633 12-09-2019 00:00:00 19.325 C 20.0000 %
1634 13-09-2019 00:00:00 17.86806 C 20.1111 %
1635 14-09-2019 00:00:00 15.93333 C 22.4375 %
1636 15-09-2019 00:00:00 15.65694 C 21.2778 %
1637 16-09-2019 00:00:00 16.21389 C 20.0000 %
1638 17-09-2019 00:00:00 15.87708 C 20.0000 %
1639 18-09-2019 00:00:00 11.47361 C 20.7917 %
1640 19-09-2019 00:00:00 10.53333 C 21.8194 %
1641 20-09-2019 00:00:00 10.80486 C 20.8472 %
1642 21-09-2019 00:00:00 12.45278 C 20.6597 %
1643 22-09-2019 00:00:00 14.78542 C 20.7500 %
1644 23-09-2019 00:00:00 16.6875 C 22.1528 %
1645 24-09-2019 00:00:00 13.94306 C 26.6319 %
1646 25-09-2019 00:00:00 15.31806 C 25.0417 %
1647 26-09-2019 00:00:00 16.10903 C 26.0000 %
1648 27-09-2019 00:00:00 16.23333 C 23.7708 %
1649 28-09-2019 00:00:00 15.40208 C 22.5833 %
1650 29-09-2019 00:00:00 16.05972 C 21.6597 %
Sensor: Nr:Datum:Temp:Feuchte:
Aussen-T/F 1651 30-09-2019 00:00:00 15.48194 C 21.1319 %
1652 01-10-2019 00:00:00 15.84375 C 23.4931 %
1653 02-10-2019 00:00:00 12.57569 C 23.6111 %
1654 03-10-2019 00:00:00 9.35625 C 27.6944 %
1655 04-10-2019 00:00:00 10.03681 C 31.8403 %
1656 05-10-2019 00:00:00 10.32986 C 26.5903 %
1657 06-10-2019 00:00:00 7.85764 C 34.1250 %
1658 07-10-2019 00:00:00 9.80764 C 31.8819 %
1659 08-10-2019 00:00:00 12.35833 C 31.0694 %
1660 09-10-2019 00:00:00 11.56667 C 27.7431 %
1661 10-10-2019 00:00:00 11.49097 C 26.2153 %
1662 11-10-2019 00:00:00 12.41458 C 28.8194 %
1663 12-10-2019 00:00:00 13.21111 C 29.6875 %
1664 13-10-2019 00:00:00 16.35417 C 28.4722 %
1665 14-10-2019 00:00:00 15.8125 C 27.6528 %
1666 15-10-2019 00:00:00 13.94028 C 29.8611 %
1667 16-10-2019 00:00:00 12.42153 C 29.2917 %
1668 17-10-2019 00:00:00 14.32708 C 27.4167 %
1669 18-10-2019 00:00:00 12.3125 C 29.7292 %
1670 19-10-2019 00:00:00 12.78194 C 28.2083 %
1671 20-10-2019 00:00:00 13.0875 C 34.7778 %
1672 21-10-2019 00:00:00 13.30486 C 29.2014 %
1673 22-10-2019 00:00:00 11.45 C 27.8819 %
1674 23-10-2019 00:00:00 10.68403 C 31.1181 %
1675 24-10-2019 00:00:00 13.85208 C 27.9236 %
Sensor: Nr:Datum:Temp:Feuchte:
Aussen-T/F 1676 25-10-2019 00:00:00 13.1625 C 24.9444 %
1677 26-10-2019 00:00:00 12.72639 C 27.5417 %
1678 27-10-2019 00:00:00 9.68467 C 30.8733 %
1679 28-10-2019 00:00:00 5.91597 C 35.2014 %
1680 29-10-2019 00:00:00 6.21181 C 29.3264 %
1681 30-10-2019 00:00:00 2.93333 C 34.5347 %
1682 31-10-2019 00:00:00 1.41875 C 34.8333 %
1683 01-11-2019 00:00:00 5.44792 C 36.7292 %
1684 02-11-2019 00:00:00 12.8125 C 27.6458 %
1685 03-11-2019 00:00:00 11.45069 C 29.7639 %
1686 04-11-2019 00:00:00 9.88542 C 30.2153 %
1687 05-11-2019 00:00:00 9.25069 C 27.4306 %
1688 06-11-2019 00:00:00 8.33542 C 34.7014 %
1689 07-11-2019 00:00:00 7.30278 C 33.8333 %
1690 08-11-2019 00:00:00 4.29028 C 37.7153 %
1691 09-11-2019 00:00:00 4.26806 C 33.1111 %
1692 10-11-2019 00:00:00 2.51319 C 34.9861 %
1693 11-11-2019 00:00:00 4.2 C 27.4792 %
1694 12-11-2019 00:00:00 5.41667 C 25.4792 %
1695 13-11-2019 00:00:00 4.93472 C 22.9861 %
1696 14-11-2019 00:00:00 4.86042 C 26.9861 %
1697 15-11-2019 00:00:00 4.08472 C 26.3333 %
1698 16-11-2019 00:00:00 1.19444 C 38.8125 %
1699 17-11-2019 00:00:00 2.39861 C 40.2708 %
1700 18-11-2019 00:00:00 3.51667 C 36.2847 %
Sensor: Nr:Datum:Temp:Feuchte:
Aussen-T/F 1701 19-11-2019 00:00:00 3.06736 C 36.5833 %
1702 20-11-2019 00:00:00 0.75972 C 37.8403 %
1703 21-11-2019 00:00:00 1.18951 C 39.3846 %
1704 22-11-2019 00:00:00 3.65972 C 35.6806 %
1705 23-11-2019 00:00:00 4.64653 C 33.3889 %
1706 24-11-2019 00:00:00 1.99861 C 41.4722 %
1707 25-11-2019 00:00:00 4.16319 C 39.3681 %
1708 26-11-2019 00:00:00 7.75903 C 34.8472 %
1709 27-11-2019 00:00:00 9.72083 C 30.6875 %
1710 28-11-2019 00:00:00 10.55833 C 22.1319 %
1711 29-11-2019 00:00:00 5.75486 C 30.7639 %
1712 30-11-2019 00:00:00 0.48194 C 42.0972 %
1713 01-12-2019 00:00:00 1.14236 C 33.0139 %
1714 02-12-2019 00:00:00 1.20556 C 36.2986 %
1715 03-12-2019 00:00:00 3.97431 C 39.2292 %
1716 04-12-2019 00:00:00 0.41389 C 41.6111 %
1717 05-12-2019 00:00:00 -2.03194 C 42.0972 %
1718 06-12-2019 00:00:00 2.6125 C 34.4722 %
1719 07-12-2019 00:00:00 8.20694 C 27.7292 %
1720 08-12-2019 00:00:00 9.69931 C 24.2778 %
1721 09-12-2019 00:00:00 7.09444 C 23.9722 %
1722 10-12-2019 00:00:00 2.37361 C 34.0000 %
1723 11-12-2019 00:00:00 3.12569 C 39.3056 %
1724 12-12-2019 00:00:00 2.64931 C 37.2500 %
1725 13-12-2019 00:00:00 3.25278 C 34.0069 %
Sensor: Nr:Datum:Temp:Feuchte:
Aussen-T/F 1726 14-12-2019 00:00:00 6.22222 C 28.0625 %
1727 15-12-2019 00:00:00 7.24792 C 30.8958 %
1728 16-12-2019 00:00:00 7.47361 C 39.2986 %
1729 17-12-2019 00:00:00 9.69514 C 31.9653 %
1730 18-12-2019 00:00:00 6.95069 C 37.4792 %
1731 19-12-2019 00:00:00 4.60972 C 40.5417 %
1732 20-12-2019 00:00:00 6.87778 C 35.7847 %
1733 21-12-2019 00:00:00 6.42778 C 32.4306 %
1734 22-12-2019 00:00:00 7.57917 C 31.0556 %
1735 23-12-2019 00:00:00 7.34861 C 28.6111 %
1736 24-12-2019 00:00:00 7.20278 C 29.9097 %
1737 25-12-2019 00:00:00 6.91944 C 32.8333 %
1738 26-12-2019 00:00:00 4.25278 C 40.6250 %
1739 27-12-2019 00:00:00 4.41181 C 36.8819 %
1740 28-12-2019 00:00:00 -1.22431 C 42.5000 %
1741 29-12-2019 00:00:00 -2.07708 C 39.8819 %
1742 30-12-2019 00:00:00 -1.99931 C 39.1319 %
1743 31-12-2019 00:00:00 -0.41736 C 39.5556 %
1744 01-01-2020 00:00:00 -0.10764 C 41.3403 %
1745 02-01-2020 00:00:00 0.98958 C 39.7014 %
1746 03-01-2020 00:00:00 7.00972 C 33.4653 %
1747 04-01-2020 00:00:00 4.78264 C 32.5903 %
1748 05-01-2020 00:00:00 5.21806 C 35.8750 %
1749 06-01-2020 00:00:00 2.11667 C 38.1667 %
1750 07-01-2020 00:00:00 4.43611 C 34.6944 %
Sensor: Nr:Datum:Temp:Feuchte:
Aussen-T/F 1751 08-01-2020 00:00:00 7.71389 C 34.4167 %
1752 09-01-2020 00:00:00 10.33542 C 35.2292 %
1753 10-01-2020 00:00:00 8.27917 C 30.8958 %
1754 11-01-2020 00:00:00 3.61806 C 33.7639 %
1755 12-01-2020 00:00:00 4.57083 C 30.3889 %
1756 13-01-2020 00:00:00 5.88472 C 35.0903 %
1757 14-01-2020 00:00:00 9.28264 C 24.1181 %
1758 15-01-2020 00:00:00 10.27083 C 23.7500 %
1759 16-01-2020 00:00:00 7.07569 C 40.1944 %
1760 17-01-2020 00:00:00 5.27986 C 39.1944 %
1761 18-01-2020 00:00:00 3.79028 C 32.6042 %
1762 19-01-2020 00:00:00 3.01389 C 40.8194 %
1763 20-01-2020 00:00:00 1.64861 C 39.3889 %
1764 21-01-2020 00:00:00 -2.675 C 44.7986 %
1765 22-01-2020 00:00:00 -1.95347 C 44.7153 %
1766 23-01-2020 00:00:00 0.53819 C 43.6458 %
1767 24-01-2020 00:00:00 0.81319 C 35.7222 %
1768 25-01-2020 00:00:00 1.99236 C 39.2014 %
1769 26-01-2020 00:00:00 2.13056 C 41.5625 %
1770 27-01-2020 00:00:00 5.48542 C 39.8264 %
1771 28-01-2020 00:00:00 5.07708 C 30.3750 %
1772 29-01-2020 00:00:00 4.20764 C 29.8611 %
1773 30-01-2020 00:00:00 7.57569 C 29.5694 %
1774 31-01-2020 00:00:00 12.86181 C 27.9167 %
1775 01-02-2020 00:00:00 11.16597 C 32.0972 %
Sensor: Nr:Datum:Temp:Feuchte:
Aussen-T/F 1776 02-02-2020 00:00:00 9.925 C 31.1319 %
1777 03-02-2020 00:00:00 10.19236 C 29.5139 %
1778 04-02-2020 00:00:00 4.29514 C 36.4097 %
1779 05-02-2020 00:00:00 3.05069 C 37.1458 %
1780 06-02-2020 00:00:00 0.04514 C 42.7500 %
1781 07-02-2020 00:00:00 -0.30764 C 42.8264 %
1782 08-02-2020 00:00:00 1.01389 C 43.0069 %
1783 09-02-2020 00:00:00 8.36458 C 32.5764 %
1784 10-02-2020 00:00:00 7.85 C 31.3611 %
1785 11-02-2020 00:00:00 5.29167 C 24.6597 %
1786 12-02-2020 00:00:00 4.32083 C 30.5972 %
1787 13-02-2020 00:00:00 3.32917 C 42.1250 %
1788 14-02-2020 00:00:00 5.46458 C 39.2639 %
1789 15-02-2020 00:00:00 5.89931 C 38.0278 %
1790 16-02-2020 00:00:00 14.44931 C 23.2431 %
1791 17-02-2020 00:00:00 8.25903 C 32.4167 %
1792 18-02-2020 00:00:00 6.89097 C 31.0347 %
1793 19-02-2020 00:00:00 5.73889 C 30.1875 %
1794 20-02-2020 00:00:00 7.7125 C 32.9722 %
1795 21-02-2020 00:00:00 4.71042 C 33.5972 %
1796 22-02-2020 00:00:00 7.67986 C 30.0347 %
1797 23-02-2020 00:00:00 10.01389 C 35.3403 %
1798 24-02-2020 00:00:00 7.74653 C 36.3194 %
1799 25-02-2020 00:00:00 8.81597 C 32.2778 %
1800 26-02-2020 00:00:00 4.37431 C 33.6806 %
Sensor: Nr:Datum:Temp:Feuchte:
Aussen-T/F 1801 27-02-2020 00:00:00 2.22153 C 41.6806 %
1802 28-02-2020 00:00:00 3.52431 C 38.4514 %
1803 29-02-2020 00:00:00 8.60556 C 34.8889 %
1804 01-03-2020 00:00:00 7.15694 C 36.0000 %
1805 02-03-2020 00:00:00 5.99375 C 40.1667 %
1806 03-03-2020 00:00:00 4.26806 C 39.6458 %
1807 04-03-2020 00:00:00 5.28958 C 37.5764 %
1808 05-03-2020 00:00:00 5.45764 C 43.0833 %
1809 06-03-2020 00:00:00 5.63958 C 40.4931 %
1810 07-03-2020 00:00:00 6.26458 C 33.7569 %
1811 08-03-2020 00:00:00 9.46458 C 32.2361 %
1812 09-03-2020 00:00:00 7.81875 C 35.4514 %
1813 10-03-2020 00:00:00 9.06181 C 39.4514 %
1814 11-03-2020 00:00:00 14.0375 C 35.2639 %
1815 12-03-2020 00:00:00 11.01597 C 30.3681 %
1816 13-03-2020 00:00:00 6.99236 C 33.4236 %
1817 14-03-2020 00:00:00 5.89028 C 38.1667 %
1818 15-03-2020 00:00:00 9.14653 C 32.2153 %
1819 16-03-2020 00:00:00 9.43264 C 35.6667 %
1820 17-03-2020 00:00:00 12.02708 C 33.7847 %
1821 18-03-2020 00:00:00 9.92639 C 36.2153 %
1822 19-03-2020 00:00:00 12.58194 C 32.0417 %
1823 20-03-2020 00:00:00 10.52657 C 36.2308 %
1824 21-03-2020 00:00:00 5.89653 C 34.6597 %
1825 22-03-2020 00:00:00 4.30139 C 28.5278 %
Sensor: Nr:Datum:Temp:Feuchte:
Aussen-T/F 1826 23-03-2020 00:00:00 3.12292 C 27.0764 %
1827 24-03-2020 00:00:00 2.82431 C 27.8403 %
Sensor: Nr:Datum:Temp:Feuchte:
G-T/H 1 25-03-2015 00:00:00 9.2225 C 69.1417 %
2 26-03-2015 00:00:00 9.5325 C 66.7917 %
3 27-03-2015 00:00:00 9.40833 C 66.3167 %
4 28-03-2015 00:00:00 9.67333 C 66.9333 %
5 29-03-2015 00:00:00 10.45478 C 70.4000 %
6 30-03-2015 00:00:00 10.31083 C 65.2500 %
7 31-03-2015 00:00:00 10.28583 C 65.0833 %
8 01-04-2015 00:00:00 9.45 C 61.7417 %
9 02-04-2015 00:00:00 9.125 C 62.6750 %
10 03-04-2015 00:00:00 8.76583 C 61.2667 %
11 04-04-2015 00:00:00 9.31417 C 63.2083 %
12 05-04-2015 00:00:00 8.58 C 60.8000 %
13 06-04-2015 00:00:00 8.60833 C 62.3000 %
14 07-04-2015 00:00:00 8.61083 C 63.5750 %
15 08-04-2015 00:00:00 8.96 C 63.3167 %
16 09-04-2015 00:00:00 9.85667 C 66.9083 %
17 10-04-2015 00:00:00 10.805 C 67.4500 %
18 11-04-2015 00:00:00 11.43417 C 66.7167 %
19 12-04-2015 00:00:00 11.4575 C 66.6917 %
20 13-04-2015 00:00:00 11.5775 C 66.7250 %
21 14-04-2015 00:00:00 11.26333 C 65.1250 %
22 15-04-2015 00:00:00 12.2475 C 67.9333 %
23 16-04-2015 00:00:00 12.9 C 68.0667 %
24 17-04-2015 00:00:00 12.79333 C 64.6583 %
25 18-04-2015 00:00:00 11.38833 C 59.6667 %
Sensor: Nr:Datum:Temp:Feuchte:
G-T/H 26 19-04-2015 00:00:00 10.67417 C 60.6583 %
27 20-04-2015 00:00:00 10.87 C 59.7250 %
28 21-04-2015 00:00:00 13.19083 C 54.3833 %
29 22-04-2015 00:00:00 12.6975 C 58.9083 %
30 23-04-2015 00:00:00 11.73833 C 61.1250 %
31 24-04-2015 00:00:00 11.9775 C 62.2250 %
32 25-04-2015 00:00:00 12.93167 C 66.2667 %
33 26-04-2015 00:00:00 13.24583 C 68.6917 %
34 27-04-2015 00:00:00 13.34833 C 69.2000 %
35 28-04-2015 00:00:00 11.89083 C 64.3333 %
36 29-04-2015 00:00:00 11.16667 C 61.7083 %
37 30-04-2015 00:00:00 12.04333 C 65.8333 %
38 01-05-2015 00:00:00 11.29333 C 65.6917 %
39 02-05-2015 00:00:00 11.58667 C 59.4000 %
40 03-05-2015 00:00:00 12.69833 C 65.7750 %
41 04-05-2015 00:00:00 13.4175 C 68.9250 %
42 05-05-2015 00:00:00 14.60308 C 69.0000 %
43 06-05-2015 00:00:00 14.5625 C 64.7667 %
44 07-05-2015 00:00:00 13.93583 C 63.4917 %
45 08-05-2015 00:00:00 13.885 C 63.8667 %
46 09-05-2015 00:00:00 14.42583 C 67.1250 %
47 10-05-2015 00:00:00 14.335 C 68.0333 %
48 11-05-2015 00:00:00 14.62917 C 68.3000 %
49 12-05-2015 00:00:00 15.545 C 69.8000 %
50 13-05-2015 00:00:00 14.80917 C 61.9917 %
Sensor: Nr:Datum:Temp:Feuchte:
G-T/H 51 14-05-2015 00:00:00 14.8 C 64.8583 %
52 15-05-2015 00:00:00 14.81083 C 67.7083 %
53 16-05-2015 00:00:00 14.17583 C 64.5750 %
54 17-05-2015 00:00:00 14.19833 C 66.5000 %
55 18-05-2015 00:00:00 14.45917 C 65.1583 %
56 19-05-2015 00:00:00 14.70336 C 62.5882 %
57 20-05-2015 00:00:00 14.285 C 61.3583 %
58 21-05-2015 00:00:00 13.67167 C 60.8917 %
59 22-05-2015 00:00:00 14.2 C 62.6500 %
60 23-05-2015 00:00:00 15.09417 C 64.1833 %
61 24-05-2015 00:00:00 15.51167 C 66.0667 %
62 25-05-2015 00:00:00 15.44167 C 67.6833 %
63 26-05-2015 00:00:00 14.56583 C 64.3667 %
64 27-05-2015 00:00:00 13.92167 C 61.9000 %
65 28-05-2015 00:00:00 14.09667 C 63.4417 %
66 29-05-2015 00:00:00 14.41083 C 66.2083 %
67 30-05-2015 00:00:00 14.2725 C 64.4167 %
68 31-05-2015 00:00:00 13.905 C 62.9500 %
69 01-06-2015 00:00:00 15 C 67.3083 %
70 02-06-2015 00:00:00 15.0325 C 66.7583 %
71 03-06-2015 00:00:00 15.72083 C 67.7250 %
72 04-06-2015 00:00:00 16.01917 C 67.6000 %
73 05-06-2015 00:00:00 17.0325 C 68.6917 %
74 06-06-2015 00:00:00 18.33167 C 69.6917 %
75 07-06-2015 00:00:00 17.33583 C 63.9667 %
Sensor: Nr:Datum:Temp:Feuchte:
G-T/H 76 08-06-2015 00:00:00 16.80667 C 62.2833 %
77 09-06-2015 00:00:00 16.3075 C 60.2500 %
78 10-06-2015 00:00:00 15.97333 C 63.2417 %
79 11-06-2015 00:00:00 17.04083 C 65.1750 %
80 12-06-2015 00:00:00 17.6475 C 66.8667 %
81 13-06-2015 00:00:00 17.74417 C 69.4250 %
82 14-06-2015 00:00:00 17.46333 C 68.0500 %
83 15-06-2015 00:00:00 17.66333 C 67.1417 %
84 16-06-2015 00:00:00 17.08667 C 62.2083 %
85 17-06-2015 00:00:00 16.53083 C 59.9583 %
86 18-06-2015 00:00:00 16.97917 C 64.2333 %
87 19-06-2015 00:00:00 16.2025 C 63.4083 %
88 20-06-2015 00:00:00 15.62667 C 66.2917 %
89 21-06-2015 00:00:00 15.70413 C 68.0579 %
90 22-06-2015 00:00:00 15.6825 C 68.9417 %
91 23-06-2015 00:00:00 14.70917 C 69.2083 %
92 24-06-2015 00:00:00 14.74417 C 70.1583 %
93 25-06-2015 00:00:00 15.75583 C 70.2250 %
94 26-06-2015 00:00:00 16.96 C 70.9417 %
95 27-06-2015 00:00:00 18.00603 C 70.2500 %
96 28-06-2015 00:00:00 17.55833 C 67.8250 %
97 29-06-2015 00:00:00 18.61083 C 67.1667 %
98 30-06-2015 00:00:00 18.97333 C 65.3917 %
99 01-07-2015 00:00:00 19.56417 C 65.4833 %
100 02-07-2015 00:00:00 20.71917 C 67.3083 %
Sensor: Nr:Datum:Temp:Feuchte:
G-T/H 101 03-07-2015 00:00:00 22.09333 C 67.5333 %
102 04-07-2015 00:00:00 23.02333 C 66.0667 %
103 05-07-2015 00:00:00 23.00667 C 66.4583 %
104 06-07-2015 00:00:00 21.73583 C 63.1500 %
105 07-07-2015 00:00:00 20.9225 C 64.1583 %
106 08-07-2015 00:00:00 20.17417 C 62.1917 %
107 09-07-2015 00:00:00 18.86667 C 60.0250 %
108 10-07-2015 00:00:00 18.11167 C 57.7167 %
109 11-07-2015 00:00:00 20.0325 C 52.9917 %
110 12-07-2015 00:00:00 19.95167 C 59.6083 %
111 13-07-2015 00:00:00 18.8825 C 64.7917 %
112 14-07-2015 00:00:00 18.82833 C 67.3417 %
113 15-07-2015 00:00:00 20.49667 C 63.8917 %
114 16-07-2015 00:00:00 20.81917 C 66.0000 %
115 17-07-2015 00:00:00 23.54583 C 55.9833 %
116 18-07-2015 00:00:00 22.705 C 60.1667 %
117 19-07-2015 00:00:00 21.30417 C 63.4167 %
118 20-07-2015 00:00:00 21.16667 C 70.0917 %
119 21-07-2015 00:00:00 22.84 C 66.7833 %
120 22-07-2015 00:00:00 23.2075 C 64.8667 %
121 23-07-2015 00:00:00 22.08917 C 55.4167 %
122 24-07-2015 00:00:00 21.55833 C 57.6333 %
123 25-07-2015 00:00:00 20.4825 C 59.9167 %
124 26-07-2015 00:00:00 18.76387 C 59.6723 %
125 27-07-2015 00:00:00 18.50833 C 64.7833 %
Sensor: Nr:Datum:Temp:Feuchte:
G-T/H 126 28-07-2015 00:00:00 18.6175 C 55.4750 %
127 29-07-2015 00:00:00 18.64917 C 50.9833 %
128 30-07-2015 00:00:00 17.90333 C 55.0083 %
129 31-07-2015 00:00:00 17.51667 C 56.3750 %
130 01-08-2015 00:00:00 17.9775 C 60.4250 %
131 02-08-2015 00:00:00 19.4225 C 58.7000 %
132 03-08-2015 00:00:00 20.1325 C 58.5833 %
133 04-08-2015 00:00:00 20.325 C 61.9083 %
134 05-08-2015 00:00:00 19.47833 C 64.3583 %
135 06-08-2015 00:00:00 20.25917 C 64.3583 %
136 07-08-2015 00:00:00 21.64083 C 65.0917 %
137 08-08-2015 00:00:00 22.08917 C 67.8167 %
138 09-08-2015 00:00:00 21.58083 C 67.9583 %
139 10-08-2015 00:00:00 21.44333 C 67.1417 %
140 11-08-2015 00:00:00 20.96333 C 67.0833 %
141 12-08-2015 00:00:00 21.32417 C 68.4000 %
142 13-08-2015 00:00:00 21.7175 C 68.6917 %
143 14-08-2015 00:00:00 22.36583 C 68.3750 %
144 15-08-2015 00:00:00 21.69333 C 66.6833 %
145 16-08-2015 00:00:00 20.2775 C 67.3583 %
146 17-08-2015 00:00:00 18.54417 C 68.6917 %
147 18-08-2015 00:00:00 18.02417 C 65.2417 %
148 19-08-2015 00:00:00 17.90417 C 60.9667 %
149 20-08-2015 00:00:00 19.13083 C 58.4750 %
150 21-08-2015 00:00:00 19.29417 C 60.4167 %
Sensor: Nr:Datum:Temp:Feuchte:
G-T/H 151 22-08-2015 00:00:00 18.915 C 60.9667 %
152 23-08-2015 00:00:00 18.9 C 61.1250 %
153 24-08-2015 00:00:00 19.19083 C 65.2833 %
154 25-08-2015 00:00:00 18.72667 C 64.5750 %
155 26-08-2015 00:00:00 18.58917 C 65.1833 %
156 27-08-2015 00:00:00 19.03083 C 67.3000 %
157 28-08-2015 00:00:00 18.38333 C 69.0250 %
158 29-08-2015 00:00:00 18.38417 C 70.4583 %
159 30-08-2015 00:00:00 19.39 C 72.3917 %
160 31-08-2015 00:00:00 20.6975 C 69.4083 %
161 01-09-2015 00:00:00 20.15 C 70.1583 %
162 02-09-2015 00:00:00 18.33167 C 68.7667 %
163 03-09-2015 00:00:00 17.54583 C 67.2417 %
164 04-09-2015 00:00:00 16.6275 C 64.0667 %
165 05-09-2015 00:00:00 14.8325 C 67.1583 %
166 06-09-2015 00:00:00 15.50833 C 66.5667 %
167 07-09-2015 00:00:00 15.67333 C 69.1250 %
168 08-09-2015 00:00:00 16.0075 C 71.3833 %
169 09-09-2015 00:00:00 16.68 C 65.9000 %
170 10-09-2015 00:00:00 15.92 C 64.2000 %
171 11-09-2015 00:00:00 15.59583 C 63.3917 %
172 12-09-2015 00:00:00 15.57 C 65.8583 %
173 13-09-2015 00:00:00 16.57667 C 71.0667 %
174 14-09-2015 00:00:00 16.69 C 71.9500 %
175 15-09-2015 00:00:00 15.7175 C 69.5500 %
Sensor: Nr:Datum:Temp:Feuchte:
G-T/H 176 16-09-2015 00:00:00 15.56417 C 72.2167 %
177 17-09-2015 00:00:00 15.93583 C 73.4417 %
178 18-09-2015 00:00:00 15.6125 C 73.4833 %
179 19-09-2015 00:00:00 15.85667 C 71.3750 %
180 20-09-2015 00:00:00 15.74917 C 72.2333 %
181 21-09-2015 00:00:00 15.62167 C 69.7583 %
182 22-09-2015 00:00:00 15.61417 C 71.9750 %
183 23-09-2015 00:00:00 14.74167 C 72.0667 %
184 24-09-2015 00:00:00 15.12083 C 72.9833 %
185 25-09-2015 00:00:00 15.3225 C 73.5083 %
186 26-09-2015 00:00:00 15.25667 C 72.2500 %
187 27-09-2015 00:00:00 14.47833 C 70.7250 %
188 28-09-2015 00:00:00 13.82083 C 63.8500 %
189 29-09-2015 00:00:00 13.9225 C 64.3833 %
190 30-09-2015 00:00:00 13.78667 C 63.5833 %
191 01-10-2015 00:00:00 12.79667 C 62.8583 %
192 02-10-2015 00:00:00 11.94833 C 64.4333 %
193 03-10-2015 00:00:00 12.395 C 70.0000 %
194 04-10-2015 00:00:00 13.28417 C 73.1000 %
195 05-10-2015 00:00:00 13.6925 C 73.3583 %
196 06-10-2015 00:00:00 14.75417 C 74.7000 %
197 07-10-2015 00:00:00 15.23833 C 74.9833 %
198 08-10-2015 00:00:00 15.18667 C 73.9750 %
199 09-10-2015 00:00:00 14.90167 C 74.2417 %
200 10-10-2015 00:00:00 14.54667 C 73.4250 %
Sensor: Nr:Datum:Temp:Feuchte:
G-T/H 201 11-10-2015 00:00:00 13.0525 C 61.8500 %
202 12-10-2015 00:00:00 11.29 C 60.7667 %
203 13-10-2015 00:00:00 10.26417 C 62.5750 %
204 14-10-2015 00:00:00 10.07 C 64.2000 %
205 15-10-2015 00:00:00 10.03 C 67.6500 %
206 16-10-2015 00:00:00 10.35583 C 70.7583 %
207 17-10-2015 00:00:00 10.84417 C 70.2250 %
208 18-10-2015 00:00:00 11.1475 C 71.3417 %
209 19-10-2015 00:00:00 11.18917 C 70.2667 %
210 20-10-2015 00:00:00 11.92083 C 73.4083 %
211 21-10-2015 00:00:00 12.1125 C 74.2667 %
212 22-10-2015 00:00:00 12.43083 C 74.8083 %
213 23-10-2015 00:00:00 12.8525 C 74.9750 %
214 24-10-2015 00:00:00 12.94083 C 73.2333 %
215 25-10-2015 00:00:00 12.9792 C 75.2880 %
216 26-10-2015 00:00:00 12.87083 C 74.4417 %
217 27-10-2015 00:00:00 11.90417 C 71.7000 %
218 28-10-2015 00:00:00 12.22417 C 74.5667 %
219 29-10-2015 00:00:00 12.4025 C 76.0083 %
220 30-10-2015 00:00:00 11.73667 C 72.8167 %
221 31-10-2015 00:00:00 11.19583 C 71.7583 %
222 01-11-2015 00:00:00 11.01 C 71.9750 %
223 02-11-2015 00:00:00 10.25583 C 69.3417 %
224 03-11-2015 00:00:00 9.9 C 70.3417 %
225 04-11-2015 00:00:00 10.06333 C 72.9667 %
Sensor: Nr:Datum:Temp:Feuchte:
G-T/H 226 05-11-2015 00:00:00 11.00667 C 76.0333 %
227 06-11-2015 00:00:00 12.04833 C 77.4500 %
228 07-11-2015 00:00:00 13.56417 C 78.3083 %
229 08-11-2015 00:00:00 13.79583 C 78.0000 %
230 09-11-2015 00:00:00 13.61583 C 78.0000 %
231 10-11-2015 00:00:00 13.80667 C 77.5667 %
232 11-11-2015 00:00:00 13.58 C 75.5167 %
233 12-11-2015 00:00:00 13.18583 C 76.2500 %
234 13-11-2015 00:00:00 12.58833 C 74.3167 %
235 14-11-2015 00:00:00 11.79167 C 70.2667 %
236 15-11-2015 00:00:00 12.18917 C 75.3083 %
237 16-11-2015 00:00:00 12.73 C 76.3750 %
238 17-11-2015 00:00:00 13.1775 C 77.0250 %
239 18-11-2015 00:00:00 13.73417 C 75.3917 %
240 19-11-2015 00:00:00 13.50583 C 75.1167 %
241 20-11-2015 00:00:00 12.18583 C 73.3667 %
242 21-11-2015 00:00:00 10.22417 C 66.4333 %
243 22-11-2015 00:00:00 8.77167 C 65.9583 %
244 23-11-2015 00:00:00 8.46833 C 67.1833 %
245 24-11-2015 00:00:00 8.06917 C 63.9917 %
246 25-11-2015 00:00:00 8.435 C 70.2917 %
247 26-11-2015 00:00:00 8.96833 C 72.8250 %
248 27-11-2015 00:00:00 8.3625 C 67.3417 %
249 28-11-2015 00:00:00 8.02333 C 67.4417 %
250 29-11-2015 00:00:00 8.965 C 72.4583 %
Sensor: Nr:Datum:Temp:Feuchte:
G-T/H 251 30-11-2015 00:00:00 10.345 C 74.4000 %
252 01-12-2015 00:00:00 11.16167 C 75.7250 %
253 02-12-2015 00:00:00 11.5875 C 75.8583 %
254 03-12-2015 00:00:00 11.085 C 72.3083 %
255 04-12-2015 00:00:00 10.09583 C 70.4250 %
256 05-12-2015 00:00:00 9.69167 C 72.4167 %
257 06-12-2015 00:00:00 9.48167 C 73.3917 %
258 07-12-2015 00:00:00 10.12083 C 75.0750 %
259 08-12-2015 00:00:00 9.17917 C 71.0417 %
260 09-12-2015 00:00:00 9.33333 C 74.2750 %
261 10-12-2015 00:00:00 8.84 C 70.2167 %
262 11-12-2015 00:00:00 8.05417 C 68.8833 %
263 12-12-2015 00:00:00 9.27583 C 74.2583 %
264 13-12-2015 00:00:00 10.04333 C 75.4167 %
265 14-12-2015 00:00:00 9.92917 C 75.1000 %
266 15-12-2015 00:00:00 8.91417 C 73.0167 %
267 16-12-2015 00:00:00 9.75667 C 76.1250 %
268 17-12-2015 00:00:00 11.36167 C 76.8583 %
269 18-12-2015 00:00:00 11.77417 C 77.0000 %
270 19-12-2015 00:00:00 12.04333 C 76.6167 %
271 20-12-2015 00:00:00 10.83917 C 74.4583 %
272 21-12-2015 00:00:00 10.93667 C 76.5083 %
273 22-12-2015 00:00:00 11.40833 C 76.6833 %
274 23-12-2015 00:00:00 11.51 C 76.4250 %
275 24-12-2015 00:00:00 10.82167 C 76.2250 %
Sensor: Nr:Datum:Temp:Feuchte:
G-T/H 276 25-12-2015 00:00:00 11.42167 C 77.0000 %
277 26-12-2015 00:00:00 11.68 C 77.0000 %
278 27-12-2015 00:00:00 10.6275 C 76.1250 %
279 28-12-2015 00:00:00 8.98083 C 70.9167 %
280 29-12-2015 00:00:00 7.58917 C 69.2083 %
281 30-12-2015 00:00:00 8.2025 C 73.7833 %
282 31-12-2015 00:00:00 8.56 C 74.3250 %
283 01-01-2016 00:00:00 8.00917 C 72.2667 %
284 02-01-2016 00:00:00 8.71833 C 74.2667 %
285 03-01-2016 00:00:00 8.725 C 75.2083 %
286 04-01-2016 00:00:00 8.69917 C 74.9333 %
287 05-01-2016 00:00:00 9.12417 C 76.0333 %
288 06-01-2016 00:00:00 9.33417 C 76.5000 %
289 07-01-2016 00:00:00 8.90667 C 74.1667 %
290 08-01-2016 00:00:00 7.98 C 70.4583 %
291 09-01-2016 00:00:00 6.60833 C 68.3250 %
292 10-01-2016 00:00:00 7.60084 C 74.0504 %
293 11-01-2016 00:00:00 8.1325 C 75.1500 %
294 12-01-2016 00:00:00 8.33667 C 75.0583 %
295 13-01-2016 00:00:00 8.1275 C 74.2917 %
296 14-01-2016 00:00:00 7.54667 C 70.0167 %
297 15-01-2016 00:00:00 7.395 C 71.2083 %
298 16-01-2016 00:00:00 6.98083 C 69.2833 %
299 17-01-2016 00:00:00 6.295 C 64.9750 %
300 18-01-2016 00:00:00 5.49917 C 64.8333 %
Sensor: Nr:Datum:Temp:Feuchte:
G-T/H 301 19-01-2016 00:00:00 4.78917 C 65.5000 %
302 20-01-2016 00:00:00 4.82833 C 66.9000 %
303 21-01-2016 00:00:00 5.51167 C 69.6167 %
304 22-01-2016 00:00:00 5.29667 C 68.5750 %
305 23-01-2016 00:00:00 5.67667 C 71.7167 %
306 24-01-2016 00:00:00 6.94167 C 74.3250 %
307 25-01-2016 00:00:00 8.14667 C 75.6833 %
308 26-01-2016 00:00:00 8.69 C 76.0750 %
309 27-01-2016 00:00:00 9.62167 C 75.4667 %
310 28-01-2016 00:00:00 9.90917 C 71.6667 %
311 29-01-2016 00:00:00 8.14667 C 68.8333 %
312 30-01-2016 00:00:00 9.08833 C 72.6167 %
313 31-01-2016 00:00:00 8.2675 C 70.5417 %
314 01-02-2016 00:00:00 9.75167 C 74.1417 %
315 02-02-2016 00:00:00 10.6475 C 74.2833 %
316 03-02-2016 00:00:00 9.35 C 67.8167 %
317 04-02-2016 00:00:00 8.42333 C 69.5417 %
318 05-02-2016 00:00:00 8.7975 C 72.7417 %
319 06-02-2016 00:00:00 9.6175 C 74.0000 %
320 07-02-2016 00:00:00 9.48833 C 73.2917 %
321 08-02-2016 00:00:00 9.44917 C 72.5417 %
322 09-02-2016 00:00:00 9.0575 C 70.2250 %
323 10-02-2016 00:00:00 8.62667 C 70.6833 %
324 11-02-2016 00:00:00 8.3975 C 71.5583 %
325 12-02-2016 00:00:00 7.87 C 67.5667 %
Sensor: Nr:Datum:Temp:Feuchte:
G-T/H 326 13-02-2016 00:00:00 7.18917 C 68.7583 %
327 14-02-2016 00:00:00 7.68417 C 72.7250 %
328 15-02-2016 00:00:00 7.525 C 70.2000 %
329 16-02-2016 00:00:00 6.49167 C 61.4583 %
330 17-02-2016 00:00:00 5.91083 C 64.0333 %
331 18-02-2016 00:00:00 6.93833 C 65.5917 %
332 19-02-2016 00:00:00 6.6725 C 64.0250 %
333 20-02-2016 00:00:00 6.87083 C 67.9667 %
334 21-02-2016 00:00:00 9.16417 C 72.3250 %
335 22-02-2016 00:00:00 10.13333 C 71.9167 %
336 23-02-2016 00:00:00 8.49917 C 67.6583 %
337 24-02-2016 00:00:00 7.5 C 68.0167 %
338 25-02-2016 00:00:00 6.74417 C 63.8250 %
339 26-02-2016 00:00:00 7.16167 C 63.9917 %
340 27-02-2016 00:00:00 7.0225 C 62.2167 %
341 28-02-2016 00:00:00 6.65833 C 63.3667 %
342 29-02-2016 00:00:00 7.045 C 60.9750 %
343 01-03-2016 00:00:00 6.78 C 60.8000 %
344 02-03-2016 00:00:00 7.31917 C 67.4500 %
345 03-03-2016 00:00:00 7.86333 C 68.0000 %
346 04-03-2016 00:00:00 7.1075 C 67.2583 %
347 05-03-2016 00:00:00 7.6825 C 73.4167 %
348 06-03-2016 00:00:00 7.565 C 70.6083 %
349 07-03-2016 00:00:00 7.475 C 71.4583 %
350 08-03-2016 00:00:00 6.84833 C 68.9583 %
Sensor: Nr:Datum:Temp:Feuchte:
G-T/H 351 09-03-2016 00:00:00 6.70833 C 65.5750 %
352 10-03-2016 00:00:00 6.68667 C 63.9583 %
353 11-03-2016 00:00:00 7.33667 C 67.2750 %
354 12-03-2016 00:00:00 7.66833 C 66.7333 %
355 13-03-2016 00:00:00 7.70417 C 66.4583 %
356 14-03-2016 00:00:00 7.42583 C 60.7917 %
357 15-03-2016 00:00:00 7.42583 C 63.4250 %
358 16-03-2016 00:00:00 7.295 C 63.0833 %
359 17-03-2016 00:00:00 6.89417 C 62.0000 %
360 18-03-2016 00:00:00 6.8975 C 63.3667 %
361 19-03-2016 00:00:00 7.8175 C 67.6500 %
362 20-03-2016 00:00:00 8.15083 C 68.6333 %
363 21-03-2016 00:00:00 8.68667 C 70.5417 %
364 22-03-2016 00:00:00 9.1375 C 70.2917 %
365 23-03-2016 00:00:00 9.6 C 70.4500 %
366 24-03-2016 00:00:00 9.6925 C 70.1333 %
367 25-03-2016 00:00:00 9.5625 C 71.4250 %
368 26-03-2016 00:00:00 9.97667 C 69.9250 %
369 27-03-2016 00:00:00 10.11913 C 70.8522 %
370 28-03-2016 00:00:00 9.8125 C 71.8083 %
371 29-03-2016 00:00:00 9.8175 C 71.2500 %
372 30-03-2016 00:00:00 10.3175 C 71.9583 %
373 31-03-2016 00:00:00 10.36417 C 72.2333 %
374 01-04-2016 00:00:00 9.36833 C 70.1750 %
375 02-04-2016 00:00:00 9.53083 C 70.8583 %
Sensor: Nr:Datum:Temp:Feuchte:
G-T/H 376 03-04-2016 00:00:00 11.37 C 71.6750 %
377 04-04-2016 00:00:00 12.26583 C 72.9083 %
378 05-04-2016 00:00:00 12.2875 C 73.0000 %
379 06-04-2016 00:00:00 11.68833 C 72.7250 %
380 07-04-2016 00:00:00 11.33 C 66.9500 %
381 08-04-2016 00:00:00 9.98417 C 63.2583 %
382 09-04-2016 00:00:00 10.4475 C 56.7917 %
383 10-04-2016 00:00:00 11.64167 C 62.6500 %
384 11-04-2016 00:00:00 12.65833 C 59.8833 %
385 12-04-2016 00:00:00 12.55833 C 64.0000 %
386 13-04-2016 00:00:00 11.98167 C 66.8667 %
387 14-04-2016 00:00:00 11.6325 C 68.1250 %
388 15-04-2016 00:00:00 12.27917 C 68.8667 %
389 16-04-2016 00:00:00 12.6725 C 69.5750 %
390 17-04-2016 00:00:00 12.02583 C 64.1750 %
391 18-04-2016 00:00:00 10.66333 C 60.4083 %
392 19-04-2016 00:00:00 10.79083 C 61.0333 %
393 20-04-2016 00:00:00 10.72417 C 60.2417 %
394 21-04-2016 00:00:00 11.09917 C 62.1167 %
395 22-04-2016 00:00:00 12.2725 C 64.0500 %
396 23-04-2016 00:00:00 12.21833 C 62.2583 %
397 24-04-2016 00:00:00 10.46833 C 58.8250 %
398 25-04-2016 00:00:00 9.705 C 62.8083 %
399 26-04-2016 00:00:00 9.39833 C 63.1083 %
400 27-04-2016 00:00:00 9.11583 C 62.9500 %
Sensor: Nr:Datum:Temp:Feuchte:
G-T/H 401 28-04-2016 00:00:00 9.37917 C 62.3333 %
402 29-04-2016 00:00:00 10.05167 C 61.3083 %
403 30-04-2016 00:00:00 10.66583 C 63.3250 %
404 01-05-2016 00:00:00 10.81833 C 66.3917 %
405 02-05-2016 00:00:00 11.39917 C 66.7083 %
406 03-05-2016 00:00:00 12.1925 C 66.1750 %
407 04-05-2016 00:00:00 11.66667 C 60.8083 %
408 05-05-2016 00:00:00 12.47917 C 58.2167 %
409 06-05-2016 00:00:00 13.25583 C 62.6333 %
410 07-05-2016 00:00:00 15.64667 C 58.6167 %
411 08-05-2016 00:00:00 16.73667 C 55.0000 %
412 09-05-2016 00:00:00 17.65083 C 55.0000 %
413 10-05-2016 00:00:00 16.9875 C 60.4583 %
414 11-05-2016 00:00:00 17.78917 C 59.5583 %
415 12-05-2016 00:00:00 18.00333 C 57.3333 %
416 13-05-2016 00:00:00 16.81833 C 62.8500 %
417 14-05-2016 00:00:00 15.055 C 60.3667 %
418 15-05-2016 00:00:00 13.6825 C 58.5667 %
419 16-05-2016 00:00:00 13.37833 C 57.1917 %
420 17-05-2016 00:00:00 14.11583 C 54.8500 %
421 18-05-2016 00:00:00 15.44083 C 56.8667 %
422 19-05-2016 00:00:00 15.42417 C 61.6833 %
423 20-05-2016 00:00:00 15.11917 C 63.5583 %
424 21-05-2016 00:00:00 17.11417 C 61.2417 %
425 22-05-2016 00:00:00 17.1375 C 63.3083 %
Sensor: Nr:Datum:Temp:Feuchte:
G-T/H 426 23-05-2016 00:00:00 16.6675 C 65.4333 %
427 24-05-2016 00:00:00 15.11083 C 66.7500 %
428 25-05-2016 00:00:00 14.5625 C 67.5333 %
429 26-05-2016 00:00:00 15.84083 C 64.6833 %
430 27-05-2016 00:00:00 16.43417 C 67.0667 %
431 28-05-2016 00:00:00 16.33333 C 69.2250 %
432 29-05-2016 00:00:00 16.47 C 70.2000 %
433 30-05-2016 00:00:00 16.7675 C 71.2917 %
434 31-05-2016 00:00:00 17.39032 C 69.3145 %
435 01-06-2016 00:00:00 16.90764 C 69.8090 %
436 02-06-2016 00:00:00 16.60486 C 71.1215 %
437 03-06-2016 00:00:00 16.82674 C 71.6979 %
438 04-06-2016 00:00:00 17.00764 C 72.5278 %
439 05-06-2016 00:00:00 17.47083 C 72.4375 %
440 06-06-2016 00:00:00 19.17188 C 71.5417 %
441 07-06-2016 00:00:00 19.49514 C 71.1979 %
442 08-06-2016 00:00:00 19.99896 C 67.3368 %
443 09-06-2016 00:00:00 19.07396 C 58.3681 %
444 10-06-2016 00:00:00 18.28403 C 60.7847 %
445 11-06-2016 00:00:00 18.9066 C 59.1458 %
446 12-06-2016 00:00:00 18.61424 C 63.5208 %
447 13-06-2016 00:00:00 17.83333 C 67.1563 %
448 14-06-2016 00:00:00 17.39931 C 68.4757 %
449 15-06-2016 00:00:00 17.24583 C 68.5903 %
450 16-06-2016 00:00:00 16.24236 C 71.1944 %
Sensor: Nr:Datum:Temp:Feuchte:
G-T/H 451 17-06-2016 00:00:00 16.34861 C 71.3090 %
452 18-06-2016 00:00:00 16.23056 C 71.5174 %
453 19-06-2016 00:00:00 16.85556 C 67.8368 %
454 20-06-2016 00:00:00 16.76798 C 58.9298 %
455 21-06-2016 00:00:00 18.16552 C 65.3017 %
456 22-06-2016 00:00:00 18.4725 C 69.0917 %
457 23-06-2016 00:00:00 19.365 C 71.3250 %
458 24-06-2016 00:00:00 20.41417 C 72.4667 %
459 25-06-2016 00:00:00 19.32667 C 72.2667 %
460 26-06-2016 00:00:00 17.69417 C 71.1667 %
461 27-06-2016 00:00:00 17.605 C 66.4750 %
462 28-06-2016 00:00:00 19.10167 C 64.6917 %
463 29-06-2016 00:00:00 19.85417 C 57.5417 %
464 30-06-2016 00:00:00 19.8875 C 60.6333 %
465 01-07-2016 00:00:00 20.32 C 62.7500 %
466 02-07-2016 00:00:00 19.3525 C 63.5667 %
467 03-07-2016 00:00:00 17.94167 C 64.7167 %
468 04-07-2016 00:00:00 18.07917 C 66.9333 %
469 05-07-2016 00:00:00 19.50833 C 65.1500 %
470 06-07-2016 00:00:00 18.59333 C 64.1000 %
471 07-07-2016 00:00:00 18.89 C 58.9500 %
472 08-07-2016 00:00:00 20.49583 C 59.9917 %
473 09-07-2016 00:00:00 20.265 C 63.4500 %
474 10-07-2016 00:00:00 20.23583 C 66.0667 %
475 11-07-2016 00:00:00 21.90583 C 60.9500 %
Sensor: Nr:Datum:Temp:Feuchte:
G-T/H 476 12-07-2016 00:00:00 21.28583 C 56.5333 %
477 13-07-2016 00:00:00 19.58583 C 61.2667 %
478 14-07-2016 00:00:00 18.12833 C 63.5000 %
479 15-07-2016 00:00:00 17.85833 C 64.4333 %
480 16-07-2016 00:00:00 17.93083 C 65.6917 %
481 17-07-2016 00:00:00 20.08 C 64.7667 %
482 18-07-2016 00:00:00 21.79667 C 59.9333 %
483 19-07-2016 00:00:00 22.34917 C 60.7583 %
484 20-07-2016 00:00:00 21.63333 C 64.3000 %
485 21-07-2016 00:00:00 21.57583 C 66.2500 %
486 22-07-2016 00:00:00 20.68417 C 68.0833 %
487 23-07-2016 00:00:00 20.68833 C 68.8750 %
488 24-07-2016 00:00:00 20.48333 C 69.4167 %
489 25-07-2016 00:00:00 20.91333 C 69.4000 %
490 26-07-2016 00:00:00 20.91083 C 69.4500 %
491 27-07-2016 00:00:00 20.35 C 69.0333 %
492 28-07-2016 00:00:00 20.44667 C 69.0333 %
493 29-07-2016 00:00:00 20.34167 C 68.9833 %
494 30-07-2016 00:00:00 20.43833 C 68.3250 %
495 31-07-2016 00:00:00 20.0325 C 68.5917 %
496 01-08-2016 00:00:00 19.39333 C 58.7417 %
497 02-08-2016 00:00:00 19.16833 C 63.6417 %
498 03-08-2016 00:00:00 18.67333 C 68.2083 %
499 04-08-2016 00:00:00 18.74667 C 70.3583 %
500 05-08-2016 00:00:00 18.29667 C 70.3333 %
Sensor: Nr:Datum:Temp:Feuchte:
G-T/H 501 06-08-2016 00:00:00 19.07417 C 69.3750 %
502 07-08-2016 00:00:00 19.03 C 69.0833 %
503 08-08-2016 00:00:00 20.345 C 62.8750 %
504 09-08-2016 00:00:00 19.3975 C 57.0333 %
505 10-08-2016 00:00:00 18.12167 C 59.1917 %
506 11-08-2016 00:00:00 16.77899 C 61.9748 %
507 12-08-2016 00:00:00 17.08917 C 67.0000 %
508 13-08-2016 00:00:00 18.70167 C 66.4667 %
509 14-08-2016 00:00:00 19.23583 C 66.2917 %
510 15-08-2016 00:00:00 19.80833 C 63.8583 %
511 16-08-2016 00:00:00 20.05583 C 57.9917 %
512 17-08-2016 00:00:00 19.5975 C 59.9500 %
513 18-08-2016 00:00:00 19.10667 C 62.0250 %
514 19-08-2016 00:00:00 19.285 C 65.6833 %
515 20-08-2016 00:00:00 19.33917 C 67.0167 %
516 21-08-2016 00:00:00 18.56083 C 67.8500 %
517 22-08-2016 00:00:00 18.2 C 68.1000 %
518 23-08-2016 00:00:00 18.51083 C 68.4750 %
519 24-08-2016 00:00:00 20.7375 C 63.8417 %
520 25-08-2016 00:00:00 21.7675 C 61.5667 %
521 26-08-2016 00:00:00 21.88833 C 64.2083 %
522 27-08-2016 00:00:00 21.44167 C 67.6000 %
523 28-08-2016 00:00:00 21.2675 C 68.1333 %
524 29-08-2016 00:00:00 20.725 C 67.0750 %
525 30-08-2016 00:00:00 19.75833 C 63.6083 %
Sensor: Nr:Datum:Temp:Feuchte:
G-T/H 526 31-08-2016 00:00:00 19.81833 C 59.3500 %
527 01-09-2016 00:00:00 20.415 C 61.3167 %
528 02-09-2016 00:00:00 20.5325 C 60.0417 %
529 03-09-2016 00:00:00 21.2775 C 58.3833 %
530 04-09-2016 00:00:00 20.23417 C 62.0333 %
531 05-09-2016 00:00:00 19.63 C 61.6750 %
532 06-09-2016 00:00:00 19.45667 C 59.8000 %
533 07-09-2016 00:00:00 17.9625 C 62.8833 %
534 08-09-2016 00:00:00 20.22417 C 62.2667 %
535 09-09-2016 00:00:00 20.395 C 59.8500 %
536 10-09-2016 00:00:00 19.37583 C 63.5083 %
537 11-09-2016 00:00:00 19.84167 C 61.8500 %
538 12-09-2016 00:00:00 19.2425 C 63.9750 %
539 13-09-2016 00:00:00 19.18917 C 67.2250 %
540 14-09-2016 00:00:00 19.21167 C 67.7167 %
541 15-09-2016 00:00:00 20.69 C 62.9250 %
542 16-09-2016 00:00:00 19.985 C 62.3917 %
543 17-09-2016 00:00:00 18.71583 C 62.1417 %
544 18-09-2016 00:00:00 18.4775 C 65.9583 %
545 19-09-2016 00:00:00 18.15833 C 63.7833 %
546 20-09-2016 00:00:00 17.68667 C 65.4583 %
547 21-09-2016 00:00:00 16.9825 C 64.3250 %
548 22-09-2016 00:00:00 16.06167 C 59.4417 %
549 23-09-2016 00:00:00 15.82583 C 65.3667 %
550 24-09-2016 00:00:00 15.64417 C 67.9583 %
Sensor: Nr:Datum:Temp:Feuchte:
G-T/H 551 25-09-2016 00:00:00 15.26917 C 68.1167 %
552 26-09-2016 00:00:00 16.33 C 68.2917 %
553 27-09-2016 00:00:00 15.98083 C 69.3167 %
554 28-09-2016 00:00:00 16.32 C 68.9750 %
555 29-09-2016 00:00:00 16.83 C 70.3417 %
556 30-09-2016 00:00:00 17.00583 C 70.6167 %
557 01-10-2016 00:00:00 16.32667 C 71.0000 %
558 02-10-2016 00:00:00 15.67333 C 71.6083 %
559 03-10-2016 00:00:00 15.18 C 72.4000 %
560 04-10-2016 00:00:00 14.88 C 72.3167 %
561 05-10-2016 00:00:00 12.96083 C 60.0750 %
562 06-10-2016 00:00:00 12.69583 C 64.3417 %
563 07-10-2016 00:00:00 13.35833 C 70.4250 %
564 08-10-2016 00:00:00 13.4975 C 71.5583 %
565 09-10-2016 00:00:00 13.15583 C 69.0833 %
566 10-10-2016 00:00:00 12.26667 C 65.6583 %
567 11-10-2016 00:00:00 12.15083 C 68.7417 %
568 12-10-2016 00:00:00 12.37167 C 69.5583 %
569 13-10-2016 00:00:00 11.78 C 63.9417 %
570 14-10-2016 00:00:00 12.04583 C 65.1000 %
571 15-10-2016 00:00:00 12.9775 C 69.8500 %
572 16-10-2016 00:00:00 12.80667 C 68.1833 %
573 17-10-2016 00:00:00 12.835 C 72.4250 %
574 18-10-2016 00:00:00 13.08 C 73.2750 %
575 19-10-2016 00:00:00 12.90917 C 72.6917 %
Sensor: Nr:Datum:Temp:Feuchte:
G-T/H 576 20-10-2016 00:00:00 12.49167 C 72.9250 %
577 21-10-2016 00:00:00 12.16917 C 72.9667 %
578 22-10-2016 00:00:00 11.97167 C 73.1167 %
579 23-10-2016 00:00:00 11.56167 C 71.1250 %
580 24-10-2016 00:00:00 11.85333 C 73.8167 %
581 25-10-2016 00:00:00 12.67417 C 75.2000 %
582 26-10-2016 00:00:00 12.92083 C 72.7667 %
583 27-10-2016 00:00:00 11.9975 C 70.7667 %
584 28-10-2016 00:00:00 12.79417 C 71.9083 %
585 29-10-2016 00:00:00 13.4925 C 73.2500 %
586 30-10-2016 00:00:00 12.6816 C 71.9200 %
587 31-10-2016 00:00:00 11.75083 C 70.0667 %
588 01-11-2016 00:00:00 11.04417 C 69.4750 %
589 02-11-2016 00:00:00 11.27917 C 71.5500 %
590 03-11-2016 00:00:00 10.86 C 69.9917 %
591 04-11-2016 00:00:00 10.0325 C 67.5750 %
592 05-11-2016 00:00:00 10.58917 C 71.7750 %
593 06-11-2016 00:00:00 10.1525 C 69.2083 %
594 07-11-2016 00:00:00 9.85 C 68.7833 %
595 08-11-2016 00:00:00 9.42417 C 66.2417 %
596 09-11-2016 00:00:00 8.82583 C 66.7333 %
597 10-11-2016 00:00:00 9.30167 C 70.3000 %
598 11-11-2016 00:00:00 9.65417 C 71.9000 %
599 12-11-2016 00:00:00 8.685 C 64.9333 %
600 13-11-2016 00:00:00 8.31083 C 64.6083 %
Sensor: Nr:Datum:Temp:Feuchte:
G-T/H 601 14-11-2016 00:00:00 7.62917 C 61.3083 %
602 15-11-2016 00:00:00 8.05833 C 68.3083 %
603 16-11-2016 00:00:00 9.605 C 73.2917 %
604 17-11-2016 00:00:00 10.72917 C 74.0000 %
605 18-11-2016 00:00:00 11.2175 C 72.3333 %
606 19-11-2016 00:00:00 9.86333 C 67.3833 %
607 20-11-2016 00:00:00 9.69583 C 70.2250 %
608 21-11-2016 00:00:00 10.8675 C 72.8417 %
609 22-11-2016 00:00:00 11.305 C 73.8750 %
610 23-11-2016 00:00:00 11.27583 C 74.1333 %
611 24-11-2016 00:00:00 11.035 C 74.8083 %
612 25-11-2016 00:00:00 10.7 C 72.8750 %
613 26-11-2016 00:00:00 10.5825 C 71.8333 %
614 27-11-2016 00:00:00 10.20167 C 70.9917 %
615 28-11-2016 00:00:00 8.60417 C 61.3417 %
616 29-11-2016 00:00:00 7.215 C 58.6917 %
617 30-11-2016 00:00:00 5.98167 C 59.2667 %
618 01-12-2016 00:00:00 3.9525 C 66.1500 %
619 02-12-2016 00:00:00 8.02083 C 70.3667 %
620 03-12-2016 00:00:00 7.42417 C 63.9833 %
621 04-12-2016 00:00:00 6.275 C 61.7083 %
622 05-12-2016 00:00:00 5.36667 C 64.7667 %
623 06-12-2016 00:00:00 4.82967 C 64.3626 %
624 07-12-2016 00:00:00 5.38252 C 68.3883 %
625 08-12-2016 00:00:00 5.9125 C 69.6000 %
Sensor: Nr:Datum:Temp:Feuchte:
G-T/H 626 09-12-2016 00:00:00 6.99833 C 71.6333 %
627 10-12-2016 00:00:00 7.755 C 72.6417 %
628 11-12-2016 00:00:00 8.39667 C 74.1583 %
629 12-12-2016 00:00:00 9.10083 C 74.1333 %
630 13-12-2016 00:00:00 8.56083 C 71.4833 %
631 14-12-2016 00:00:00 8.81583 C 74.0417 %
632 15-12-2016 00:00:00 9.39 C 74.3000 %
633 16-12-2016 00:00:00 9.12417 C 69.5333 %
634 17-12-2016 00:00:00 7.19138 C 66.8793 %
635 18-12-2016 00:00:00 6.47667 C 73.8167 %
636 19-12-2016 00:00:00 6.53917 C 69.9833 %
637 20-12-2016 00:00:00 7.37 C 63.5167 %
638 21-12-2016 00:00:00 6.99 C 64.7917 %
639 22-12-2016 00:00:00 7.68917 C 69.0917 %
640 23-12-2016 00:00:00 7.73917 C 71.5917 %
641 24-12-2016 00:00:00 8.2975 C 72.4083 %
642 25-12-2016 00:00:00 8.90417 C 73.3417 %
643 26-12-2016 00:00:00 9.52917 C 72.0250 %
644 27-12-2016 00:00:00 8.22333 C 68.1667 %
645 28-12-2016 00:00:00 8.0975 C 69.3167 %
646 29-12-2016 00:00:00 6.70583 C 61.8833 %
647 30-12-2016 00:00:00 5.99833 C 63.3083 %
648 31-12-2016 00:00:00 5.83083 C 62.2667 %
649 01-01-2017 00:00:00 5.44917 C 64.1833 %
650 02-01-2017 00:00:00 5.875 C 67.6500 %
Sensor: Nr:Datum:Temp:Feuchte:
G-T/H 651 03-01-2017 00:00:00 6.26833 C 69.1333 %
652 04-01-2017 00:00:00 6.87333 C 70.5333 %
653 05-01-2017 00:00:00 6.42167 C 64.7417 %
654 06-01-2017 00:00:00 5.2175 C 62.1250 %
655 07-01-2017 00:00:00 5.225 C 61.2333 %
656 08-01-2017 00:00:00 5.37083 C 67.6667 %
657 09-01-2017 00:00:00 5.805 C 70.2583 %
658 10-01-2017 00:00:00 6.215 C 69.9833 %
659 11-01-2017 00:00:00 6.85417 C 73.1167 %
660 12-01-2017 00:00:00 7.36667 C 72.3333 %
661 13-01-2017 00:00:00 7.38917 C 68.9917 %
662 14-01-2017 00:00:00 6.96667 C 66.6000 %
663 15-01-2017 00:00:00 6.63083 C 66.1917 %
664 16-01-2017 00:00:00 5.80917 C 64.9167 %
665 17-01-2017 00:00:00 5.4625 C 65.3000 %
666 18-01-2017 00:00:00 5.16083 C 63.5417 %
667 19-01-2017 00:00:00 4.74667 C 62.7667 %
668 20-01-2017 00:00:00 4.44583 C 61.4250 %
669 21-01-2017 00:00:00 4.46917 C 61.4667 %
670 22-01-2017 00:00:00 6.90667 C 56.2500 %
671 23-01-2017 00:00:00 4.80167 C 59.9750 %
672 24-01-2017 00:00:00 4.74333 C 66.7000 %
673 25-01-2017 00:00:00 5.13697 C 66.5546 %
674 26-01-2017 00:00:00 4.95 C 66.4333 %
675 27-01-2017 00:00:00 4.87667 C 64.0167 %
Sensor: Nr:Datum:Temp:Feuchte:
G-T/H 676 28-01-2017 00:00:00 4.965 C 64.2417 %
677 29-01-2017 00:00:00 5.46167 C 67.2750 %
678 30-01-2017 00:00:00 6.3575 C 70.0750 %
679 31-01-2017 00:00:00 7.135 C 70.9417 %
680 01-02-2017 00:00:00 7.0975 C 69.4500 %
681 02-02-2017 00:00:00 7.63083 C 71.6000 %
682 03-02-2017 00:00:00 7.80583 C 71.7917 %
683 04-02-2017 00:00:00 7.86667 C 73.2833 %
684 05-02-2017 00:00:00 7.52167 C 72.1917 %
685 06-02-2017 00:00:00 7.44667 C 71.3500 %
686 07-02-2017 00:00:00 7.65917 C 69.1583 %
687 08-02-2017 00:00:00 7.745 C 67.0667 %
688 09-02-2017 00:00:00 6.61083 C 60.3750 %
689 10-02-2017 00:00:00 6.26583 C 62.6250 %
690 11-02-2017 00:00:00 6.50167 C 66.3417 %
691 12-02-2017 00:00:00 6.90333 C 69.8583 %
692 13-02-2017 00:00:00 6.77417 C 66.2250 %
693 14-02-2017 00:00:00 6.34667 C 63.3750 %
694 15-02-2017 00:00:00 6.06333 C 64.3167 %
695 16-02-2017 00:00:00 6.4425 C 67.4583 %
696 17-02-2017 00:00:00 7.16417 C 70.9167 %
697 18-02-2017 00:00:00 7.8825 C 71.6500 %
698 19-02-2017 00:00:00 6.91667 C 66.6917 %
699 20-02-2017 00:00:00 7.93417 C 71.2667 %
700 21-02-2017 00:00:00 9.10333 C 73.0000 %
Sensor: Nr:Datum:Temp:Feuchte:
G-T/H 701 22-02-2017 00:00:00 9.84667 C 73.5750 %
702 23-02-2017 00:00:00 10.02917 C 72.3500 %
703 24-02-2017 00:00:00 9.025 C 66.0583 %
704 25-02-2017 00:00:00 7.8125 C 64.1750 %
705 26-02-2017 00:00:00 8.2975 C 69.2667 %
706 27-02-2017 00:00:00 9.63917 C 70.5750 %
707 28-02-2017 00:00:00 9.33 C 66.9583 %
708 01-03-2017 00:00:00 8.60583 C 69.5417 %
709 02-03-2017 00:00:00 8.9175 C 65.6500 %
710 03-03-2017 00:00:00 8.58667 C 65.2583 %
711 04-03-2017 00:00:00 9.72083 C 67.1417 %
712 05-03-2017 00:00:00 9.9025 C 68.5167 %
713 06-03-2017 00:00:00 9.1775 C 69.4333 %
714 07-03-2017 00:00:00 8.97833 C 70.7333 %
715 08-03-2017 00:00:00 8.28333 C 70.1333 %
716 09-03-2017 00:00:00 9.54333 C 71.3083 %
717 10-03-2017 00:00:00 9.94 C 66.3417 %
718 11-03-2017 00:00:00 9.4 C 61.6667 %
719 12-03-2017 00:00:00 9.37083 C 56.6667 %
720 13-03-2017 00:00:00 9.06083 C 61.4333 %
721 14-03-2017 00:00:00 9.58917 C 65.5667 %
722 15-03-2017 00:00:00 10.38083 C 67.1833 %
723 16-03-2017 00:00:00 9.89833 C 64.6750 %
724 17-03-2017 00:00:00 9.92917 C 66.9833 %
725 18-03-2017 00:00:00 10.04833 C 66.3167 %
Sensor: Nr:Datum:Temp:Feuchte:
G-T/H 726 19-03-2017 00:00:00 10.80333 C 69.8417 %
727 20-03-2017 00:00:00 11.3975 C 70.0000 %
728 21-03-2017 00:00:00 11.28667 C 69.3000 %
729 22-03-2017 00:00:00 9.84 C 63.8000 %
730 23-03-2017 00:00:00 10.27083 C 66.0750 %
731 24-03-2017 00:00:00 10.7825 C 62.7500 %
732 25-03-2017 00:00:00 10.76167 C 57.7333 %
733 26-03-2017 00:00:00 10.54783 C 58.5826 %
734 27-03-2017 00:00:00 10.2775 C 50.5417 %
735 28-03-2017 00:00:00 11.49667 C 53.5167 %
736 29-03-2017 00:00:00 12.4025 C 60.0000 %
737 30-03-2017 00:00:00 13.8 C 58.8333 %
738 31-03-2017 00:00:00 13.9 C 55.5083 %
739 01-04-2017 00:00:00 13.5225 C 61.1333 %
740 02-04-2017 00:00:00 13.045 C 62.0500 %
741 03-04-2017 00:00:00 12.37917 C 61.7583 %
742 04-04-2017 00:00:00 11.70917 C 61.7250 %
743 05-04-2017 00:00:00 11.2225 C 60.3000 %
744 06-04-2017 00:00:00 11.25083 C 61.8833 %
745 07-04-2017 00:00:00 11.30833 C 61.5667 %
746 08-04-2017 00:00:00 12.10917 C 64.3167 %
747 09-04-2017 00:00:00 11.93083 C 63.3250 %
748 10-04-2017 00:00:00 12.2625 C 64.3417 %
749 11-04-2017 00:00:00 11.93333 C 61.3750 %
750 12-04-2017 00:00:00 11.73417 C 62.1250 %
Sensor: Nr:Datum:Temp:Feuchte:
G-T/H 751 13-04-2017 00:00:00 12.4775 C 62.8750 %
752 14-04-2017 00:00:00 12.10583 C 60.6583 %
753 15-04-2017 00:00:00 11.93917 C 62.9917 %
754 16-04-2017 00:00:00 11.1475 C 62.5750 %
755 17-04-2017 00:00:00 10.5075 C 62.2583 %
756 18-04-2017 00:00:00 9.84833 C 61.1750 %
757 19-04-2017 00:00:00 9.13917 C 59.2667 %
758 20-04-2017 00:00:00 8.37167 C 53.2417 %
759 21-04-2017 00:00:00 9.44167 C 57.5750 %
760 22-04-2017 00:00:00 10.7925 C 61.3833 %
761 23-04-2017 00:00:00 10.56417 C 59.6333 %
762 24-04-2017 00:00:00 10.66583 C 57.9750 %
763 25-04-2017 00:00:00 11.07395 C 57.7143 %
764 26-04-2017 00:00:00 10.9975 C 52.8000 %
765 27-04-2017 00:00:00 10.80167 C 55.5250 %
766 28-04-2017 00:00:00 9.695 C 54.5000 %
767 29-04-2017 00:00:00 10.51083 C 59.0833 %
768 30-04-2017 00:00:00 11.60583 C 55.6167 %
769 01-05-2017 00:00:00 12.7 C 56.0000 %
770 02-05-2017 00:00:00 11.525 C 63.9432 %
771 03-05-2017 00:00:00 11.48417 C 65.4750 %
772 04-05-2017 00:00:00 12.02333 C 66.8667 %
773 05-05-2017 00:00:00 12.46583 C 66.8917 %
774 06-05-2017 00:00:00 12.505 C 65.2333 %
775 07-05-2017 00:00:00 13.83043 C 67.2696 %
Sensor: Nr:Datum:Temp:Feuchte:
G-T/H 776 08-05-2017 00:00:00 12.83417 C 66.4333 %
777 09-05-2017 00:00:00 12.20583 C 62.3250 %
778 10-05-2017 00:00:00 12.52917 C 54.6833 %
779 11-05-2017 00:00:00 13.12917 C 60.2667 %
780 12-05-2017 00:00:00 14.3375 C 64.2333 %
781 13-05-2017 00:00:00 14.86667 C 65.6583 %
782 14-05-2017 00:00:00 15.34083 C 65.8667 %
783 15-05-2017 00:00:00 16.35667 C 54.4250 %
784 16-05-2017 00:00:00 18.42417 C 50.3083 %
785 17-05-2017 00:00:00 19.76083 C 51.8500 %
786 18-05-2017 00:00:00 18.36833 C 59.9083 %
787 19-05-2017 00:00:00 16.6075 C 64.9333 %
788 20-05-2017 00:00:00 14.935 C 64.1833 %
789 21-05-2017 00:00:00 15.3875 C 58.0667 %
790 22-05-2017 00:00:00 16.8975 C 56.7000 %
791 23-05-2017 00:00:00 17.30167 C 60.5667 %
792 24-05-2017 00:00:00 17.77333 C 59.5750 %
793 25-05-2017 00:00:00 17.38 C 63.0583 %
794 26-05-2017 00:00:00 18.09583 C 61.1583 %
795 27-05-2017 00:00:00 17.95583 C 63.3917 %
796 28-05-2017 00:00:00 18.6625 C 65.0333 %
797 29-05-2017 00:00:00 22.53667 C 59.7333 %
798 30-05-2017 00:00:00 22.135 C 60.5250 %
799 31-05-2017 00:00:00 19.19583 C 54.8917 %
800 01-06-2017 00:00:00 19.02333 C 60.4250 %
Sensor: Nr:Datum:Temp:Feuchte:
G-T/H 801 02-06-2017 00:00:00 19.42667 C 64.1667 %
802 03-06-2017 00:00:00 18.96167 C 68.0500 %
803 04-06-2017 00:00:00 18.245 C 68.2333 %
804 05-06-2017 00:00:00 17.78167 C 63.8583 %
805 06-06-2017 00:00:00 17.53167 C 62.7417 %
806 07-06-2017 00:00:00 16.31 C 63.1083 %
807 08-06-2017 00:00:00 17.10583 C 63.0167 %
808 09-06-2017 00:00:00 17.65833 C 65.4167 %
809 10-06-2017 00:00:00 17.03667 C 64.8083 %
810 11-06-2017 00:00:00 17.98917 C 66.8667 %
811 12-06-2017 00:00:00 20.2225 C 51.9750 %
812 13-06-2017 00:00:00 19.605 C 52.3167 %
813 14-06-2017 00:00:00 20.2375 C 52.8333 %
814 15-06-2017 00:00:00 22.41083 C 52.1917 %
815 16-06-2017 00:00:00 21.05417 C 50.7750 %
816 17-06-2017 00:00:00 19.55083 C 56.9583 %
817 18-06-2017 00:00:00 19.47917 C 61.1333 %
818 19-06-2017 00:00:00 21.37083 C 53.8417 %
819 20-06-2017 00:00:00 23.81417 C 48.4333 %
820 21-06-2017 00:00:00 23.19167 C 55.3333 %
821 22-06-2017 00:00:00 24.54167 C 57.7417 %
822 23-06-2017 00:00:00 23.06 C 57.7583 %
823 24-06-2017 00:00:00 22.64 C 51.3500 %
824 25-06-2017 00:00:00 21.49083 C 54.8583 %
825 26-06-2017 00:00:00 21.5775 C 55.2833 %
Sensor: Nr:Datum:Temp:Feuchte:
G-T/H 826 27-06-2017 00:00:00 20.69417 C 59.6083 %
827 28-06-2017 00:00:00 19.86 C 64.0167 %
828 29-06-2017 00:00:00 19.49417 C 65.1083 %
829 30-06-2017 00:00:00 19.17167 C 60.7667 %
830 01-07-2017 00:00:00 18.81833 C 64.2833 %
831 02-07-2017 00:00:00 18.1925 C 66.6917 %
832 03-07-2017 00:00:00 19.315 C 56.5417 %
833 04-07-2017 00:00:00 20.50083 C 54.7667 %
834 05-07-2017 00:00:00 21.10917 C 57.5583 %
835 06-07-2017 00:00:00 21.4425 C 61.7000 %
836 07-07-2017 00:00:00 21.30333 C 64.3833 %
837 08-07-2017 00:00:00 22.9425 C 56.5250 %
838 09-07-2017 00:00:00 22.685 C 59.5417 %
839 10-07-2017 00:00:00 21.98167 C 63.7417 %
840 11-07-2017 00:00:00 21.20417 C 60.4000 %
841 12-07-2017 00:00:00 20.39167 C 63.4250 %
842 13-07-2017 00:00:00 18.97917 C 57.3833 %
843 14-07-2017 00:00:00 18.96417 C 57.4250 %
844 15-07-2017 00:00:00 18.67083 C 60.6333 %
845 16-07-2017 00:00:00 19.535 C 63.6583 %
846 17-07-2017 00:00:00 19.89917 C 65.6333 %
847 18-07-2017 00:00:00 21.48667 C 62.7583 %
848 19-07-2017 00:00:00 23.825 C 58.2333 %
849 20-07-2017 00:00:00 22.49083 C 62.1083 %
850 21-07-2017 00:00:00 21.79917 C 56.1083 %
Sensor: Nr:Datum:Temp:Feuchte:
G-T/H 851 22-07-2017 00:00:00 22.77167 C 60.8833 %
852 23-07-2017 00:00:00 20.45167 C 59.6000 %
853 24-07-2017 00:00:00 19.83667 C 60.9500 %
854 25-07-2017 00:00:00 18.2725 C 64.9333 %
855 26-07-2017 00:00:00 17.95417 C 67.3667 %
856 27-07-2017 00:00:00 18.53667 C 68.7167 %
857 28-07-2017 00:00:00 18.61833 C 68.6833 %
858 29-07-2017 00:00:00 19.14917 C 68.9333 %
859 30-07-2017 00:00:00 20.87667 C 66.4833 %
860 31-07-2017 00:00:00 21.91167 C 61.1500 %
861 01-08-2017 00:00:00 20.985 C 66.8500 %
862 02-08-2017 00:00:00 21.5925 C 67.6250 %
863 03-08-2017 00:00:00 22.08 C 67.0000 %
864 04-08-2017 00:00:00 21.2975 C 66.9500 %
865 05-08-2017 00:00:00 21.27333 C 64.2583 %
866 06-08-2017 00:00:00 20.1425 C 61.5500 %
867 07-08-2017 00:00:00 19.51083 C 54.8250 %
868 08-08-2017 00:00:00 19.4725 C 62.0000 %
869 09-08-2017 00:00:00 19.2825 C 61.9750 %
870 10-08-2017 00:00:00 18.88083 C 65.6083 %
871 11-08-2017 00:00:00 17.85167 C 68.4083 %
872 12-08-2017 00:00:00 17.38667 C 69.6917 %
873 13-08-2017 00:00:00 17.925 C 70.8917 %
874 14-08-2017 00:00:00 19.18583 C 69.3417 %
875 15-08-2017 00:00:00 19.95167 C 75.4000 %
Sensor: Nr:Datum:Temp:Feuchte:
G-T/H 876 16-08-2017 00:00:00 20.395 C 70.4750 %
877 17-08-2017 00:00:00 20.77833 C 67.9583 %
878 18-08-2017 00:00:00 20.07417 C 69.9500 %
879 19-08-2017 00:00:00 18.63167 C 65.2583 %
880 20-08-2017 00:00:00 18.18833 C 65.5833 %
881 21-08-2017 00:00:00 18.33833 C 61.8250 %
882 22-08-2017 00:00:00 18.3375 C 62.2833 %
883 23-08-2017 00:00:00 19.39 C 63.6250 %
884 24-08-2017 00:00:00 19.39667 C 66.6750 %
885 25-08-2017 00:00:00 19.01417 C 68.4583 %
886 26-08-2017 00:00:00 19.33833 C 70.7917 %
887 27-08-2017 00:00:00 19.525 C 71.7250 %
888 28-08-2017 00:00:00 20.30583 C 68.8833 %
889 29-08-2017 00:00:00 21.09333 C 67.8833 %
890 30-08-2017 00:00:00 20.41167 C 70.1917 %
891 31-08-2017 00:00:00 19.86975 C 70.1176 %
892 01-09-2017 00:00:00 18.04083 C 64.9250 %
893 02-09-2017 00:00:00 17.755 C 68.6500 %
894 03-09-2017 00:00:00 16.90667 C 68.1250 %
895 04-09-2017 00:00:00 16.00917 C 69.3750 %
896 05-09-2017 00:00:00 18.28917 C 72.6000 %
897 06-09-2017 00:00:00 18.70833 C 64.8917 %
898 07-09-2017 00:00:00 17.72833 C 62.5167 %
899 08-09-2017 00:00:00 17.6225 C 64.3417 %
900 09-09-2017 00:00:00 17.3775 C 67.9250 %
Sensor: Nr:Datum:Temp:Feuchte:
G-T/H 901 10-09-2017 00:00:00 16.50417 C 66.3083 %
902 11-09-2017 00:00:00 16.29333 C 68.5500 %
903 12-09-2017 00:00:00 16.13083 C 70.5250 %
904 13-09-2017 00:00:00 15.99917 C 71.1667 %
905 14-09-2017 00:00:00 15.7775 C 71.3250 %
906 15-09-2017 00:00:00 15.14 C 71.7083 %
907 16-09-2017 00:00:00 14.15 C 67.6833 %
908 17-09-2017 00:00:00 14.06833 C 69.8750 %
909 18-09-2017 00:00:00 13.68417 C 70.3917 %
910 19-09-2017 00:00:00 14.2875 C 73.3667 %
911 20-09-2017 00:00:00 14.18167 C 72.9250 %
912 21-09-2017 00:00:00 14.33333 C 68.9000 %
913 22-09-2017 00:00:00 14.20083 C 71.1333 %
914 23-09-2017 00:00:00 14.86583 C 71.6917 %
915 24-09-2017 00:00:00 13.5 C 74.4750 %
916 25-09-2017 00:00:00 14.49667 C 74.4000 %
917 26-09-2017 00:00:00 14.90833 C 74.1417 %
918 27-09-2017 00:00:00 15.24333 C 75.2000 %
919 28-09-2017 00:00:00 15.29833 C 75.7917 %
920 29-09-2017 00:00:00 16.4625 C 76.9750 %
921 30-09-2017 00:00:00 16.51167 C 76.8667 %
922 01-10-2017 00:00:00 15.07167 C 73.4917 %
923 02-10-2017 00:00:00 14.96167 C 75.8333 %
924 03-10-2017 00:00:00 15.05583 C 75.3167 %
925 04-10-2017 00:00:00 14.14417 C 72.4833 %
Sensor: Nr:Datum:Temp:Feuchte:
G-T/H 926 05-10-2017 00:00:00 14.39917 C 74.4417 %
927 06-10-2017 00:00:00 13.515 C 72.0000 %
928 07-10-2017 00:00:00 13.36583 C 74.1000 %
929 08-10-2017 00:00:00 13.59833 C 76.1167 %
930 09-10-2017 00:00:00 13.71417 C 76.4750 %
931 10-10-2017 00:00:00 14.10667 C 77.2250 %
932 11-10-2017 00:00:00 14.48833 C 77.7500 %
933 12-10-2017 00:00:00 14.45833 C 77.2083 %
934 13-10-2017 00:00:00 14.39417 C 77.1167 %
935 14-10-2017 00:00:00 14.55667 C 77.2000 %
936 15-10-2017 00:00:00 14.22167 C 77.1917 %
937 16-10-2017 00:00:00 14.72417 C 80.6250 %
938 17-10-2017 00:00:00 14.50583 C 80.0333 %
939 18-10-2017 00:00:00 14.23 C 79.1833 %
940 19-10-2017 00:00:00 13.8025 C 76.9750 %
941 20-10-2017 00:00:00 14.11261 C 77.8235 %
942 21-10-2017 00:00:00 13.58417 C 75.6250 %
943 22-10-2017 00:00:00 13.64333 C 74.5083 %
944 23-10-2017 00:00:00 13.15167 C 73.8667 %
945 24-10-2017 00:00:00 13.7125 C 77.3167 %
946 25-10-2017 00:00:00 14.60167 C 78.0000 %
947 26-10-2017 00:00:00 14.7325 C 78.0000 %
948 27-10-2017 00:00:00 14.395 C 76.2583 %
949 28-10-2017 00:00:00 13.38917 C 71.6000 %
950 29-10-2017 00:00:00 13.2736 C 70.4000 %
Sensor: Nr:Datum:Temp:Feuchte:
G-T/H 951 30-10-2017 00:00:00 11.94167 C 67.1167 %
952 31-10-2017 00:00:00 11.315 C 67.7083 %
953 01-11-2017 00:00:00 11.75833 C 71.3750 %
954 02-11-2017 00:00:00 11.43667 C 71.0500 %
955 03-11-2017 00:00:00 11.36333 C 71.6167 %
956 04-11-2017 00:00:00 11.05083 C 71.6417 %
957 05-11-2017 00:00:00 11.7925 C 73.8417 %
958 06-11-2017 00:00:00 10.80417 C 68.9083 %
959 07-11-2017 00:00:00 10.16167 C 68.1500 %
960 08-11-2017 00:00:00 10.51583 C 72.8417 %
961 09-11-2017 00:00:00 10.89833 C 74.4833 %
962 10-11-2017 00:00:00 10.70833 C 72.4333 %
963 11-11-2017 00:00:00 10.25917 C 71.3500 %
964 12-11-2017 00:00:00 9.99417 C 71.9333 %
965 13-11-2017 00:00:00 9.82667 C 72.4833 %
966 14-11-2017 00:00:00 9.44833 C 71.5833 %
967 15-11-2017 00:00:00 9.78417 C 73.4833 %
968 16-11-2017 00:00:00 9.8675 C 71.0000 %
969 17-11-2017 00:00:00 10.21917 C 72.6917 %
970 18-11-2017 00:00:00 8.93333 C 68.2833 %
971 19-11-2017 00:00:00 9.44917 C 70.7667 %
972 20-11-2017 00:00:00 9.4175 C 70.1500 %
973 21-11-2017 00:00:00 10.07833 C 73.5833 %
974 22-11-2017 00:00:00 10.72 C 73.9917 %
975 23-11-2017 00:00:00 10.0175 C 71.3000 %
Sensor: Nr:Datum:Temp:Feuchte:
G-T/H 976 24-11-2017 00:00:00 11.32583 C 75.4750 %
977 25-11-2017 00:00:00 10.815 C 70.9083 %
978 26-11-2017 00:00:00 9.25 C 65.7167 %
979 27-11-2017 00:00:00 9.09917 C 68.4083 %
980 28-11-2017 00:00:00 9.38167 C 70.0917 %
981 29-11-2017 00:00:00 8.70583 C 68.4167 %
982 30-11-2017 00:00:00 8.38083 C 67.8167 %
983 01-12-2017 00:00:00 7.8275 C 66.9750 %
984 02-12-2017 00:00:00 6.8025 C 64.3667 %
985 03-12-2017 00:00:00 7.2 C 63.1583 %
986 04-12-2017 00:00:00 7.5275 C 69.7417 %
987 05-12-2017 00:00:00 8.31833 C 73.2750 %
988 06-12-2017 00:00:00 8.98333 C 73.6833 %
989 07-12-2017 00:00:00 8.76667 C 67.2083 %
990 08-12-2017 00:00:00 8.66917 C 66.2417 %
991 09-12-2017 00:00:00 7.4925 C 59.9167 %
992 10-12-2017 00:00:00 7.18333 C 64.1750 %
993 11-12-2017 00:00:00 7.94417 C 72.5667 %
994 12-12-2017 00:00:00 8.19083 C 68.4083 %
995 13-12-2017 00:00:00 7.93917 C 67.1333 %
996 14-12-2017 00:00:00 7.92667 C 69.1000 %
997 15-12-2017 00:00:00 7.94167 C 70.5000 %
998 16-12-2017 00:00:00 7.925 C 71.0833 %
999 17-12-2017 00:00:00 7.8375 C 69.7667 %
1000 18-12-2017 00:00:00 7.10333 C 67.6500 %
Sensor: Nr:Datum:Temp:Feuchte:
G-T/H 1001 19-12-2017 00:00:00 7.60417 C 70.4667 %
1002 20-12-2017 00:00:00 8.29083 C 73.0000 %
1003 21-12-2017 00:00:00 9.43333 C 74.8833 %
1004 22-12-2017 00:00:00 10.32333 C 75.8833 %
1005 23-12-2017 00:00:00 10.45667 C 76.0750 %
1006 24-12-2017 00:00:00 10.61417 C 75.9000 %
1007 25-12-2017 00:00:00 10.30833 C 71.7667 %
1008 26-12-2017 00:00:00 9.0975 C 68.1083 %
1009 27-12-2017 00:00:00 8.905 C 71.4083 %
1010 28-12-2017 00:00:00 8.96167 C 70.6417 %
1011 29-12-2017 00:00:00 14.36852 C 70.8611 %
1012 30-12-2017 00:00:00 8.1925 C 73.4750 %
1013 31-12-2017 00:00:00 10.73 C 74.9167 %
1014 01-01-2018 00:00:00 10.91333 C 70.9167 %
1015 02-01-2018 00:00:00 9.93833 C 71.7000 %
1016 03-01-2018 00:00:00 9.98417 C 71.9333 %
1017 04-01-2018 00:00:00 9.81167 C 73.7667 %
1018 05-01-2018 00:00:00 10.06833 C 72.5333 %
1019 06-01-2018 00:00:00 9.95417 C 74.1667 %
1020 07-01-2018 00:00:00 9.5275 C 72.0083 %
1021 08-01-2018 00:00:00 8.9575 C 69.3000 %
1022 09-01-2018 00:00:00 8.81583 C 71.4583 %
1023 10-01-2018 00:00:00 9.03917 C 73.1917 %
1024 11-01-2018 00:00:00 9.4725 C 74.4333 %
1025 12-01-2018 00:00:00 9.7375 C 75.0000 %
Sensor: Nr:Datum:Temp:Feuchte:
G-T/H 1026 13-01-2018 00:00:00 9.48 C 71.6333 %
1027 14-01-2018 00:00:00 8.7325 C 64.1833 %
1028 15-01-2018 00:00:00 8.00083 C 65.2500 %
1029 16-01-2018 00:00:00 8.6025 C 70.4000 %
1030 17-01-2018 00:00:00 8.19 C 66.7833 %
1031 18-01-2018 00:00:00 8.2875 C 68.1000 %
1032 19-01-2018 00:00:00 8.47333 C 67.2417 %
1033 20-01-2018 00:00:00 7.515 C 67.7833 %
1034 21-01-2018 00:00:00 7.5275 C 70.9250 %
1035 22-01-2018 00:00:00 7.75 C 71.9417 %
1036 23-01-2018 00:00:00 8.69492 C 73.4661 %
1037 24-01-2018 00:00:00 9.75556 C 74.8120 %
1038 25-01-2018 00:00:00 10.6075 C 75.1917 %
1039 26-01-2018 00:00:00 10.3125 C 74.1917 %
1040 27-01-2018 00:00:00 9.54 C 72.2583 %
1041 28-01-2018 00:00:00 9.4625 C 73.1917 %
1042 29-01-2018 00:00:00 10.13833 C 74.2667 %
1043 30-01-2018 00:00:00 9.76167 C 71.3917 %
1044 31-01-2018 00:00:00 9.43 C 72.7083 %
1045 01-02-2018 00:00:00 8.55 C 67.8083 %
1046 02-02-2018 00:00:00 7.83917 C 68.3833 %
1047 03-02-2018 00:00:00 7.98992 C 68.2521 %
1048 04-02-2018 00:00:00 7.4 C 63.4333 %
1049 05-02-2018 00:00:00 6.47 C 60.2917 %
1050 06-02-2018 00:00:00 6.30833 C 61.8333 %
Sensor: Nr:Datum:Temp:Feuchte:
G-T/H 1051 07-02-2018 00:00:00 6.2075 C 63.0250 %
1052 08-02-2018 00:00:00 5.975 C 61.9833 %
1053 09-02-2018 00:00:00 5.43333 C 63.6917 %
1054 10-02-2018 00:00:00 6.105 C 66.3083 %
1055 11-02-2018 00:00:00 6.99167 C 66.3833 %
1056 12-02-2018 00:00:00 7.07833 C 64.5250 %
1057 13-02-2018 00:00:00 6.335 C 60.4167 %
1058 14-02-2018 00:00:00 5.87917 C 61.6500 %
1059 15-02-2018 00:00:00 5.88583 C 66.8833 %
1060 16-02-2018 00:00:00 6.29667 C 70.6750 %
1061 17-02-2018 00:00:00 6.07083 C 67.1000 %
1062 18-02-2018 00:00:00 5.89667 C 66.5500 %
1063 19-02-2018 00:00:00 5.89083 C 68.3167 %
1064 20-02-2018 00:00:00 6.01 C 66.1333 %
1065 21-02-2018 00:00:00 5.89083 C 63.8500 %
1066 22-02-2018 00:00:00 5.73333 C 61.2667 %
1067 23-02-2018 00:00:00 5.48583 C 60.5583 %
1068 24-02-2018 00:00:00 5.12583 C 59.3667 %
1069 25-02-2018 00:00:00 4.93667 C 56.8667 %
1070 26-02-2018 00:00:00 4.61167 C 55.2417 %
1071 27-02-2018 00:00:00 4.5275 C 52.9667 %
1072 28-02-2018 00:00:00 4.28667 C 51.9750 %
1073 01-03-2018 00:00:00 4.305 C 53.0333 %
1074 02-03-2018 00:00:00 4.77417 C 54.7917 %
1075 03-03-2018 00:00:00 5.21917 C 60.2833 %
Sensor: Nr:Datum:Temp:Feuchte:
G-T/H 1076 04-03-2018 00:00:00 6.01083 C 65.3000 %
1077 05-03-2018 00:00:00 7.26 C 67.7083 %
1078 06-03-2018 00:00:00 7.275 C 64.2583 %
1079 07-03-2018 00:00:00 8.05833 C 67.2083 %
1080 08-03-2018 00:00:00 8.30667 C 69.2500 %
1081 09-03-2018 00:00:00 8.13 C 70.0750 %
1082 10-03-2018 00:00:00 8.92167 C 72.5500 %
1083 11-03-2018 00:00:00 10.33 C 74.6417 %
1084 12-03-2018 00:00:00 10.33667 C 74.2417 %
1085 13-03-2018 00:00:00 10.06083 C 73.3417 %
1086 14-03-2018 00:00:00 9.31667 C 70.8667 %
1087 15-03-2018 00:00:00 8.67083 C 68.2833 %
1088 16-03-2018 00:00:00 9.4175 C 72.0250 %
1089 17-03-2018 00:00:00 8.13333 C 61.2417 %
1090 18-03-2018 00:00:00 6.64 C 57.5417 %
1091 19-03-2018 00:00:00 6.395 C 58.4417 %
1092 20-03-2018 00:00:00 6.19167 C 59.8333 %
1093 21-03-2018 00:00:00 6.24 C 61.0167 %
1094 22-03-2018 00:00:00 6.45333 C 62.8500 %
1095 23-03-2018 00:00:00 7.555 C 68.1250 %
1096 24-03-2018 00:00:00 7.95833 C 66.2333 %
1097 25-03-2018 00:00:00 7.42522 C 63.5130 %
1098 26-03-2018 00:00:00 8.47583 C 65.8417 %
1099 27-03-2018 00:00:00 8.32583 C 65.0083 %
1100 28-03-2018 00:00:00 9.05 C 70.1833 %
Sensor: Nr:Datum:Temp:Feuchte:
G-T/H 1101 29-03-2018 00:00:00 9.1875 C 67.9333 %
1102 30-03-2018 00:00:00 8.73083 C 65.5333 %
1103 31-03-2018 00:00:00 9.3075 C 68.4417 %
1104 01-04-2018 00:00:00 9.65917 C 69.4500 %
1105 02-04-2018 00:00:00 9.52333 C 68.1000 %
1106 03-04-2018 00:00:00 10.725 C 69.7000 %
1107 04-04-2018 00:00:00 11.48583 C 70.6333 %
1108 05-04-2018 00:00:00 10.94833 C 68.8000 %
1109 06-04-2018 00:00:00 9.26167 C 62.4833 %
1110 07-04-2018 00:00:00 10.58667 C 62.3917 %
1111 08-04-2018 00:00:00 13.47 C 59.0417 %
1112 09-04-2018 00:00:00 14.53917 C 57.1667 %
1113 10-04-2018 00:00:00 13.77667 C 63.5000 %
1114 11-04-2018 00:00:00 13.00917 C 66.6083 %
1115 12-04-2018 00:00:00 12.9425 C 66.9917 %
1116 13-04-2018 00:00:00 12.73333 C 67.2917 %
1117 14-04-2018 00:00:00 13.63417 C 61.7667 %
1118 15-04-2018 00:00:00 13.92167 C 65.0333 %
1119 16-04-2018 00:00:00 14.52167 C 62.0000 %
1120 17-04-2018 00:00:00 14.20333 C 61.1500 %
1121 18-04-2018 00:00:00 14.54417 C 62.2333 %
1122 19-04-2018 00:00:00 14.79583 C 62.5583 %
1123 20-04-2018 00:00:00 15.73333 C 61.3833 %
1124 21-04-2018 00:00:00 15.80333 C 63.5083 %
1125 22-04-2018 00:00:00 15.78333 C 66.2917 %
Sensor: Nr:Datum:Temp:Feuchte:
G-T/H 1126 23-04-2018 00:00:00 17.01667 C 62.7833 %
1127 24-04-2018 00:00:00 16.23833 C 56.5917 %
1128 25-04-2018 00:00:00 15.21833 C 62.0333 %
1129 26-04-2018 00:00:00 13.76 C 51.5583 %
1130 27-04-2018 00:00:00 13.61917 C 56.6250 %
1131 28-04-2018 00:00:00 13.9325 C 61.2917 %
1132 29-04-2018 00:00:00 14.02083 C 64.6000 %
1133 30-04-2018 00:00:00 14.6725 C 64.2917 %
1134 01-05-2018 00:00:00 13.36417 C 58.0083 %
1135 02-05-2018 00:00:00 13.24833 C 56.1500 %
1136 03-05-2018 00:00:00 13.77 C 57.8750 %
1137 04-05-2018 00:00:00 13.83917 C 58.3750 %
1138 05-05-2018 00:00:00 15.43167 C 55.9333 %
1139 06-05-2018 00:00:00 15.6825 C 57.6750 %
1140 07-05-2018 00:00:00 17.61 C 52.7917 %
1141 08-05-2018 00:00:00 18.74917 C 49.1583 %
1142 09-05-2018 00:00:00 17.61417 C 55.5167 %
1143 10-05-2018 00:00:00 16.74583 C 61.1667 %
1144 11-05-2018 00:00:00 15.555 C 63.3500 %
1145 12-05-2018 00:00:00 15.79083 C 63.9333 %
1146 13-05-2018 00:00:00 16.08833 C 66.4583 %
1147 14-05-2018 00:00:00 15.57667 C 68.2083 %
1148 15-05-2018 00:00:00 16.8825 C 59.6083 %
1149 16-05-2018 00:00:00 16.71333 C 63.0083 %
1150 17-05-2018 00:00:00 15.91 C 63.1083 %
Sensor: Nr:Datum:Temp:Feuchte:
G-T/H 1151 18-05-2018 00:00:00 15.1975 C 60.7083 %
1152 19-05-2018 00:00:00 15.0375 C 63.1750 %
1153 20-05-2018 00:00:00 15.13333 C 64.4667 %
1154 21-05-2018 00:00:00 16.85667 C 64.3167 %
1155 22-05-2018 00:00:00 17.2475 C 65.6333 %
1156 23-05-2018 00:00:00 16.85417 C 68.0583 %
1157 24-05-2018 00:00:00 16.56417 C 69.4500 %
1158 25-05-2018 00:00:00 17.3275 C 69.1583 %
1159 26-05-2018 00:00:00 18.92583 C 67.1167 %
1160 27-05-2018 00:00:00 18.99167 C 68.2750 %
1161 28-05-2018 00:00:00 18.94167 C 69.8667 %
1162 29-05-2018 00:00:00 19.4375 C 69.9667 %
1163 30-05-2018 00:00:00 19.22417 C 70.2750 %
1164 31-05-2018 00:00:00 19.74667 C 69.8500 %
1165 01-06-2018 00:00:00 19.70417 C 70.5583 %
1166 02-06-2018 00:00:00 19.1175 C 70.5000 %
1167 03-06-2018 00:00:00 19.86917 C 66.6000 %
1168 04-06-2018 00:00:00 21.16 C 62.4500 %
1169 05-06-2018 00:00:00 21.1225 C 62.2500 %
1170 06-06-2018 00:00:00 20.28167 C 64.7000 %
1171 07-06-2018 00:00:00 20.33167 C 66.7250 %
1172 08-06-2018 00:00:00 20.14167 C 68.3250 %
1173 09-06-2018 00:00:00 21.14508 C 68.4918 %
1174 10-06-2018 00:00:00 20.73583 C 69.4833 %
1175 11-06-2018 00:00:00 20.2075 C 70.2833 %
Sensor: Nr:Datum:Temp:Feuchte:
G-T/H 1176 12-06-2018 00:00:00 18.93333 C 70.9417 %
1177 13-06-2018 00:00:00 17.78333 C 67.8500 %
1178 14-06-2018 00:00:00 17.08167 C 65.6167 %
1179 15-06-2018 00:00:00 17.87667 C 69.7333 %
1180 16-06-2018 00:00:00 19.23167 C 66.0250 %
1181 17-06-2018 00:00:00 19.20917 C 66.1250 %
1182 18-06-2018 00:00:00 18.5725 C 66.5167 %
1183 19-06-2018 00:00:00 19.3025 C 68.1667 %
1184 20-06-2018 00:00:00 21.34417 C 62.6417 %
1185 21-06-2018 00:00:00 20.40083 C 61.7667 %
1186 22-06-2018 00:00:00 18.12583 C 59.1417 %
1187 23-06-2018 00:00:00 16.91917 C 60.9000 %
1188 24-06-2018 00:00:00 17.08583 C 64.6833 %
1189 25-06-2018 00:00:00 17.72833 C 66.0250 %
1190 26-06-2018 00:00:00 18.48917 C 62.1583 %
1191 27-06-2018 00:00:00 19.815 C 57.9000 %
1192 28-06-2018 00:00:00 20.73667 C 53.0667 %
1193 29-06-2018 00:00:00 22.01 C 53.8250 %
1194 30-06-2018 00:00:00 22.90917 C 48.2667 %
1195 01-07-2018 00:00:00 21.50833 C 49.2500 %
1196 02-07-2018 00:00:00 21.34083 C 43.1083 %
1197 03-07-2018 00:00:00 20.70167 C 49.9250 %
1198 04-07-2018 00:00:00 21.1075 C 60.3667 %
1199 05-07-2018 00:00:00 21.2225 C 66.7750 %
1200 06-07-2018 00:00:00 20.8225 C 63.6917 %
Sensor: Nr:Datum:Temp:Feuchte:
G-T/H 1201 07-07-2018 00:00:00 20.45126 C 62.5294 %
1202 08-07-2018 00:00:00 20.11833 C 59.9000 %
1203 09-07-2018 00:00:00 20.74917 C 55.1417 %
1204 10-07-2018 00:00:00 20.3825 C 58.3167 %
1205 11-07-2018 00:00:00 18.89583 C 62.6083 %
1206 12-07-2018 00:00:00 18.92167 C 65.2500 %
1207 13-07-2018 00:00:00 20.39417 C 62.1167 %
1208 14-07-2018 00:00:00 20.52583 C 63.2833 %
1209 15-07-2018 00:00:00 20.67417 C 63.4333 %
1210 16-07-2018 00:00:00 20.8475 C 63.2583 %
1211 17-07-2018 00:00:00 20.97167 C 63.0667 %
1212 18-07-2018 00:00:00 20.9325 C 59.6167 %
1213 19-07-2018 00:00:00 21.11667 C 54.9500 %
1214 20-07-2018 00:00:00 21.86917 C 52.9083 %
1215 21-07-2018 00:00:00 21.57333 C 58.8500 %
1216 22-07-2018 00:00:00 20.75417 C 62.4750 %
1217 23-07-2018 00:00:00 22.1575 C 57.9833 %
1218 24-07-2018 00:00:00 23.88 C 52.9250 %
1219 25-07-2018 00:00:00 24.83333 C 49.4917 %
1220 26-07-2018 00:00:00 25.99417 C 48.0750 %
1221 27-07-2018 00:00:00 25.445 C 46.9000 %
1222 28-07-2018 00:00:00 24.04917 C 55.1667 %
1223 29-07-2018 00:00:00 22.61667 C 58.5167 %
1224 30-07-2018 00:00:00 24.22583 C 54.8000 %
1225 31-07-2018 00:00:00 25.41833 C 51.8250 %
Sensor: Nr:Datum:Temp:Feuchte:
G-T/H 1226 01-08-2018 00:00:00 23.80667 C 61.0833 %
1227 02-08-2018 00:00:00 23.36417 C 62.3583 %
1228 03-08-2018 00:00:00 24.53167 C 58.5333 %
1229 04-08-2018 00:00:00 25.9125 C 50.5583 %
1230 05-08-2018 00:00:00 24.74417 C 53.5917 %
1231 06-08-2018 00:00:00 24.53333 C 49.9583 %
1232 07-08-2018 00:00:00 24.12667 C 54.2583 %
1233 08-08-2018 00:00:00 24.27667 C 57.4917 %
1234 09-08-2018 00:00:00 23.23333 C 60.5250 %
1235 10-08-2018 00:00:00 21.49417 C 54.0000 %
1236 11-08-2018 00:00:00 20.81667 C 56.0583 %
1237 12-08-2018 00:00:00 20.13 C 56.1333 %
1238 13-08-2018 00:00:00 20.07083 C 60.5667 %
1239 14-08-2018 00:00:00 19.80333 C 63.5000 %
1240 15-08-2018 00:00:00 19.82917 C 65.0667 %
1241 16-08-2018 00:00:00 19.9875 C 64.3500 %
1242 17-08-2018 00:00:00 20.46083 C 64.9583 %
1243 18-08-2018 00:00:00 19.96167 C 62.2667 %
1244 19-08-2018 00:00:00 19.83667 C 62.1667 %
1245 20-08-2018 00:00:00 21.2525 C 62.2667 %
1246 21-08-2018 00:00:00 21.17667 C 63.9333 %
1247 22-08-2018 00:00:00 21.1725 C 64.1750 %
1248 23-08-2018 00:00:00 21.47667 C 64.7000 %
1249 24-08-2018 00:00:00 21.1275 C 62.0417 %
1250 25-08-2018 00:00:00 19.5075 C 59.1667 %
Sensor: Nr:Datum:Temp:Feuchte:
G-T/H 1251 26-08-2018 00:00:00 18.22417 C 55.7083 %
1252 27-08-2018 00:00:00 18.48167 C 60.4500 %
1253 28-08-2018 00:00:00 18.53833 C 61.2250 %
1254 29-08-2018 00:00:00 18.56917 C 62.2417 %
1255 30-08-2018 00:00:00 18.82333 C 63.4833 %
1256 31-08-2018 00:00:00 18.3025 C 59.8750 %
1257 01-09-2018 00:00:00 17.4825 C 59.8917 %
1258 02-09-2018 00:00:00 16.9325 C 62.1583 %
1259 03-09-2018 00:00:00 18.13333 C 66.0000 %
1260 04-09-2018 00:00:00 19.61083 C 66.7083 %
1261 05-09-2018 00:00:00 19.59583 C 67.1750 %
1262 06-09-2018 00:00:00 19.38917 C 68.3667 %
1263 07-09-2018 00:00:00 18.6775 C 67.7917 %
1264 08-09-2018 00:00:00 17.10833 C 59.8333 %
1265 09-09-2018 00:00:00 17.1975 C 64.7667 %
1266 10-09-2018 00:00:00 18.47583 C 60.5250 %
1267 11-09-2018 00:00:00 19.45417 C 58.4917 %
1268 12-09-2018 00:00:00 18.84083 C 60.8833 %
1269 13-09-2018 00:00:00 18.58083 C 66.2167 %
1270 14-09-2018 00:00:00 18.04833 C 65.0000 %
1271 15-09-2018 00:00:00 17.66667 C 59.8833 %
1272 16-09-2018 00:00:00 16.83 C 61.8000 %
1273 17-09-2018 00:00:00 17.8475 C 57.0583 %
1274 18-09-2018 00:00:00 19.79417 C 56.2333 %
1275 19-09-2018 00:00:00 21.03083 C 58.0583 %
Sensor: Nr:Datum:Temp:Feuchte:
G-T/H 1276 20-09-2018 00:00:00 20.82 C 55.5500 %
1277 21-09-2018 00:00:00 19.29417 C 59.4833 %
1278 22-09-2018 00:00:00 17.24917 C 60.5250 %
1279 23-09-2018 00:00:00 16.50167 C 65.7500 %
1280 24-09-2018 00:00:00 15.14583 C 63.3167 %
1281 25-09-2018 00:00:00 13.7275 C 62.7333 %
1282 26-09-2018 00:00:00 13.02583 C 63.2917 %
1283 27-09-2018 00:00:00 13.0625 C 65.7333 %
1284 28-09-2018 00:00:00 13.53583 C 69.5083 %
1285 29-09-2018 00:00:00 12.62 C 64.5750 %
1286 30-09-2018 00:00:00 11.83417 C 63.4000 %
1287 01-10-2018 00:00:00 12.43167 C 68.0167 %
1288 02-10-2018 00:00:00 12.47917 C 67.0333 %
1289 03-10-2018 00:00:00 13.125 C 70.8750 %
1290 04-10-2018 00:00:00 12.85083 C 66.8417 %
1291 05-10-2018 00:00:00 13.175 C 68.1250 %
1292 06-10-2018 00:00:00 12.79833 C 73.9167 %
1293 07-10-2018 00:00:00 14.22167 C 74.0833 %
1294 08-10-2018 00:00:00 13.52083 C 69.3917 %
1295 09-10-2018 00:00:00 13.39083 C 72.8583 %
1296 10-10-2018 00:00:00 13.75333 C 75.3000 %
1297 11-10-2018 00:00:00 13.985 C 75.0167 %
1298 12-10-2018 00:00:00 14.54333 C 75.8417 %
1299 13-10-2018 00:00:00 15.69 C 72.6083 %
1300 14-10-2018 00:00:00 15.11667 C 72.1917 %
Sensor: Nr:Datum:Temp:Feuchte:
G-T/H 1301 15-10-2018 00:00:00 14.6725 C 73.1583 %
1302 16-10-2018 00:00:00 14.08333 C 72.8917 %
1303 17-10-2018 00:00:00 13.86667 C 73.4083 %
1304 18-10-2018 00:00:00 14.26083 C 74.7500 %
1305 19-10-2018 00:00:00 14.28333 C 73.2417 %
1306 20-10-2018 00:00:00 14.01833 C 72.8250 %
1307 21-10-2018 00:00:00 12.52583 C 67.5917 %
1308 22-10-2018 00:00:00 11.7575 C 67.8750 %
1309 23-10-2018 00:00:00 11.71417 C 69.2333 %
1310 24-10-2018 00:00:00 13.1175 C 73.3417 %
1311 25-10-2018 00:00:00 13.88083 C 73.4083 %
1312 26-10-2018 00:00:00 13.5375 C 68.0250 %
1313 27-10-2018 00:00:00 12.19667 C 65.8417 %
1314 28-10-2018 00:00:00 10.9176 C 62.4880 %
1315 29-10-2018 00:00:00 10.95583 C 65.6250 %
1316 30-10-2018 00:00:00 10.86333 C 67.5167 %
1317 31-10-2018 00:00:00 10.8775 C 68.4750 %
1318 01-11-2018 00:00:00 10.72083 C 69.2750 %
1319 02-11-2018 00:00:00 11.285 C 72.4667 %
1320 03-11-2018 00:00:00 10.44 C 67.0750 %
1321 04-11-2018 00:00:00 10.265 C 68.6167 %
1322 05-11-2018 00:00:00 11.60167 C 72.5750 %
1323 06-11-2018 00:00:00 11.5475 C 72.0167 %
1324 07-11-2018 00:00:00 11.24083 C 72.4083 %
1325 08-11-2018 00:00:00 11.87833 C 74.0333 %
Sensor: Nr:Datum:Temp:Feuchte:
G-T/H 1326 09-11-2018 00:00:00 11.62333 C 73.2750 %
1327 10-11-2018 00:00:00 12.22833 C 74.7000 %
1328 11-11-2018 00:00:00 12.73917 C 75.7833 %
1329 12-11-2018 00:00:00 13.255 C 75.6083 %
1330 13-11-2018 00:00:00 13.2975 C 75.3417 %
1331 14-11-2018 00:00:00 11.54667 C 70.8583 %
1332 15-11-2018 00:00:00 11.19417 C 71.8333 %
1333 16-11-2018 00:00:00 10.76833 C 68.8833 %
1334 17-11-2018 00:00:00 9.25167 C 68.0000 %
1335 18-11-2018 00:00:00 8.3775 C 68.4167 %
1336 19-11-2018 00:00:00 8.15 C 69.1333 %
1337 20-11-2018 00:00:00 8.56667 C 68.8833 %
1338 21-11-2018 00:00:00 8.45333 C 69.6833 %
1339 22-11-2018 00:00:00 8.65333 C 70.9083 %
1340 23-11-2018 00:00:00 7.69667 C 69.4917 %
1341 24-11-2018 00:00:00 8.0325 C 72.4750 %
1342 25-11-2018 00:00:00 9.05667 C 73.9333 %
1343 26-11-2018 00:00:00 9.6625 C 74.3250 %
1344 27-11-2018 00:00:00 9.61333 C 72.8000 %
1345 28-11-2018 00:00:00 8.91917 C 71.9583 %
1346 29-11-2018 00:00:00 9.26083 C 73.8000 %
1347 30-11-2018 00:00:00 9.63 C 74.7833 %
1348 01-12-2018 00:00:00 9.92417 C 74.6250 %
1349 02-12-2018 00:00:00 10.7275 C 75.6167 %
1350 03-12-2018 00:00:00 11.87333 C 76.5417 %
Sensor: Nr:Datum:Temp:Feuchte:
G-T/H 1351 04-12-2018 00:00:00 11.3275 C 72.0250 %
1352 05-12-2018 00:00:00 9.61933 C 69.0504 %
1353 06-12-2018 00:00:00 10.40583 C 72.9583 %
1354 07-12-2018 00:00:00 11.82917 C 74.0583 %
1355 08-12-2018 00:00:00 11.04667 C 70.6667 %
1356 09-12-2018 00:00:00 10.81167 C 72.8000 %
1357 10-12-2018 00:00:00 10.01083 C 71.3083 %
1358 11-12-2018 00:00:00 9.19083 C 71.8583 %
1359 12-12-2018 00:00:00 8.70667 C 72.1583 %
1360 13-12-2018 00:00:00 8.07083 C 70.1167 %
1361 14-12-2018 00:00:00 7.78 C 68.6583 %
1362 15-12-2018 00:00:00 7.575 C 68.1083 %
1363 16-12-2018 00:00:00 7.33667 C 67.4333 %
1364 17-12-2018 00:00:00 7.74583 C 71.2333 %
1365 18-12-2018 00:00:00 8.3475 C 72.4667 %
1366 19-12-2018 00:00:00 8.60083 C 72.9417 %
1367 20-12-2018 00:00:00 9.3175 C 74.0000 %
1368 21-12-2018 00:00:00 10.0375 C 74.8333 %
1369 22-12-2018 00:00:00 10.99417 C 74.3000 %
1370 23-12-2018 00:00:00 10.525 C 74.6917 %
1371 24-12-2018 00:00:00 10.26583 C 72.2917 %
1372 25-12-2018 00:00:00 8.6825 C 71.1167 %
1373 26-12-2018 00:00:00 7.58083 C 70.1333 %
1374 27-12-2018 00:00:00 6.98167 C 70.2333 %
1375 28-12-2018 00:00:00 6.8575 C 71.5833 %
Sensor: Nr:Datum:Temp:Feuchte:
G-T/H 1376 29-12-2018 00:00:00 7.085 C 72.4583 %
1377 30-12-2018 00:00:00 8.24 C 74.4417 %
1378 31-12-2018 00:00:00 9.18833 C 75.6083 %
1379 01-01-2019 00:00:00 9.65583 C 75.8167 %
1380 02-01-2019 00:00:00 8.91333 C 73.4000 %
1381 03-01-2019 00:00:00 7.65417 C 72.7000 %
1382 04-01-2019 00:00:00 7.72667 C 73.7750 %
1383 05-01-2019 00:00:00 8.26833 C 74.6083 %
1384 06-01-2019 00:00:00 8.8 C 75.9250 %
1385 07-01-2019 00:00:00 8.94 C 75.0167 %
1386 08-01-2019 00:00:00 9.01833 C 74.5417 %
1387 09-01-2019 00:00:00 8.46417 C 73.0417 %
1388 10-01-2019 00:00:00 7.90083 C 71.3750 %
1389 11-01-2019 00:00:00 7.57167 C 72.1167 %
1390 12-01-2019 00:00:00 8.24417 C 74.2500 %
1391 13-01-2019 00:00:00 8.91667 C 75.6333 %
1392 14-01-2019 00:00:00 9.11083 C 74.7417 %
1393 15-01-2019 00:00:00 8.33333 C 74.3833 %
1394 16-01-2019 00:00:00 8.5125 C 74.7083 %
1395 17-01-2019 00:00:00 8.4975 C 74.5500 %
1396 18-01-2019 00:00:00 7.79333 C 72.6583 %
1397 19-01-2019 00:00:00 6.99833 C 69.2000 %
1398 20-01-2019 00:00:00 6.61083 C 64.8583 %
1399 21-01-2019 00:00:00 6.18667 C 61.1750 %
1400 22-01-2019 00:00:00 6.04833 C 60.2083 %
Sensor: Nr:Datum:Temp:Feuchte:
G-T/H 1401 23-01-2019 00:00:00 6.2575 C 63.4917 %
1402 24-01-2019 00:00:00 6.30833 C 65.6583 %
1403 25-01-2019 00:00:00 6.2425 C 67.2833 %
1404 26-01-2019 00:00:00 6.51833 C 71.7083 %
1405 27-01-2019 00:00:00 7.75333 C 73.9667 %
1406 28-01-2019 00:00:00 7.77417 C 74.2417 %
1407 29-01-2019 00:00:00 7.46167 C 73.9917 %
1408 30-01-2019 00:00:00 6.65667 C 69.5667 %
1409 31-01-2019 00:00:00 6.54333 C 72.1667 %
1410 01-02-2019 00:00:00 6.475 C 73.4167 %
1411 02-02-2019 00:00:00 6.70083 C 74.6612 %
1412 03-02-2019 00:00:00 6.98667 C 74.3417 %
1413 04-02-2019 00:00:00 6.68333 C 73.8083 %
1414 05-02-2019 00:00:00 7.12 C 74.5083 %
1415 06-02-2019 00:00:00 6.9875 C 73.4333 %
1416 07-02-2019 00:00:00 7.0025 C 74.8750 %
1417 08-02-2019 00:00:00 7.93833 C 76.1083 %
1418 09-02-2019 00:00:00 8.85917 C 76.1583 %
1419 10-02-2019 00:00:00 9.2225 C 75.9667 %
1420 11-02-2019 00:00:00 8.8125 C 75.1083 %
1421 12-02-2019 00:00:00 8.09167 C 74.2167 %
1422 13-02-2019 00:00:00 7.47583 C 73.5000 %
1423 14-02-2019 00:00:00 6.95583 C 72.5083 %
1424 15-02-2019 00:00:00 6.6825 C 71.6250 %
1425 16-02-2019 00:00:00 6.53917 C 73.3083 %
Sensor: Nr:Datum:Temp:Feuchte:
G-T/H 1426 17-02-2019 00:00:00 6.63667 C 74.1417 %
1427 18-02-2019 00:00:00 6.65583 C 74.3000 %
1428 19-02-2019 00:00:00 7.19417 C 75.8083 %
1429 20-02-2019 00:00:00 7.495 C 75.5500 %
1430 21-02-2019 00:00:00 7.76167 C 75.7333 %
1431 22-02-2019 00:00:00 9.21417 C 77.2250 %
1432 23-02-2019 00:00:00 9.20583 C 74.8917 %
1433 24-02-2019 00:00:00 8.01917 C 72.1333 %
1434 25-02-2019 00:00:00 7.5975 C 71.6250 %
1435 26-02-2019 00:00:00 7.74083 C 71.5500 %
1436 27-02-2019 00:00:00 6.63667 C 68.6917 %
1437 28-02-2019 00:00:00 8.11917 C 73.1500 %
1438 01-03-2019 00:00:00 9.37083 C 74.7583 %
1439 02-03-2019 00:00:00 9.69333 C 72.8750 %
1440 03-03-2019 00:00:00 10.36917 C 73.5083 %
1441 04-03-2019 00:00:00 10.60917 C 73.1083 %
1442 05-03-2019 00:00:00 9.71 C 71.6083 %
1443 06-03-2019 00:00:00 9.71 C 73.4333 %
1444 07-03-2019 00:00:00 10.48417 C 73.6500 %
1445 08-03-2019 00:00:00 10.0575 C 72.7250 %
1446 09-03-2019 00:00:00 10.17167 C 73.4333 %
1447 10-03-2019 00:00:00 10.60917 C 71.4667 %
1448 11-03-2019 00:00:00 9.44833 C 67.3667 %
1449 12-03-2019 00:00:00 8.92417 C 70.4667 %
1450 13-03-2019 00:00:00 9.345 C 71.3250 %
Sensor: Nr:Datum:Temp:Feuchte:
G-T/H 1451 14-03-2019 00:00:00 9.13333 C 72.3750 %
1452 15-03-2019 00:00:00 10.055 C 74.0583 %
1453 16-03-2019 00:00:00 10.57417 C 72.1333 %
1454 17-03-2019 00:00:00 9.70583 C 61.2083 %
1455 18-03-2019 00:00:00 6.8675 C 62.4667 %
1456 19-03-2019 00:00:00 6.02333 C 59.7583 %
1457 20-03-2019 00:00:00 7.52333 C 64.5167 %
1458 21-03-2019 00:00:00 9.29167 C 60.4917 %
1459 22-03-2019 00:00:00 10.14833 C 61.3250 %
1460 23-03-2019 00:00:00 10.15917 C 64.7250 %
1461 24-03-2019 00:00:00 9.54833 C 67.2167 %
1462 25-03-2019 00:00:00 9.15583 C 67.9000 %
1463 26-03-2019 00:00:00 9.0525 C 69.7250 %
1464 27-03-2019 00:00:00 9.47917 C 69.9333 %
1465 28-03-2019 00:00:00 9.49583 C 69.9417 %
1466 29-03-2019 00:00:00 10.2825 C 66.2583 %
1467 30-03-2019 00:00:00 9.79667 C 60.6083 %
1468 31-03-2019 00:00:00 11.2313 C 64.9130 %
1469 01-04-2019 00:00:00 11.50333 C 60.3833 %
1470 02-04-2019 00:00:00 11.2875 C 63.6333 %
1471 03-04-2019 00:00:00 11.49833 C 67.0000 %
1472 04-04-2019 00:00:00 10.56333 C 67.8833 %
1473 05-04-2019 00:00:00 9.87333 C 68.5417 %
1474 06-04-2019 00:00:00 10.76333 C 69.0417 %
1475 07-04-2019 00:00:00 11.4925 C 68.0667 %
Sensor: Nr:Datum:Temp:Feuchte:
G-T/H 1476 08-04-2019 00:00:00 12.30917 C 70.6833 %
1477 09-04-2019 00:00:00 12.2875 C 74.7333 %
1478 10-04-2019 00:00:00 12.35917 C 56.9917 %
1479 11-04-2019 00:00:00 10.73083 C 48.4917 %
1480 12-04-2019 00:00:00 9.57417 C 46.6333 %
1481 13-04-2019 00:00:00 9.48583 C 55.2583 %
1482 14-04-2019 00:00:00 9.175 C 58.5167 %
1483 15-04-2019 00:00:00 10.07667 C 62.0833 %
1484 16-04-2019 00:00:00 11.07083 C 62.2083 %
1485 17-04-2019 00:00:00 12.33417 C 65.8333 %
1486 18-04-2019 00:00:00 13.09417 C 62.0833 %
1487 19-04-2019 00:00:00 14.9125 C 51.5500 %
1488 20-04-2019 00:00:00 15.6775 C 48.0417 %
1489 21-04-2019 00:00:00 16.29 C 47.3167 %
1490 22-04-2019 00:00:00 15.22333 C 52.2417 %
1491 23-04-2019 00:00:00 15.61417 C 53.2333 %
1492 24-04-2019 00:00:00 15.37833 C 59.4167 %
1493 25-04-2019 00:00:00 14.5575 C 61.5833 %
1494 26-04-2019 00:00:00 14.28667 C 64.1250 %
1495 27-04-2019 00:00:00 13.445 C 64.1833 %
1496 28-04-2019 00:00:00 12.45 C 64.1833 %
1497 29-04-2019 00:00:00 11.95083 C 63.4083 %
1498 30-04-2019 00:00:00 13.89833 C 57.8083 %
1499 01-05-2019 00:00:00 14.135 C 60.2833 %
1500 02-05-2019 00:00:00 13.82333 C 62.1750 %
Sensor: Nr:Datum:Temp:Feuchte:
G-T/H 1501 03-05-2019 00:00:00 13.86417 C 59.4750 %
1502 04-05-2019 00:00:00 12.72083 C 59.0083 %
1503 05-05-2019 00:00:00 11.31667 C 59.7917 %
1504 06-05-2019 00:00:00 11.38833 C 61.2833 %
1505 07-05-2019 00:00:00 11.88083 C 62.6250 %
1506 08-05-2019 00:00:00 11.97 C 62.9333 %
1507 09-05-2019 00:00:00 12.35167 C 66.7333 %
1508 10-05-2019 00:00:00 12.92101 C 67.6218 %
1509 11-05-2019 00:00:00 13.15833 C 68.0833 %
1510 12-05-2019 00:00:00 12.12833 C 64.0833 %
1511 13-05-2019 00:00:00 12.045 C 60.0000 %
1512 14-05-2019 00:00:00 12.31083 C 59.7417 %
1513 15-05-2019 00:00:00 12.7725 C 52.9833 %
1514 16-05-2019 00:00:00 13.015 C 56.6333 %
1515 17-05-2019 00:00:00 13.21917 C 63.1000 %
1516 18-05-2019 00:00:00 14.04667 C 66.4250 %
1517 19-05-2019 00:00:00 14.825 C 68.0750 %
1518 20-05-2019 00:00:00 14.84583 C 68.8000 %
1519 21-05-2019 00:00:00 14.15167 C 70.0167 %
1520 22-05-2019 00:00:00 13.71167 C 69.7583 %
1521 23-05-2019 00:00:00 15.29917 C 61.3750 %
1522 24-05-2019 00:00:00 17.54 C 55.6333 %
1523 25-05-2019 00:00:00 17.29083 C 56.6250 %
1524 26-05-2019 00:00:00 16.44583 C 60.8167 %
1525 27-05-2019 00:00:00 16.3925 C 64.3917 %
Sensor: Nr:Datum:Temp:Feuchte:
G-T/H 1526 28-05-2019 00:00:00 15.71583 C 66.5333 %
1527 29-05-2019 00:00:00 16.0475 C 54.4250 %
1528 30-05-2019 00:00:00 15.75417 C 61.4167 %
1529 31-05-2019 00:00:00 17.74167 C 65.2667 %
1530 01-06-2019 00:00:00 18.025 C 65.0750 %
1531 02-06-2019 00:00:00 18.60667 C 66.0917 %
1532 03-06-2019 00:00:00 19.92333 C 65.8667 %
1533 04-06-2019 00:00:00 19.69667 C 66.1500 %
1534 05-06-2019 00:00:00 20.025 C 66.6917 %
1535 06-06-2019 00:00:00 19.2775 C 64.1917 %
1536 07-06-2019 00:00:00 17.86583 C 60.1250 %
1537 08-06-2019 00:00:00 17.565 C 60.2333 %
1538 09-06-2019 00:00:00 16.99667 C 61.5667 %
1539 10-06-2019 00:00:00 17.96333 C 64.8583 %
1540 11-06-2019 00:00:00 18.18333 C 66.3917 %
1541 12-06-2019 00:00:00 17.70333 C 67.3917 %
1542 13-06-2019 00:00:00 17.89167 C 58.1667 %
1543 14-06-2019 00:00:00 19.59083 C 60.6083 %
1544 15-06-2019 00:00:00 19.6625 C 64.9917 %
1545 16-06-2019 00:00:00 19.56917 C 62.4417 %
1546 17-06-2019 00:00:00 19.01167 C 62.8417 %
1547 18-06-2019 00:00:00 21.23667 C 58.9250 %
1548 19-06-2019 00:00:00 21.53167 C 61.1000 %
1549 20-06-2019 00:00:00 20.7375 C 63.5667 %
1550 21-06-2019 00:00:00 20.53083 C 52.5000 %
Sensor: Nr:Datum:Temp:Feuchte:
G-T/H 1551 22-06-2019 00:00:00 20.16917 C 54.8083 %
1552 23-06-2019 00:00:00 21.31917 C 57.1667 %
1553 24-06-2019 00:00:00 23.94167 C 55.3000 %
1554 25-06-2019 00:00:00 23.93083 C 58.5083 %
1555 26-06-2019 00:00:00 24.37417 C 62.9417 %
1556 27-06-2019 00:00:00 23.60667 C 60.8333 %
1557 28-06-2019 00:00:00 22.21417 C 58.6667 %
1558 29-06-2019 00:00:00 24.105 C 45.4667 %
1559 30-06-2019 00:00:00 23.46833 C 52.6667 %
1560 01-07-2019 00:00:00 23.14417 C 56.9333 %
1561 02-07-2019 00:00:00 21.5975 C 49.7667 %
1562 03-07-2019 00:00:00 20.46667 C 46.5000 %
1563 04-07-2019 00:00:00 20.24 C 44.2750 %
1564 05-07-2019 00:00:00 20.99583 C 47.4667 %
1565 06-07-2019 00:00:00 21.055 C 53.0250 %
1566 07-07-2019 00:00:00 20.39667 C 54.9083 %
1567 08-07-2019 00:00:00 18.37167 C 51.1250 %
1568 09-07-2019 00:00:00 18.10583 C 49.1417 %
1569 10-07-2019 00:00:00 18.91917 C 42.0333 %
1570 11-07-2019 00:00:00 18.91167 C 59.7083 %
1571 12-07-2019 00:00:00 18.3025 C 73.7917 %
1572 13-07-2019 00:00:00 18.47333 C 67.7417 %
1573 14-07-2019 00:00:00 18.46917 C 65.0917 %
1574 15-07-2019 00:00:00 18.2725 C 59.6250 %
1575 16-07-2019 00:00:00 17.95917 C 58.3667 %
Sensor: Nr:Datum:Temp:Feuchte:
G-T/H 1576 17-07-2019 00:00:00 18.23667 C 61.2917 %
1577 18-07-2019 00:00:00 19.79417 C 58.3083 %
1578 19-07-2019 00:00:00 19.79417 C 61.5917 %
1579 20-07-2019 00:00:00 19.78583 C 63.8500 %
1580 21-07-2019 00:00:00 20.41333 C 63.8583 %
1581 22-07-2019 00:00:00 22.33167 C 54.5167 %
1582 23-07-2019 00:00:00 22.5225 C 56.8667 %
1583 24-07-2019 00:00:00 23.21833 C 58.3417 %
1584 25-07-2019 00:00:00 24.345 C 57.0083 %
1585 26-07-2019 00:00:00 24.17667 C 57.8500 %
1586 27-07-2019 00:00:00 23.54 C 61.3083 %
1587 28-07-2019 00:00:00 22.08333 C 64.8167 %
1588 29-07-2019 00:00:00 21.58833 C 59.7917 %
1589 30-07-2019 00:00:00 21.785 C 58.7750 %
1590 31-07-2019 00:00:00 22.4025 C 50.4333 %
1591 01-08-2019 00:00:00 21.77083 C 49.7000 %
1592 02-08-2019 00:00:00 21.34583 C 55.7750 %
1593 03-08-2019 00:00:00 20.90667 C 59.1167 %
1594 04-08-2019 00:00:00 20.4525 C 59.4750 %
1595 05-08-2019 00:00:00 22.07 C 57.0167 %
1596 06-08-2019 00:00:00 21.48083 C 59.7417 %
1597 07-08-2019 00:00:00 21.08 C 63.1500 %
1598 08-08-2019 00:00:00 20.60333 C 62.6167 %
1599 09-08-2019 00:00:00 20.50167 C 64.6000 %
1600 10-08-2019 00:00:00 20.38917 C 65.0917 %
Sensor: Nr:Datum:Temp:Feuchte:
G-T/H 1601 11-08-2019 00:00:00 19.8725 C 64.3750 %
1602 12-08-2019 00:00:00 19.0475 C 65.6000 %
1603 13-08-2019 00:00:00 18.645 C 58.8417 %
1604 14-08-2019 00:00:00 18.54583 C 57.0833 %
1605 15-08-2019 00:00:00 18.91583 C 62.6250 %
1606 16-08-2019 00:00:00 18.59917 C 65.5583 %
1607 17-08-2019 00:00:00 18.78167 C 67.1583 %
1608 18-08-2019 00:00:00 19.07417 C 68.7167 %
1609 19-08-2019 00:00:00 19.70167 C 61.8833 %
1610 20-08-2019 00:00:00 18.7775 C 58.6500 %
1611 21-08-2019 00:00:00 18.37 C 62.6500 %
1612 22-08-2019 00:00:00 18.7725 C 58.7167 %
1613 23-08-2019 00:00:00 19.34333 C 56.0250 %
1614 24-08-2019 00:00:00 19.1825 C 58.5917 %
1615 25-08-2019 00:00:00 19.53 C 63.3500 %
1616 26-08-2019 00:00:00 21.84417 C 64.5833 %
1617 27-08-2019 00:00:00 21.31417 C 66.1667 %
1618 28-08-2019 00:00:00 21.07 C 66.6583 %
1619 29-08-2019 00:00:00 21.03417 C 66.8417 %
1620 30-08-2019 00:00:00 20.6775 C 66.8917 %
1621 31-08-2019 00:00:00 20.2775 C 66.5917 %
1622 01-09-2019 00:00:00 20.59167 C 65.4167 %
1623 02-09-2019 00:00:00 18.59583 C 51.3417 %
1624 03-09-2019 00:00:00 16.5475 C 53.5583 %
1625 04-09-2019 00:00:00 18.68667 C 56.9667 %
Sensor: Nr:Datum:Temp:Feuchte:
G-T/H 1626 05-09-2019 00:00:00 18.34667 C 60.0000 %
1627 06-09-2019 00:00:00 17.44333 C 56.1750 %
1628 07-09-2019 00:00:00 17.36583 C 60.4417 %
1629 08-09-2019 00:00:00 16.54309 C 65.9350 %
1630 09-09-2019 00:00:00 16.06067 C 66.7333 %
1631 10-09-2019 00:00:00 15.23333 C 63.6597 %
1632 11-09-2019 00:00:00 15.74097 C 61.0833 %
1633 12-09-2019 00:00:00 17.93194 C 67.6319 %
1634 13-09-2019 00:00:00 18.68472 C 70.9653 %
1635 14-09-2019 00:00:00 18.01181 C 65.5903 %
1636 15-09-2019 00:00:00 17.60347 C 61.9722 %
1637 16-09-2019 00:00:00 17.78264 C 60.7361 %
1638 17-09-2019 00:00:00 17.67431 C 62.7083 %
1639 18-09-2019 00:00:00 15.39444 C 57.2778 %
1640 19-09-2019 00:00:00 14.12361 C 57.3125 %
1641 20-09-2019 00:00:00 13.22639 C 59.3056 %
1642 21-09-2019 00:00:00 15.10833 C 52.5278 %
1643 22-09-2019 00:00:00 15.13194 C 59.2083 %
1644 23-09-2019 00:00:00 16.27153 C 64.4028 %
1645 24-09-2019 00:00:00 16.11528 C 66.2778 %
1646 25-09-2019 00:00:00 16.20556 C 67.8681 %
1647 26-09-2019 00:00:00 16.33542 C 69.4097 %
1648 27-09-2019 00:00:00 16.76458 C 69.3611 %
1649 28-09-2019 00:00:00 16.47083 C 68.9792 %
1650 29-09-2019 00:00:00 16.41458 C 69.6528 %
Sensor: Nr:Datum:Temp:Feuchte:
G-T/H 1651 30-09-2019 00:00:00 16.64236 C 66.7917 %
1652 01-10-2019 00:00:00 16.54167 C 68.3542 %
1653 02-10-2019 00:00:00 16.15694 C 67.3056 %
1654 03-10-2019 00:00:00 14.67222 C 66.7361 %
1655 04-10-2019 00:00:00 14.15556 C 70.1319 %
1656 05-10-2019 00:00:00 14.31875 C 71.1667 %
1657 06-10-2019 00:00:00 13.69306 C 70.7847 %
1658 07-10-2019 00:00:00 13.58056 C 72.7153 %
1659 08-10-2019 00:00:00 14.14097 C 74.1597 %
1660 09-10-2019 00:00:00 14.23472 C 74.0486 %
1661 10-10-2019 00:00:00 14.00139 C 74.0278 %
1662 11-10-2019 00:00:00 13.98819 C 74.3333 %
1663 12-10-2019 00:00:00 14.71181 C 71.7639 %
1664 13-10-2019 00:00:00 15.13472 C 74.9097 %
1665 14-10-2019 00:00:00 16.34722 C 74.3958 %
1666 15-10-2019 00:00:00 15.98125 C 73.6597 %
1667 16-10-2019 00:00:00 15.42708 C 73.2986 %
1668 17-10-2019 00:00:00 15.28056 C 74.7292 %
1669 18-10-2019 00:00:00 15.18681 C 74.6042 %
1670 19-10-2019 00:00:00 14.72222 C 74.1944 %
1671 20-10-2019 00:00:00 14.40278 C 81.1597 %
1672 21-10-2019 00:00:00 14.60625 C 80.9028 %
1673 22-10-2019 00:00:00 14.62153 C 77.5000 %
1674 23-10-2019 00:00:00 14.00764 C 76.3542 %
1675 24-10-2019 00:00:00 14.52986 C 78.0139 %
Sensor: Nr:Datum:Temp:Feuchte:
G-T/H 1676 25-10-2019 00:00:00 15.10694 C 74.8681 %
1677 26-10-2019 00:00:00 14.99028 C 74.2153 %
1678 27-10-2019 00:00:00 14.43933 C 74.9333 %
1679 28-10-2019 00:00:00 12.81389 C 71.1806 %
1680 29-10-2019 00:00:00 12.35556 C 71.6389 %
1681 30-10-2019 00:00:00 10.98611 C 65.8194 %
1682 31-10-2019 00:00:00 9.49097 C 64.1736 %
1683 01-11-2019 00:00:00 9.67014 C 69.2569 %
1684 02-11-2019 00:00:00 12.01181 C 74.2222 %
1685 03-11-2019 00:00:00 12.91806 C 75.4861 %
1686 04-11-2019 00:00:00 12.97569 C 75.6250 %
1687 05-11-2019 00:00:00 12.58194 C 75.9444 %
1688 06-11-2019 00:00:00 12.33194 C 75.6528 %
1689 07-11-2019 00:00:00 12.18403 C 75.3403 %
1690 08-11-2019 00:00:00 11.13611 C 70.1181 %
1691 09-11-2019 00:00:00 11.02014 C 69.0972 %
1692 10-11-2019 00:00:00 9.95556 C 68.3056 %
1693 11-11-2019 00:00:00 9.96458 C 71.2708 %
1694 12-11-2019 00:00:00 10.11458 C 72.0972 %
1695 13-11-2019 00:00:00 10.0125 C 72.4097 %
1696 14-11-2019 00:00:00 9.73403 C 68.3958 %
1697 15-11-2019 00:00:00 9.68819 C 69.4028 %
1698 16-11-2019 00:00:00 9.6125 C 68.7083 %
1699 17-11-2019 00:00:00 9.03819 C 69.9306 %
1700 18-11-2019 00:00:00 9.47361 C 72.2500 %
Sensor: Nr:Datum:Temp:Feuchte:
G-T/H 1701 19-11-2019 00:00:00 9.40903 C 72.0833 %
1702 20-11-2019 00:00:00 8.93333 C 71.1181 %
1703 21-11-2019 00:00:00 8.40559 C 70.8182 %
1704 22-11-2019 00:00:00 8.70556 C 72.6736 %
1705 23-11-2019 00:00:00 9.32569 C 73.0972 %
1706 24-11-2019 00:00:00 9.08333 C 72.0764 %
1707 25-11-2019 00:00:00 9.04375 C 73.5069 %
1708 26-11-2019 00:00:00 9.85139 C 74.9375 %
1709 27-11-2019 00:00:00 10.87847 C 75.9236 %
1710 28-11-2019 00:00:00 11.51597 C 75.5069 %
1711 29-11-2019 00:00:00 11.25208 C 72.3542 %
1712 30-11-2019 00:00:00 9.66736 C 68.9097 %
1713 01-12-2019 00:00:00 8.81806 C 70.1806 %
1714 02-12-2019 00:00:00 8.35278 C 70.5417 %
1715 03-12-2019 00:00:00 8.74514 C 73.3472 %
1716 04-12-2019 00:00:00 8.79375 C 71.8403 %
1717 05-12-2019 00:00:00 7.92014 C 69.1458 %
1718 06-12-2019 00:00:00 7.57292 C 70.7014 %
1719 07-12-2019 00:00:00 8.97014 C 74.4514 %
1720 08-12-2019 00:00:00 10.25694 C 75.1667 %
1721 09-12-2019 00:00:00 10.48403 C 74.1111 %
1722 10-12-2019 00:00:00 9.34028 C 71.5903 %
1723 11-12-2019 00:00:00 8.75694 C 73.1250 %
1724 12-12-2019 00:00:00 8.81042 C 73.2500 %
1725 13-12-2019 00:00:00 8.51944 C 72.1458 %
Sensor: Nr:Datum:Temp:Feuchte:
G-T/H 1726 14-12-2019 00:00:00 8.92153 C 73.0764 %
1727 15-12-2019 00:00:00 9.56736 C 74.6667 %
1728 16-12-2019 00:00:00 9.90486 C 75.1389 %
1729 17-12-2019 00:00:00 10.43333 C 75.4583 %
1730 18-12-2019 00:00:00 10.925 C 75.4861 %
1731 19-12-2019 00:00:00 9.76667 C 73.6667 %
1732 20-12-2019 00:00:00 9.69375 C 75.0208 %
1733 21-12-2019 00:00:00 10.06458 C 74.5833 %
1734 22-12-2019 00:00:00 10.1375 C 75.1528 %
1735 23-12-2019 00:00:00 10.30417 C 75.3681 %
1736 24-12-2019 00:00:00 10.12639 C 74.9375 %
1737 25-12-2019 00:00:00 10.24444 C 75.9653 %
1738 26-12-2019 00:00:00 9.92708 C 75.2569 %
1739 27-12-2019 00:00:00 9.69444 C 75.5833 %
1740 28-12-2019 00:00:00 8.37639 C 70.3194 %
1741 29-12-2019 00:00:00 7.21528 C 69.6875 %
1742 30-12-2019 00:00:00 7.16944 C 69.0486 %
1743 31-12-2019 00:00:00 6.93194 C 69.9722 %
1744 01-01-2020 00:00:00 7.23125 C 70.8403 %
1745 02-01-2020 00:00:00 7.28958 C 70.5417 %
1746 03-01-2020 00:00:00 8.41389 C 73.4792 %
1747 04-01-2020 00:00:00 9.12431 C 73.5833 %
1748 05-01-2020 00:00:00 9.42917 C 73.5694 %
1749 06-01-2020 00:00:00 9.33958 C 72.1181 %
1750 07-01-2020 00:00:00 8.74583 C 72.1111 %
Sensor: Nr:Datum:Temp:Feuchte:
G-T/H 1751 08-01-2020 00:00:00 9.18611 C 74.0347 %
1752 09-01-2020 00:00:00 10.3875 C 76.5556 %
1753 10-01-2020 00:00:00 11.02153 C 75.1389 %
1754 11-01-2020 00:00:00 10.04097 C 73.2014 %
1755 12-01-2020 00:00:00 9.14861 C 72.8958 %
1756 13-01-2020 00:00:00 9.30833 C 74.5139 %
1757 14-01-2020 00:00:00 9.78958 C 75.6597 %
1758 15-01-2020 00:00:00 10.59028 C 75.5972 %
1759 16-01-2020 00:00:00 10.82222 C 75.8264 %
1760 17-01-2020 00:00:00 9.87847 C 74.9583 %
1761 18-01-2020 00:00:00 9.38125 C 74.1597 %
1762 19-01-2020 00:00:00 8.86667 C 74.2569 %
1763 20-01-2020 00:00:00 8.75 C 73.1111 %
1764 21-01-2020 00:00:00 7.77014 C 69.7847 %
1765 22-01-2020 00:00:00 7.17083 C 69.5903 %
1766 23-01-2020 00:00:00 7.63472 C 70.8611 %
1767 24-01-2020 00:00:00 7.71319 C 70.9097 %
1768 25-01-2020 00:00:00 7.96806 C 71.5139 %
1769 26-01-2020 00:00:00 7.98611 C 72.6597 %
1770 27-01-2020 00:00:00 8.21875 C 74.7500 %
1771 28-01-2020 00:00:00 8.85833 C 75.1458 %
1772 29-01-2020 00:00:00 8.44306 C 74.0000 %
1773 30-01-2020 00:00:00 8.61389 C 74.8750 %
1774 31-01-2020 00:00:00 10.32431 C 76.3958 %
1775 01-02-2020 00:00:00 11.40556 C 76.3681 %
Sensor: Nr:Datum:Temp:Feuchte:
G-T/H 1776 02-02-2020 00:00:00 11.15903 C 73.6736 %
1777 03-02-2020 00:00:00 11.4875 C 75.0000 %
1778 04-02-2020 00:00:00 10.54722 C 71.2847 %
1779 05-02-2020 00:00:00 9.47153 C 71.9236 %
1780 06-02-2020 00:00:00 8.34306 C 70.5208 %
1781 07-02-2020 00:00:00 7.79097 C 69.9167 %
1782 08-02-2020 00:00:00 7.33681 C 70.6528 %
1783 09-02-2020 00:00:00 8.3 C 73.5694 %
1784 10-02-2020 00:00:00 9.82708 C 73.9167 %
1785 11-02-2020 00:00:00 9.18194 C 72.2431 %
1786 12-02-2020 00:00:00 8.72083 C 72.8750 %
1787 13-02-2020 00:00:00 8.20208 C 72.5208 %
1788 14-02-2020 00:00:00 8.84653 C 74.7500 %
1789 15-02-2020 00:00:00 8.93958 C 73.5903 %
1790 16-02-2020 00:00:00 11.3125 C 68.1111 %
1791 17-02-2020 00:00:00 11.77708 C 69.2778 %
1792 18-02-2020 00:00:00 10.43056 C 67.4028 %
1793 19-02-2020 00:00:00 9.94514 C 69.4583 %
1794 20-02-2020 00:00:00 9.73472 C 71.6875 %
1795 21-02-2020 00:00:00 9.56875 C 71.4931 %
1796 22-02-2020 00:00:00 9.25625 C 72.0625 %
1797 23-02-2020 00:00:00 10.38403 C 73.7708 %
1798 24-02-2020 00:00:00 10.40903 C 71.9792 %
1799 25-02-2020 00:00:00 10.88819 C 73.0278 %
1800 26-02-2020 00:00:00 10.02917 C 68.9306 %
Sensor: Nr:Datum:Temp:Feuchte:
G-T/H 1801 27-02-2020 00:00:00 9.17986 C 71.0208 %
1802 28-02-2020 00:00:00 8.31042 C 73.7708 %
1803 29-02-2020 00:00:00 9.28125 C 75.1597 %
1804 01-03-2020 00:00:00 9.80486 C 74.3403 %
1805 02-03-2020 00:00:00 9.67847 C 73.5833 %
1806 03-03-2020 00:00:00 9.53681 C 73.3194 %
1807 04-03-2020 00:00:00 8.95833 C 73.5139 %
1808 05-03-2020 00:00:00 9.15833 C 73.9861 %
1809 06-03-2020 00:00:00 9.48958 C 74.9514 %
1810 07-03-2020 00:00:00 9.38611 C 74.0556 %
1811 08-03-2020 00:00:00 9.99583 C 74.7292 %
1812 09-03-2020 00:00:00 10.54861 C 73.8819 %
1813 10-03-2020 00:00:00 10.28056 C 73.3819 %
1814 11-03-2020 00:00:00 11.72083 C 75.8889 %
1815 12-03-2020 00:00:00 12.29653 C 71.3333 %
1816 13-03-2020 00:00:00 11.08333 C 68.2014 %
1817 14-03-2020 00:00:00 10.32361 C 70.1250 %
1818 15-03-2020 00:00:00 10.87153 C 65.1667 %
1819 16-03-2020 00:00:00 10.71667 C 66.3819 %
1820 17-03-2020 00:00:00 11.47153 C 70.7292 %
1821 18-03-2020 00:00:00 11.42569 C 70.3472 %
1822 19-03-2020 00:00:00 12.36736 C 67.4583 %
1823 20-03-2020 00:00:00 12.53217 C 67.5944 %
1824 21-03-2020 00:00:00 11.55903 C 63.9097 %
1825 22-03-2020 00:00:00 9.66111 C 61.2292 %
Sensor: Nr:Datum:Temp:Feuchte:
G-T/H 1826 23-03-2020 00:00:00 8.67431 C 62.8819 %
1827 24-03-2020 00:00:00 8.04028 C 63.8611 %

Maximal/Minimal-Werte vom 25.03.2015 - 24.03.2020

Sensor Min Max Avg
Temp
(Aussen-T/F)
-18.7 °C
20-06-2016  11:38:17
46.2 °C
19-06-2017  18:30:17
11.14 °C
Feuchte
(Aussen-T/F)
20 %
05-04-2015  15:32:17
95 %
01-05-2015  02:34:17
38.93 %
Temp
(G-T/H)
-6 °C
01-12-2016  10:32:18
29.7 °C
26-07-2018  16:25:17
13.47 °C
Feuchte
(G-T/H)
25 %
29-06-2019  18:04:17
85 %
16-10-2017  15:03:17
66.94 %

Die Daten stammen von einer Davis Vantage Pro 2 Wetter-Station und werden unter Linux mit der Software wview2wettercgi und aufbereitet. Alle Angaben erfolgen ohne Gewähr für ihre Vollständigkeit oder Richtigkeit.
Kontakt: Rainer Krienke krienke@uni-koblenz.de . Meine Webseiten an der Uni Koblenz oder privat.
Version: $Revision: 0.78 $